[[{"header":{"parameterUnit":"m.s-1","parameterCategory":1,"la1":30.6,"la2":29.2853,"lo1":-89.7004,"lo2":-87.6739,"dy":0.0162,"dx":0.0183,"nx":112,"ny":82,"refTime":"2024-05-19T12:00:00:Z","depth":0,"parameterNumber":2,"parameterNumberName":"U-component_of_WINDS"},"data":[0.0,0.0,0.0,0.0,0.0,0.0,0.0,0.0,0.0,0.0,0.0,0.0,0.0,0.0,0.0,0.0,0.0,0.0,0.0,0.0,0.0,0.0,0.0,0.0,0.0,0.0,0.0,0.0,0.0,0.0,0.0,0.0,0.0,0.0,0.0,0.0,0.0,0.0,0.0,0.0,0.0,0.0,0.0,0.0,0.0,0.0,0.0,0.0,0.0,0.0,0.0,0.0,0.0,0.0,0.0,0.0,0.0,0.0,0.0,0.0,0.0,0.0,0.0,0.0,0.0,0.0,0.0,0.0,0.0,0.0,0.0,0.0,0.0,0.0,0.0,0.0,0.0,0.0,0.0,0.0,0.0,0.0,0.0,0.0,0.0,0.0,0.0,0.0,0.0,0.0,-1.4128,-1.5284,-1.7986,-1.9465,-1.8897,-1.8672,-1.7281,-1.4303,0.0,0.0,0.0,0.0,0.0,0.0,0.0,0.0,0.0,0.0,0.0,0.0,0.0,0.0,0.0,0.0,0.0,0.0,0.0,0.0,0.0,0.0,0.0,0.0,0.0,0.0,0.0,0.0,0.0,0.0,0.0,0.0,0.0,0.0,0.0,0.0,0.0,0.0,0.0,0.0,0.0,0.0,0.0,0.0,0.0,0.0,0.0,0.0,0.0,0.0,0.0,0.0,0.0,0.0,0.0,0.0,0.0,0.0,0.0,0.0,0.0,0.0,0.0,0.0,0.0,0.0,0.0,0.0,0.0,0.0,0.0,0.0,0.0,0.0,0.0,0.0,0.0,0.0,0.0,0.0,0.0,0.0,0.0,0.0,0.0,0.0,0.0,0.0,0.0,0.0,0.0,0.0,0.0,0.0,0.0,0.0,0.0,0.0,0.0,0.0,0.0,0.0,0.0,0.0,-1.4475,-1.7762,-1.9046,-1.9663,-1.9573,-1.8508,-1.7191,-1.5604,0.0,0.0,0.0,0.0,0.0,0.0,0.0,0.0,0.0,0.0,0.0,0.0,0.0,0.0,0.0,0.0,0.0,0.0,0.0,0.0,0.0,0.0,0.0,0.0,0.0,0.0,0.0,0.0,0.0,0.0,0.0,0.0,0.0,0.0,0.0,0.0,0.0,0.0,0.0,0.0,0.0,0.0,0.0,0.0,0.0,0.0,0.0,0.0,0.0,0.0,0.0,0.0,0.0,0.0,0.0,0.0,0.0,0.0,0.0,0.0,0.0,0.0,0.0,0.0,0.0,0.0,0.0,0.0,0.0,0.0,0.0,0.0,0.0,0.0,0.0,0.0,0.0,0.0,0.0,0.0,0.0,0.0,0.0,0.0,0.0,0.0,0.0,0.0,0.0,0.0,0.0,0.0,0.0,0.0,0.0,0.0,0.0,0.0,0.0,0.0,0.0,0.0,0.0,-1.4514,-1.582,-1.8672,-1.9409,-1.9708,-1.9708,-1.8461,-1.7161,-1.5888,-1.3568,0.0,0.0,0.0,0.0,0.0,0.0,0.0,0.0,0.0,0.0,0.0,0.0,0.0,0.0,0.0,0.0,0.0,0.0,0.0,0.0,0.0,0.0,0.0,0.0,0.0,0.0,0.0,0.0,0.0,0.0,0.0,0.0,0.0,0.0,0.0,0.0,0.0,0.0,0.0,0.0,0.0,0.0,0.0,0.0,0.0,0.0,0.0,0.0,0.0,0.0,0.0,0.0,0.0,0.0,0.0,0.0,0.0,0.0,0.0,0.0,0.0,0.0,0.0,0.0,0.0,0.0,0.0,0.0,0.0,0.0,0.0,0.0,0.0,0.0,0.0,0.0,0.0,0.0,0.0,0.0,0.0,0.0,0.0,0.0,0.0,0.0,0.0,0.0,0.0,0.0,0.0,0.0,0.0,0.0,0.0,0.0,0.0,0.0,0.0,0.0,0.0,0.0,-1.641,-1.7405,-1.9123,-1.9552,-1.9708,-1.9708,-1.8326,-1.6981,-1.5873,-1.3133,0.0,0.0,0.0,0.0,0.0,0.0,0.0,0.0,0.0,0.0,0.0,0.0,0.0,0.0,0.0,0.0,0.0,0.0,0.0,0.0,0.0,0.0,0.0,0.0,0.0,0.0,0.0,0.0,0.0,0.0,0.0,0.0,0.0,0.0,0.0,0.0,0.0,0.0,0.0,0.0,0.0,0.0,0.0,0.0,0.0,0.0,0.0,0.0,0.0,0.0,0.0,0.0,0.0,0.0,0.0,0.0,0.0,0.0,0.0,0.0,0.0,0.0,0.0,0.0,0.0,0.0,0.0,0.0,0.0,0.0,0.0,0.0,0.0,0.0,0.0,0.0,0.0,0.0,0.0,0.0,0.0,0.0,0.0,0.0,0.0,0.0,0.0,0.0,0.0,0.0,0.0,0.0,0.0,0.0,0.0,0.0,0.0,0.0,0.0,0.0,0.0,0.0,-1.7302,-1.8873,-1.9589,-1.9696,-1.9708,-1.9708,-1.7908,-1.6503,-1.5844,-1.2703,0.0,0.0,0.0,0.0,0.0,0.0,0.0,0.0,0.0,0.0,0.0,0.0,0.0,0.0,0.0,0.0,0.0,0.0,0.0,0.0,0.0,0.0,0.0,0.0,0.0,0.0,0.0,0.0,0.0,0.0,0.0,0.0,0.0,0.0,0.0,0.0,0.0,0.0,0.0,0.0,0.0,0.0,0.0,0.0,0.0,0.0,0.0,0.0,0.0,0.0,0.0,0.0,0.0,0.0,0.0,0.0,0.0,0.0,0.0,0.0,0.0,0.0,0.0,0.0,0.0,0.0,0.0,0.0,0.0,0.0,0.0,0.0,0.0,0.0,0.0,0.0,0.0,0.0,0.0,0.0,0.0,0.0,0.0,0.0,0.0,0.0,0.0,0.0,0.0,0.0,0.0,0.0,0.0,0.0,0.0,0.0,0.0,0.0,0.0,0.0,0.0,0.0,-1.7387,-1.8901,0.0,-2.0072,-1.9965,-1.9711,-1.8237,-1.6712,-1.5275,0.0,0.0,0.0,0.0,0.0,0.0,0.0,0.0,0.0,0.0,0.0,0.0,0.0,0.0,0.0,0.0,0.0,0.0,0.0,0.0,0.0,0.0,0.0,0.0,0.0,0.0,0.0,0.0,0.0,0.0,0.0,0.0,0.0,0.0,0.0,0.0,0.0,0.0,0.0,0.0,0.0,0.0,0.0,0.0,0.0,0.0,0.0,0.0,0.0,0.0,0.0,0.0,0.0,0.0,0.0,0.0,0.0,0.0,0.0,0.0,0.0,0.0,0.0,0.0,0.0,0.0,0.0,0.0,0.0,0.0,0.0,0.0,0.0,0.0,0.0,0.0,0.0,0.0,0.0,0.0,0.0,0.0,0.0,0.0,0.0,0.0,0.0,0.0,0.0,0.0,0.0,0.0,0.0,0.0,0.0,0.0,0.0,0.0,0.0,0.0,0.0,0.0,-1.6123,-1.7744,-1.9066,0.0,-2.0297,-2.0141,-1.9729,-1.8267,-1.6637,-1.4902,0.0,0.0,0.0,0.0,0.0,0.0,0.0,0.0,0.0,0.0,0.0,0.0,0.0,0.0,0.0,0.0,0.0,0.0,0.0,0.0,0.0,0.0,0.0,0.0,0.0,0.0,0.0,0.0,0.0,0.0,0.0,0.0,0.0,0.0,0.0,0.0,0.0,0.0,0.0,0.0,0.0,0.0,0.0,0.0,0.0,0.0,0.0,0.0,0.0,0.0,0.0,0.0,0.0,0.0,0.0,0.0,0.0,0.0,0.0,0.0,0.0,0.0,0.0,0.0,0.0,0.0,0.0,0.0,0.0,0.0,0.0,0.0,0.0,0.0,0.0,0.0,0.0,0.0,0.0,0.0,0.0,0.0,0.0,0.0,0.0,0.0,0.0,0.0,0.0,0.0,0.0,0.0,0.0,0.0,0.0,0.0,0.0,0.0,0.0,0.0,0.0,0.0,-1.6891,-1.8503,-1.9659,-2.0243,-2.0314,-2.0141,-1.9729,-1.7863,-1.6159,0.0,0.0,0.0,0.0,0.0,0.0,0.0,0.0,0.0,0.0,0.0,0.0,0.0,0.0,0.0,0.0,0.0,0.0,0.0,0.0,0.0,0.0,0.0,0.0,0.0,0.0,0.0,0.0,0.0,0.0,0.0,0.0,0.0,0.0,0.0,0.0,0.0,0.0,0.0,0.0,0.0,0.0,0.0,0.0,0.0,0.0,0.0,0.0,0.0,0.0,0.0,0.0,0.0,0.0,0.0,0.0,0.0,0.0,0.0,0.0,0.0,0.0,0.0,0.0,0.0,0.0,0.0,0.0,0.0,0.0,0.0,0.0,0.0,0.0,0.0,0.0,0.0,0.0,0.0,0.0,0.0,0.0,0.0,0.0,0.0,0.0,0.0,0.0,0.0,0.0,0.0,0.0,0.0,0.0,0.0,0.0,0.0,0.0,0.0,0.0,0.0,0.0,0.0,-1.7333,-1.9408,-2.0707,-2.0783,-2.0797,-2.0499,-1.9764,-1.8281,-1.6458,-1.4244,0.0,0.0,0.0,0.0,0.0,0.0,0.0,0.0,0.0,0.0,0.0,0.0,0.0,0.0,0.0,0.0,0.0,0.0,0.0,0.0,0.0,0.0,0.0,0.0,0.0,0.0,0.0,0.0,0.0,0.0,0.0,0.0,0.0,0.0,0.0,0.0,0.0,0.0,0.0,0.0,0.0,0.0,0.0,0.0,0.0,0.0,0.0,0.0,0.0,0.0,0.0,0.0,0.0,0.0,0.0,0.0,0.0,0.0,0.0,0.0,0.0,0.0,0.0,0.0,0.0,0.0,0.0,0.0,0.0,0.0,0.0,0.0,0.0,0.0,0.0,0.0,0.0,0.0,0.0,0.0,0.0,0.0,0.0,0.0,0.0,0.0,0.0,0.0,0.0,0.0,0.0,0.0,0.0,0.0,0.0,0.0,0.0,0.0,0.0,0.0,0.0,0.0,-1.7512,-1.9802,-2.1211,-2.1241,-2.1103,-2.0715,-2.0,-1.8564,-1.6697,-1.4348,0.0,0.0,0.0,0.0,0.0,0.0,0.0,0.0,0.0,0.0,0.0,0.0,0.0,0.0,0.0,0.0,0.0,0.0,0.0,0.0,0.0,0.0,0.0,0.0,0.0,0.0,0.0,0.0,0.0,0.0,0.0,0.0,0.0,0.0,0.0,0.0,0.0,0.0,0.0,0.0,0.0,0.0,0.0,0.0,0.0,0.0,0.0,0.0,0.0,0.0,0.0,0.0,0.0,0.0,0.0,0.0,0.0,0.0,0.0,0.0,0.0,0.0,0.0,0.0,0.0,0.0,0.0,0.0,0.0,0.0,0.0,0.0,0.0,0.0,0.0,0.0,0.0,0.0,0.0,0.0,0.0,0.0,0.0,0.0,0.0,0.0,0.0,0.0,0.0,0.0,0.0,0.0,0.0,0.0,0.0,0.0,0.0,0.0,0.0,0.0,0.0,0.0,-1.7512,-1.9841,-2.1378,-2.1576,-2.1244,-2.0813,-2.0348,-1.8759,-1.6966,-1.502,0.0,0.0,0.0,0.0,0.0,0.0,0.0,0.0,0.0,0.0,0.0,0.0,0.0,0.0,0.0,0.0,0.0,0.0,0.0,0.0,0.0,0.0,0.0,0.0,0.0,0.0,0.0,0.0,0.0,0.0,0.0,0.0,0.0,0.0,0.0,0.0,0.0,0.0,0.0,0.0,0.0,0.0,0.0,0.0,0.0,0.0,0.0,0.0,0.0,0.0,0.0,0.0,0.0,0.0,0.0,0.0,0.0,0.0,0.0,0.0,-1.8189,-1.7276,0.0,0.0,0.0,0.0,0.0,0.0,0.0,0.0,0.0,0.0,0.0,0.0,0.0,0.0,0.0,0.0,0.0,0.0,0.0,0.0,0.0,0.0,0.0,0.0,0.0,0.0,0.0,0.0,0.0,0.0,0.0,0.0,0.0,0.0,0.0,0.0,0.0,0.0,0.0,0.0,-1.7597,-2.0297,-2.1953,-2.1625,-2.1244,-2.0813,-2.0348,-1.9184,-1.7655,-1.5709,-1.4184,0.0,0.0,0.0,0.0,0.0,0.0,0.0,0.0,0.0,0.0,0.0,0.0,0.0,0.0,0.0,0.0,0.0,0.0,0.0,0.0,0.0,0.0,0.0,0.0,0.0,0.0,0.0,0.0,0.0,0.0,0.0,0.0,0.0,0.0,0.0,0.0,0.0,0.0,0.0,0.0,0.0,0.0,0.0,0.0,0.0,0.0,0.0,0.0,0.0,0.0,0.0,0.0,0.0,0.0,0.0,0.0,0.0,0.0,0.0,-2.1211,-1.9841,0.0,0.0,0.0,0.0,0.0,0.0,0.0,0.0,0.0,0.0,0.0,0.0,0.0,0.0,0.0,0.0,0.0,0.0,0.0,0.0,0.0,0.0,0.0,0.0,0.0,0.0,0.0,0.0,0.0,0.0,0.0,0.0,0.0,0.0,0.0,0.0,0.0,0.0,0.0,0.0,-1.8149,-2.064,-2.2209,-2.1957,-2.1553,-2.1181,-2.0959,-1.9759,-1.8341,-1.6675,-1.5128,0.0,0.0,0.0,0.0,0.0,0.0,0.0,0.0,0.0,0.0,0.0,0.0,0.0,0.0,0.0,0.0,0.0,0.0,0.0,0.0,0.0,0.0,0.0,0.0,0.0,0.0,0.0,0.0,0.0,0.0,0.0,0.0,0.0,0.0,0.0,0.0,0.0,0.0,0.0,0.0,0.0,0.0,0.0,0.0,0.0,0.0,0.0,0.0,0.0,0.0,0.0,0.0,0.0,-2.7844,-2.8561,-2.9568,-2.945,-2.9382,-2.9145,-2.4812,-2.3408,-2.3985,-2.1721,0.0,0.0,0.0,0.0,0.0,0.0,0.0,0.0,0.0,0.0,0.0,0.0,0.0,0.0,0.0,0.0,0.0,0.0,0.0,0.0,0.0,0.0,-2.1783,-2.1783,-2.2243,-2.2006,-1.9519,0.0,0.0,0.0,0.0,0.0,0.0,0.0,0.0,0.0,0.0,0.0,-1.8894,-2.0974,-2.2296,-2.2296,-2.1825,-2.1491,-2.1491,-2.0241,-1.8933,-1.7696,-1.6059,-1.4288,0.0,0.0,0.0,0.0,0.0,0.0,0.0,0.0,0.0,0.0,0.0,0.0,0.0,0.0,0.0,0.0,0.0,0.0,0.0,0.0,0.0,0.0,0.0,0.0,0.0,0.0,0.0,0.0,0.0,0.0,0.0,0.0,-1.9278,-1.9917,0.0,0.0,0.0,0.0,0.0,0.0,0.0,0.0,0.0,0.0,0.0,0.0,0.0,-2.686,-2.8248,-2.9673,-3.0434,-3.0598,-3.13,-3.1707,-3.1836,-3.121,-3.0903,-3.0869,-3.0176,0.0,-2.7046,-2.4814,0.0,0.0,0.0,0.0,0.0,0.0,0.0,0.0,0.0,0.0,0.0,0.0,0.0,0.0,0.0,0.0,0.0,0.0,0.0,0.0,0.0,0.0,-2.4051,-2.4051,-2.4135,-2.4101,-2.3695,-2.0987,-1.8178,-1.6688,-1.5808,-1.5037,0.0,0.0,0.0,0.0,0.0,0.0,-1.9664,-2.1282,-2.2296,-2.2296,-2.1569,-2.1071,-2.1071,-2.0217,-1.9331,-1.8594,-1.7222,-1.583,-1.4453,-1.2568,0.0,0.0,0.0,0.0,0.0,0.0,0.0,0.0,0.0,0.0,0.0,0.0,0.0,0.0,0.0,0.0,0.0,0.0,0.0,0.0,0.0,0.0,0.0,0.0,0.0,0.0,0.0,0.0,0.0,-2.0545,-2.2543,-2.2118,-2.3014,-2.3095,0.0,0.0,0.0,0.0,0.0,0.0,0.0,0.0,0.0,-3.0382,-3.0827,-3.1683,-3.3018,-3.3811,-3.439,-3.4799,-3.4819,-3.5052,-3.5436,-3.5115,-3.4962,-3.4945,-3.4544,-3.3525,-3.1914,-2.845,-2.637,-2.5237,0.0,0.0,0.0,0.0,-2.2665,-2.2835,-2.3987,-2.4173,-2.3883,-2.3714,0.0,0.0,0.0,0.0,0.0,0.0,0.0,-2.2443,-2.2443,-2.3765,-2.5118,-2.5118,-2.5118,-2.5118,-2.5118,-2.3509,-2.1495,-1.9612,-1.8606,-1.758,-1.6001,-1.5815,0.0,0.0,0.0,-1.9439,-2.0534,-2.1634,-2.2296,-2.2296,-2.1959,-2.1736,-2.1736,-2.0926,-2.0151,-1.9482,-1.8413,-1.7071,-1.5425,-1.4152,-1.2688,0.0,0.0,0.0,0.0,0.0,0.0,0.0,0.0,0.0,0.0,0.0,0.0,0.0,0.0,0.0,0.0,0.0,0.0,0.0,0.0,0.0,0.0,0.0,0.0,0.0,0.0,0.0,0.0,-2.3243,-2.5152,-2.3866,-2.5225,-2.5559,0.0,0.0,0.0,0.0,0.0,0.0,-3.0129,-3.1832,-3.3277,-3.4372,-3.5099,-3.5966,-3.7057,-3.7224,-3.7668,-3.8395,-3.7629,-3.7671,-3.838,-3.8062,-3.7905,-3.7872,-3.7313,-3.6738,-3.587,-3.1799,-2.955,-2.8534,-2.7249,-2.6302,-2.5743,-2.6488,-2.6742,-2.6945,-2.8213,-2.8551,-2.8229,-2.7317,-2.6404,-2.5303,-2.3458,0.0,0.0,0.0,0.0,-2.4526,-2.4526,-2.549,-2.6471,-2.6471,-2.6471,-2.6471,-2.6471,-2.5727,-2.4457,-2.2426,-2.1414,-2.0285,-1.8448,-1.842,0.0,0.0,0.0,-2.0589,-2.138,-2.1955,-2.2296,-2.2296,-2.2194,-2.212,-2.212,-2.1431,-2.0751,-2.0114,-1.9317,-1.81,-1.6353,-1.5485,-1.4197,-1.2343,0.0,0.0,0.0,0.0,0.0,0.0,0.0,0.0,0.0,0.0,0.0,0.0,0.0,0.0,0.0,0.0,0.0,0.0,0.0,0.0,0.0,0.0,0.0,0.0,0.0,0.0,0.0,0.0,0.0,-2.505,-2.8518,0.0,0.0,0.0,0.0,-2.9898,-3.2137,-3.383,-3.4628,-3.5854,-3.7222,-3.8741,-3.8472,-3.8654,-3.9414,-3.9447,-3.9818,-4.0521,-3.9233,-3.8997,-3.9657,-3.8461,-3.7905,-3.7905,-3.7872,-3.7821,-3.755,-3.4455,-3.2324,-3.0954,-3.0192,-2.9414,-2.8857,-2.96,-2.9869,-2.9989,-3.0768,-3.0565,-3.0091,-3.0717,-2.9958,-2.862,-2.7722,-2.6979,0.0,0.0,-2.6979,-2.7587,-2.7587,-2.8197,-2.8824,-2.8824,-2.8824,-2.8824,-2.8824,-2.7656,-2.6149,-2.4626,-2.3746,-2.297,-2.2175,0.0,-2.1021,-2.1021,-2.1089,-2.141,-2.2158,-2.2279,-2.2296,-2.2296,-2.1899,-2.1643,-2.1643,-2.1244,-2.0797,-2.0318,-1.9711,-1.8835,-1.7655,-1.6413,-1.5095,-1.3722,-1.2388,0.0,0.0,0.0,0.0,0.0,0.0,0.0,0.0,0.0,0.0,0.0,0.0,0.0,0.0,0.0,0.0,0.0,0.0,0.0,0.0,0.0,0.0,0.0,0.0,0.0,0.0,0.0,0.0,-3.0587,-3.2457,0.0,-3.1403,-3.2472,-3.3518,-3.4082,-3.5881,-3.7312,-3.812,-3.9058,-4.0055,-4.1132,-4.1013,-4.1324,-4.2105,-4.177,-4.174,-4.1972,-4.0718,-4.0267,-4.0481,-3.9695,-3.9334,-3.9334,-3.9334,-3.9039,-3.8514,-3.7449,-3.6129,-3.473,-3.3926,-3.3186,-3.2581,-3.2831,-3.2628,-3.2273,-3.2527,-3.2442,-3.2188,-3.1989,-3.0903,-2.9651,-2.9362,-2.8772,-2.818,-2.818,-2.8366,-2.8569,-2.8569,-2.879,-2.8993,-2.8993,-2.8993,-2.8993,-2.8993,-2.857,-2.7876,-2.6826,-2.5253,-2.3881,-2.3139,-2.3187,-2.3154,-2.2697,-2.2629,-2.2699,-2.297,-2.2584,-2.2296,-2.2296,-2.2149,-2.2046,-2.2046,-2.1628,-2.1213,-2.078,-1.989,-1.8898,-1.776,-1.6861,-1.577,-1.4468,-1.3555,-1.2239,0.0,0.0,0.0,0.0,0.0,0.0,0.0,0.0,0.0,0.0,0.0,0.0,0.0,0.0,0.0,0.0,0.0,0.0,0.0,0.0,0.0,0.0,0.0,0.0,0.0,0.0,-3.333,-3.4119,-3.5646,-3.6105,-3.4761,-3.5862,-3.6876,-3.7459,-3.9019,-4.0157,-4.0671,-4.1479,-4.2158,-4.269,-4.269,-4.2947,-4.3496,-4.316,-4.2976,-4.2958,-4.1979,-4.1512,-4.149,-4.0914,-4.0546,-4.0368,-4.0368,-3.999,-3.9385,-3.9385,-3.8809,-3.7811,-3.6789,-3.6096,-3.5639,-3.5639,-3.5182,-3.4506,-3.4252,-3.3981,-3.3694,-3.3207,-3.2205,-3.1224,-3.1224,-3.0869,-3.048,-3.048,-3.0313,-3.011,-3.011,-2.9924,-2.9738,-2.9738,-2.9738,-2.9738,-2.9738,-2.9551,-2.9211,-2.8669,-2.6979,-2.5304,-2.4306,-2.4543,-2.4626,-2.3866,-2.378,-2.3678,-2.3427,-2.297,-2.2581,-2.233,-2.2296,-2.2296,-2.2296,-2.2017,-2.1643,-2.1228,-2.0194,-1.9107,-1.7986,-1.7133,-1.6204,-1.5155,-1.4259,-1.302,-1.1465,0.0,0.0,0.0,0.0,0.0,0.0,0.0,0.0,0.0,0.0,0.0,0.0,0.0,0.0,0.0,0.0,0.0,0.0,0.0,0.0,0.0,0.0,0.0,-3.0393,-3.3844,-3.6083,-3.5316,-3.8046,-3.9056,-3.6743,-3.8634,-4.001,-4.001,-4.146,-4.2341,-4.2341,-4.3075,-4.3515,-4.3515,-4.3515,-4.3515,-4.3515,-4.3515,-4.3479,-4.3462,-4.2939,-4.2655,-4.2616,-4.2021,-4.1424,-4.0897,-4.0897,-4.0577,-4.0096,-4.0096,-4.0096,-3.996,-3.8531,-3.7956,-3.7939,-3.7939,-3.7466,-3.6728,-3.5938,-3.5199,-3.4556,-3.4556,-3.4066,-3.344,-3.344,-3.3423,-3.3406,-3.3406,-3.2882,-3.2327,-3.2327,-3.1802,-3.1224,-3.1224,-3.1207,-3.119,-3.119,-3.0632,-3.0123,-3.0108,-2.8889,-2.7401,-2.5914,-2.5643,-2.5389,-2.4677,-2.4541,0.0,-2.3562,-2.3427,-2.3122,-2.2398,-2.2313,-2.2296,-2.2296,-2.2296,-2.2092,-2.1613,-2.0564,-1.9495,-1.8439,-1.7303,-1.6443,-1.5844,-1.4498,-1.3481,-1.2819,0.0,0.0,0.0,0.0,0.0,0.0,0.0,0.0,0.0,0.0,0.0,0.0,0.0,0.0,0.0,0.0,0.0,0.0,0.0,0.0,0.0,0.0,-3.4614,-3.4614,-3.6597,-3.8597,-4.012,-4.1093,-4.1607,-4.1532,-4.2119,-4.2523,-4.2523,-4.291,-4.3167,-4.3167,-4.3386,-4.3515,-4.3515,-4.3515,-4.3515,-4.3515,-4.3515,-4.3303,-4.292,-4.2342,-4.1832,-4.138,-4.0838,-4.049,-4.0311,-4.0311,-4.0254,-4.0096,-4.0096,-4.0096,-4.0062,-3.9656,-3.9157,-3.87,-3.87,-3.8227,-3.7567,-3.7347,-3.6789,-3.6169,-3.6169,-3.5267,-3.4201,-3.4201,-3.3829,-3.3406,-3.3406,-3.3254,-3.3102,-3.3102,-3.2544,-3.2005,-3.2005,-3.1599,-3.119,-3.119,-3.1038,-3.0734,-3.019,-2.9751,-2.8973,-2.7452,-2.6759,-2.6319,-2.6132,-2.5642,0.0,-2.5033,-2.4052,-2.3325,-2.3122,-2.2632,-2.2296,-2.2296,-2.2296,-2.1974,-2.1213,-1.9974,-1.9087,-1.8635,-1.7388,-1.6622,-1.6458,-1.4709,-1.3707,0.0,0.0,0.0,0.0,0.0,0.0,0.0,0.0,0.0,0.0,0.0,0.0,0.0,0.0,0.0,0.0,0.0,0.0,0.0,0.0,0.0,0.0,-3.5253,-3.8028,-3.8726,-3.9625,-4.0855,-4.2598,-4.28,-4.2983,-4.346,-4.3515,-4.3515,-4.3515,-4.3809,-4.3993,-4.3993,-4.4323,-4.4507,-4.4507,-4.4507,-4.4507,-4.4507,-4.4507,-4.4181,-4.3522,-4.3182,-4.2548,-4.1643,-4.1348,-4.0908,-4.0441,-4.0441,-4.0311,-4.0096,-4.0096,-4.0096,-4.0096,0.0,0.0,0.0,0.0,-3.8717,-3.8328,-3.8024,-3.7618,-3.7246,-3.7246,-3.6434,-3.5475,-3.5475,-3.4928,-3.4315,-3.4315,-3.41,-3.3863,-3.3863,-3.3305,-3.2767,-3.2767,-3.2209,-3.1667,-3.1667,-3.141,-3.1072,-3.0649,-3.0311,0.0,-2.8922,-2.7858,-2.7063,-2.6742,-2.6336,-2.5947,-2.5642,-2.4847,-2.4086,-2.346,-2.3021,-2.2649,-2.233,-2.2296,0.0,0.0,0.0,-1.909,-1.8317,-1.7533,0.0,0.0,0.0,0.0,0.0,0.0,0.0,0.0,-1.3253,-1.3044,0.0,0.0,0.0,0.0,0.0,0.0,0.0,0.0,0.0,0.0,0.0,0.0,0.0,0.0,0.0,0.0,-3.8145,-4.0689,-4.2213,-4.2433,-4.269,-4.3423,-4.3515,-4.3515,-4.3515,-4.3588,-4.3626,-4.3626,-4.4378,-4.4838,-4.4838,0.0,0.0,0.0,0.0,-4.5902,-4.5902,-4.5902,-4.548,-4.462,-4.4547,-4.3812,-4.2526,-4.2436,-4.181,-4.0803,-4.0803,-4.0528,-4.0096,-4.0096,-4.0096,-4.0096,-4.0096,-4.0096,-4.0028,-3.9385,-3.9106,-3.9022,-3.8379,0.0,0.0,-3.8024,-3.7533,-3.6931,-3.6931,-3.6366,-3.5735,-3.5735,-3.5199,-3.4624,-3.4624,-3.4083,-3.3525,-3.3525,-3.2949,-3.2429,-3.2429,-3.1833,-3.1309,-3.1309,-3.0734,-3.0209,-3.0106,-2.8821,-2.757,-2.6911,-2.6742,-2.6454,-2.5812,-2.5643,-2.5101,-2.3782,-2.3494,0.0,-2.2482,-2.2347,-2.2282,-2.2223,-2.0843,-1.939,-1.7947,-1.7851,-1.7818,-1.7818,-1.7743,-1.7713,-1.7713,-1.7713,-1.7743,-1.7743,-1.4752,-1.4302,0.0,0.0,0.0,0.0,0.0,0.0,0.0,0.0,0.0,0.0,0.0,0.0,0.0,0.0,0.0,-3.8535,-4.0571,-4.2176,-4.313,-4.3276,-4.3331,-4.3478,-4.3515,-4.3515,-4.3515,-4.4085,-4.447,-4.447,-4.5204,-4.5663,-4.5663,-4.581,-4.5902,-4.5902,-4.5902,-4.5902,-4.5902,-4.5902,-4.5324,-4.421,-4.3611,0.0,-4.1454,-4.0861,-4.0483,-4.0237,-4.0237,-4.0204,-4.0096,-4.0096,-4.0096,-4.0096,-4.0096,-4.0096,-4.0079,-3.9943,-3.9893,-3.9876,-3.9723,-3.9276,-3.8785,-3.8785,-3.8294,-3.7686,-3.7686,-3.7161,0.0,-3.6575,-3.5994,-3.538,-3.538,-3.4844,-3.4286,-3.4286,-3.3728,-3.3186,-3.3186,-3.2594,-3.209,-3.209,-3.1478,-3.0801,-3.019,-2.8821,-2.7756,-2.7604,-2.708,-2.664,-2.6505,-2.5981,-2.5491,-2.5187,-2.4103,-2.3342,-2.319,-2.2634,-2.2135,-2.1764,-2.0799,-1.99,-1.9102,-1.8709,-1.8506,-1.8506,-1.7983,-1.7713,-1.7713,-1.7713,-1.7983,-1.8493,-1.7295,-1.6966,0.0,0.0,0.0,0.0,0.0,0.0,0.0,0.0,0.0,0.0,0.0,-3.1864,0.0,0.0,-3.8664,-4.0425,-4.1931,-4.3039,-4.3441,-4.3515,-4.3515,-4.3515,-4.3515,-4.3644,-4.4066,-4.447,-4.4856,-4.5278,-4.6049,-4.6507,-4.6507,-4.6893,-4.6963,-4.6655,-4.6655,-4.6497,-4.6155,-4.6155,-4.5642,-4.4655,-4.4289,-4.3436,-4.2167,-4.1439,-4.094,-4.0629,-4.0265,-4.0096,-4.0096,-4.0096,-4.0096,-4.0096,-4.0096,-4.0096,-4.0096,-4.0096,-4.0096,-4.0096,-4.0096,-3.9859,-3.9554,-3.9554,-3.9039,-3.8447,-3.8447,-3.7939,-3.7263,-3.6914,-3.6502,-3.6113,-3.5701,-3.5329,-3.5064,-3.5064,-3.4489,-3.3947,-3.3947,-3.3372,-3.273,-3.2378,-3.2005,-3.1532,-3.0784,-2.9719,-2.8686,-2.7925,-2.7486,-2.7131,-2.6742,-2.637,-2.6015,-2.5642,-2.4949,-2.4205,-2.346,-2.2733,-2.2003,-2.1337,-2.1086,-2.054,-1.9594,-1.9512,-1.9409,-1.9214,-1.8867,-1.8702,-1.8702,-1.8702,-1.8867,-1.9181,-1.8867,-1.8702,0.0,0.0,0.0,0.0,0.0,0.0,0.0,0.0,-3.0467,-3.3023,-3.4169,-3.523,-3.6859,-3.8923,-4.0701,-4.1724,-4.2793,-4.3515,-4.3515,-4.3515,-4.3515,-4.3515,-4.3626,-4.3993,-4.4654,-4.4966,-4.5443,-4.6085,-4.6874,-4.7333,-4.7333,-4.7957,-4.8075,-4.7593,-4.7572,-4.732,-4.6778,-4.6778,-4.6321,-4.5428,-4.5292,-4.4523,-4.32,-4.2484,-4.1816,-4.117,-4.0434,-4.0096,-4.0096,-4.0096,-4.0096,-4.0096,-4.0096,-4.0096,-4.0096,-4.0096,-4.0096,-4.0096,-4.0096,-4.0096,-4.0096,-4.0096,-3.9706,-3.9208,-3.9208,-3.87,-3.799,-3.7381,-3.7032,-3.666,-3.6011,-3.5718,-3.56,-3.56,-3.5165,-3.4709,-3.4709,-3.4134,-3.3406,-3.2666,-3.2395,-3.2073,-3.1326,-3.0717,-2.9835,-2.8466,-2.7993,-2.7587,-2.6996,-2.6793,-2.6471,-2.5879,-2.5693,-2.5,-2.3528,-2.2868,-2.2139,-2.1308,-2.1399,-2.1023,-1.9997,-2.0089,-2.0035,-1.9708,-1.9708,-1.9708,-1.9708,-1.9708,-1.9708,-1.9708,-1.9708,-1.9708,-2.6687,-2.6859,-2.7742,-3.0638,-3.0722,-3.147,0.0,0.0,-3.588,-3.7912,-3.8974,-3.9749,-4.0436,-4.1374,-4.2306,-4.3134,-4.3407,-4.3515,-4.3515,-4.3515,-4.3515,-4.3515,-4.4121,-4.4617,-4.4691,-4.5993,-4.6874,-4.6947,-4.77,-4.8177,-4.8177,-4.8251,-4.8267,-4.8191,-4.8191,-4.8172,-4.8094,-4.8094,-4.7458,-4.6265,-4.5604,-4.4611,-4.3359,-4.2596,-4.1891,-4.117,-4.0434,-4.0096,-4.0096,-4.0096,-4.0096,-4.0096,-4.0096,-4.0096,-4.0096,-4.0096,-4.0096,-4.0096,-4.0096,-4.0096,-4.0096,-4.0096,-4.0045,-3.9977,-3.9977,-3.9469,-3.8853,-3.8768,-3.7828,-3.6778,-3.6694,-3.6146,-3.56,-3.56,-3.5532,-3.5481,-3.5481,-3.4912,-3.415,-3.3423,-3.2747,-3.2073,-3.1326,-3.1123,-3.0801,-2.9973,-2.8686,-2.7773,-2.7689,-2.7114,-2.6657,-2.659,-2.5998,-2.5,-2.3528,-2.3325,-2.296,-2.22,-2.1461,-2.0991,-2.0862,-2.0139,-1.9747,-1.9708,-1.9708,-1.9708,-1.9708,-1.9708,-1.9708,-1.9708,-1.9708,-1.9708,-3.0015,-3.0938,-3.1897,0.0,-3.4907,-3.6482,-3.8421,-3.8594,-3.8854,-4.059,-4.1244,-4.1679,-4.2362,-4.2763,-4.3259,0.0,-4.4195,-4.4195,-4.4195,-4.4195,-4.4011,-4.357,-4.4213,-4.4892,-4.5351,-4.6012,-4.6801,-4.7718,-4.8122,-4.8306,-4.8306,-4.8306,-4.8152,-4.7777,-4.7777,-4.7428,-4.6664,-4.6664,-4.6233,-4.5346,-4.5044,-4.4609,-4.4062,-4.3301,-4.254,-4.1796,-4.1052,-4.073,-4.0696,-4.0282,-4.0096,-4.0096,-4.0096,-4.0096,-4.0096,-4.0096,-4.0096,-4.0096,-4.0096,-4.0096,-4.0096,-4.0096,-4.0096,-4.0096,-4.0096,-3.9893,-3.9554,-3.9106,-3.8548,-3.7895,-3.7032,-3.6535,-3.618,-3.5701,-3.56,-3.56,-3.56,-3.5346,-3.4928,-3.4184,-3.344,-3.2696,-3.1972,-3.1478,-3.1089,-3.0784,-2.9837,-2.8804,-2.7925,-2.7536,-2.7182,-2.6742,-2.6048,-2.5355,-2.4729,-2.3883,-2.3152,-2.2562,-2.1798,-2.1118,-2.0616,-2.0244,-1.9929,-1.9693,-1.9708,-1.9708,-1.9708,-1.9708,-1.9708,-1.9708,-1.9708,-1.9708,-3.248,-3.3797,0.0,-3.5817,-3.8138,-4.0139,-3.979,-4.0322,-4.1222,-4.2396,-4.2635,-4.28,-4.3404,-4.3515,-4.3754,-4.4563,-4.4691,-4.4691,-4.4691,-4.4691,-4.4415,-4.3606,-4.4011,-4.469,-4.5498,-4.5975,-4.6709,-4.7865,-4.8024,-4.8055,-4.8055,-4.7879,-4.7593,-4.715,-4.711,-4.6682,-4.5757,-4.5757,-4.5433,-4.4841,-4.4841,-4.4759,-4.4581,-4.3775,-4.3115,-4.2557,-4.183,-4.139,-4.117,-4.0612,-4.0282,-4.0096,-4.0096,-4.0096,-4.0096,-4.0096,-4.0096,-4.0096,-4.0096,-4.0096,-4.0096,-4.0096,-4.0096,-4.0096,-4.0096,-4.0096,-3.9994,-3.9445,-3.9157,-3.8734,-3.7692,-3.71,-3.666,-3.6079,-3.5752,-3.56,-3.56,-3.56,-3.538,-3.4641,-3.4066,-3.3406,-3.2462,-3.187,-3.1427,-3.1224,-3.0751,-2.9939,-2.8601,-2.806,-2.7519,-2.6776,-2.6218,-2.5828,-2.5625,-2.4628,-2.3762,-2.3233,-2.2273,-2.1456,-2.0816,-2.0371,-2.0,-1.9708,-1.9708,-1.9708,-1.9708,-1.9708,-1.9708,-1.9708,-1.9708,-1.9708,-3.3704,0.0,-3.6035,-3.8083,-3.9829,-4.126,-4.2029,-4.28,-4.3387,-4.346,-4.346,-4.3478,-4.3515,-4.3515,-4.3754,-4.4563,-4.4691,-4.4691,-4.4691,-4.4691,-4.4415,-4.3606,-4.3533,-4.3846,0.0,-4.614,-4.7076,-4.7131,-4.732,-4.7428,-4.7428,-4.6801,-4.6454,-4.643,-4.643,-4.6407,-4.6383,-4.6383,-4.607,-4.5485,-4.5485,-4.5169,-4.4581,-4.3775,-4.3375,-4.3325,-4.2591,-4.1863,-4.1204,-4.1187,-4.0747,-4.0096,-4.0096,-4.0096,-4.0096,-4.0096,-4.0096,-4.0096,-4.0096,-4.0096,-4.0096,-4.0096,-4.0096,-4.0096,-4.0096,-4.0096,-4.0096,-4.0079,-3.9554,-3.8988,-3.8937,-3.7879,-3.6795,-3.6778,-3.6163,-3.56,-3.56,-3.56,-3.538,-3.4641,-3.4472,-3.402,-3.2547,-3.2276,-3.2022,-3.1309,-3.1173,-3.0886,-3.0142,-2.872,-2.7519,-2.6776,-2.6674,-2.637,-2.5659,-2.5559,-2.522,-2.4492,-2.2948,-2.2066,-2.205,-2.0547,-1.9711,-1.9708,-1.9708,-1.9708,-1.9708,-1.9708,-1.9708,-1.9708,-1.9708,-1.9708,-3.5152,0.0,-3.875,-3.9978,-4.1497,-4.2763,-4.302,-4.3296,-4.3515,-4.3515,-4.3075,-4.2873,-4.3387,-4.3057,-4.3314,-4.5186,-4.5498,-4.5681,-4.6214,-4.6287,-4.5792,-4.447,-4.4305,0.0,0.0,0.0,0.0,-4.7021,-4.7162,-4.743,-4.7979,-4.7406,-4.7044,-4.7044,-4.6641,-4.6216,-4.5808,-4.5808,-4.5511,-4.4906,-4.4906,-4.4786,-4.4598,-4.4316,-4.4198,-4.4147,-4.3369,-4.2895,-4.2564,-4.161,-4.1052,-4.0781,-4.0299,-4.0096,-4.0096,-4.0096,-4.0096,-4.0096,-4.0096,-4.0096,-4.0096,-4.0096,-4.0096,-4.0096,-4.0096,-4.0096,-4.0096,-4.0096,-3.9926,-3.9622,-3.9123,-3.8616,-3.8007,-3.7032,-3.6586,-3.6248,-3.5718,-3.56,-3.5515,-3.5278,-3.4827,-3.4336,-3.385,-3.2953,-3.2056,-3.1309,-3.0784,-3.0378,-3.0123,-2.8753,-2.7705,-2.7452,-2.6996,-2.659,-2.6353,-2.5879,-2.5344,-2.4747,-2.3483,-2.2595,-2.2254,-2.1032,-2.0363,-2.0363,-1.9932,-1.9708,-1.9708,-1.9708,-1.9708,-1.9708,-1.9708,-1.9708,-3.7461,-3.9289,-4.0598,-4.168,-4.2745,-4.3515,-4.3515,-4.3515,-4.3423,-4.313,-4.2433,-4.2029,-4.2543,-4.1974,-4.2231,-4.4654,-4.5278,-4.5755,-4.6544,-4.6911,-4.6599,-4.5296,-4.5131,-4.4929,0.0,0.0,0.0,-4.6581,-4.7016,-4.7428,-4.7959,-4.7367,-4.6932,-4.6728,-4.6288,-4.5783,-4.5178,-4.5178,-4.4971,-4.4615,-4.4615,-4.4615,-4.4615,-4.4615,-4.4615,-4.4581,-4.4045,-4.3673,-4.3325,-4.2361,-4.1694,-4.1153,-4.0679,-4.0333,-4.0096,-4.0096,-4.0096,-4.0096,-4.0096,-4.0096,-4.0096,-4.0096,-4.0096,-4.0096,-4.0096,-4.0096,-4.0096,-4.0096,-4.0096,-3.9994,-3.9537,-3.9191,-3.8751,-3.7828,-3.7185,-3.666,-3.6146,-3.5785,-3.56,-3.56,-3.5211,-3.481,-3.4539,-3.3292,-3.2141,-3.1667,-3.097,-3.0395,-3.0123,-2.9227,-2.8415,-2.7858,-2.7367,-2.6996,-2.6708,-2.6268,-2.5849,-2.5495,-2.4231,-2.3326,-2.2995,-2.1732,-2.1066,-2.1066,-2.0632,-2.0408,-2.0408,-2.0408,-2.0288,-2.0049,-2.0049,-2.0049,-4.0337,-4.115,-4.1589,-4.3112,-4.3515,-4.3515,-4.3515,-4.3478,-4.3221,-4.2396,-4.157,-4.0948,0.0,0.0,-4.0653,-4.3001,-4.4158,-4.5057,-4.5847,-4.6636,-4.6856,0.0,0.0,0.0,0.0,0.0,0.0,-4.6012,0.0,-4.7413,-4.7428,-4.6801,-4.6192,-4.5622,-4.552,-4.5232,-4.4654,-4.4615,-4.4615,-4.4615,-4.4615,-4.4615,-4.4615,-4.4615,-4.4615,-4.4615,-4.4615,-4.4164,-4.3443,-4.3409,-4.2591,-4.1322,-4.1238,-4.0764,-4.0146,-4.0113,-4.0096,-4.0096,-4.0096,-4.0096,-4.0096,-4.0096,-4.0096,-4.0096,-4.0096,-4.0096,-4.0096,-4.0096,-4.0096,-4.0096,-4.0096,-3.9588,-3.9039,-3.9005,-3.7946,-3.6897,-3.6829,-3.6197,-3.565,-3.56,-3.56,-3.5363,-3.4624,-3.3343,-3.2395,-3.231,-3.1698,-3.0987,-3.026,-3.0125,-2.9531,-2.8077,-2.7874,-2.7518,-2.6776,-2.6691,-2.6657,-2.6641,-2.5108,-2.4209,-2.4209,-2.2632,-2.1739,-2.1739,-2.171,-2.1695,-2.1695,-2.1695,-2.138,-2.0748,-2.0748,-2.0748,-4.073,-4.1992,-4.2983,-4.3387,-4.3515,-4.3515,-4.3515,-4.3039,-4.2378,-4.1572,-4.0288,-3.9129,0.0,0.0,0.0,-4.1515,-4.3901,0.0,-4.6672,-4.748,0.0,-4.6892,0.0,-4.6562,-4.5957,-4.6452,0.0,0.0,-4.7365,-4.7434,-4.8038,-4.747,-4.7066,-4.691,-4.5989,-4.5433,-4.5267,-4.4814,-4.4615,-4.4615,-4.4615,-4.4615,-4.4615,-4.4615,-4.4615,-4.4615,-4.4615,-4.4496,-4.4231,-4.3656,-4.3172,-4.2743,-4.1644,-4.1085,-4.0849,-4.0316,-4.0096,-4.0096,-4.0096,-4.0096,-4.0096,-4.0096,-4.0096,-4.0096,-4.0096,-4.0096,-4.0096,-4.0096,-4.0096,-4.0096,-4.0096,-3.996,-3.969,-3.9123,-3.87,-3.8149,-3.7049,-3.6643,-3.6315,-3.5718,-3.56,-3.5363,-3.4624,-3.4184,-3.358,-3.2462,-3.2141,-3.1752,-3.1004,-3.0446,-2.9956,-2.9548,-2.8622,-2.7763,-2.7053,-2.658,-2.6108,-2.5612,-2.4814,-2.4346,-2.4346,-2.3117,-2.2448,-2.2448,-2.1934,-2.1695,-2.1695,-2.1695,-2.1605,-2.1455,-2.1455,-2.1455,-4.1846,-4.28,-4.3515,-4.3515,-4.3515,-4.3221,-4.2158,-4.157,-4.0708,-3.8802,-3.7408,0.0,-3.5495,-3.6982,0.0,0.0,0.0,0.0,-4.6452,-4.7572,-4.8141,0.0,-4.7976,0.0,-4.7553,-4.7962,-4.8441,0.0,-4.8166,-4.8057,-4.8878,-4.8303,-4.7854,-4.7529,-4.6828,-4.633,-4.6066,-4.5422,-4.5077,-4.506,-4.4767,-4.4615,-4.4615,-4.4615,-4.4615,-4.4615,-4.4615,-4.4615,-4.4564,-4.4113,-4.3724,-4.3274,-4.2134,-4.1491,-4.1119,-4.0383,-4.0096,-4.0096,-4.0096,-4.0096,-4.0096,-4.0096,-4.0096,-4.0096,-4.0096,-4.0096,-4.0096,-4.0096,-4.0096,-4.0096,-4.0096,-4.0096,-3.9994,-3.9588,-3.9225,-3.8768,-3.7922,-3.7269,-3.6575,-3.5752,-3.56,-3.5464,-3.5064,-3.4709,-3.41,-3.2949,-3.2513,-3.2039,-3.1275,-3.0835,-3.0463,-3.0123,-2.919,-2.8296,-2.7608,-2.6706,-2.6034,-2.5659,-2.4865,-2.441,-2.441,-2.3567,-2.3092,-2.3092,-2.2727,-2.2532,-2.2532,-2.2532,-2.2398,-2.2149,-2.2149,-2.2149,-4.3112,-4.3515,-4.3515,-4.3515,-4.3423,-4.2727,-4.0366,-3.9609,-3.8524,-3.5278,0.0,-3.3201,-3.2289,-3.4321,-3.6376,-3.7217,0.0,-4.4745,-4.5755,-4.7186,-4.8233,-4.8453,-4.9132,-4.9589,-4.9601,-4.9673,-4.9717,-4.9734,-4.8972,-4.8847,-4.9536,-4.9012,-4.8388,-4.7709,-4.7682,-4.743,-4.6832,-4.616,-4.5805,-4.5703,-4.5043,-4.4699,-4.4615,-4.4615,-4.4615,-4.4615,-4.4615,-4.4615,-4.4615,-4.4615,-4.4181,-4.3504,-4.2743,-4.1999,-4.1255,-4.0536,-4.018,-4.0096,-4.0096,-4.0096,-4.0096,-4.0096,-4.0096,-4.0096,-4.0096,-4.0096,-4.0096,-4.0096,-4.0096,-4.0096,-4.0096,-4.0096,-4.0096,-4.0096,-3.9622,-3.9106,-3.9005,-3.7821,-3.6586,-3.5887,-3.5667,-3.56,-3.56,-3.5081,-3.4387,-3.366,-3.2916,-3.2192,-3.1427,-3.1258,-3.0954,-3.0311,-2.9709,-2.9017,-2.821,-2.7058,-2.6279,-2.6104,-2.5035,-2.4416,-2.4389,-2.3879,-2.3595,-2.3595,-2.3595,-2.3595,-2.3595,-2.3595,-2.3325,-2.2823,-2.2823,-2.2823,-4.3423,-4.3515,-4.3515,-4.3515,-4.3002,-4.1962,-3.9865,-3.8118,0.0,0.0,-3.2187,-3.1366,-2.9904,-3.2693,-3.55,-3.6376,0.0,0.0,0.0,0.0,-4.7829,0.0,0.0,-4.9612,-4.9691,-4.9699,0.0,0.0,-4.9162,-4.8785,-4.8877,-4.8767,-4.8388,-4.7709,-4.7682,-4.743,-4.6832,-4.6667,-4.6295,-4.5703,-4.5568,-4.5179,-4.4615,-4.4615,-4.4615,-4.4615,-4.4615,-4.4615,-4.4615,-4.4615,-4.453,-4.4327,-4.3521,-4.276,-4.2016,-4.1271,-4.0612,-4.0096,-4.0096,-4.0096,-4.0096,-4.0096,-4.0096,-4.0096,-4.0096,-4.0096,-4.0096,-4.0096,-4.0096,-4.0096,-4.0096,-4.0096,-4.0096,-4.0096,-4.0011,-3.974,-3.9123,-3.7821,-3.6761,-3.6626,-3.6062,-3.56,-3.56,-3.5481,-3.5165,-3.4421,-3.3677,-3.2933,-3.2209,-3.1562,-3.114,-3.1021,-3.0475,-2.9632,-2.8452,-2.7677,-2.6791,-2.5606,-2.492,-2.4529,-2.44,-2.3879,-2.3595,-2.3595,-2.3595,-2.3595,-2.3595,-2.3595,-2.355,-2.343,-2.343,-2.343,-4.3515,-4.3515,-4.3515,-4.3515,-4.2892,-4.1432,-3.8163,0.0,0.0,0.0,-2.9074,-2.845,-2.7864,-3.0705,0.0,-3.4247,0.0,0.0,0.0,0.0,0.0,0.0,0.0,0.0,0.0,-5.0918,-5.0838,-5.0545,-4.9849,-4.9417,-4.9379,-4.9069,-4.8695,-4.8401,-4.8372,-4.8243,-4.7936,-4.7564,-4.7005,-4.6261,-4.5889,-4.5314,-4.4615,-4.4615,-4.4615,-4.4615,-4.4615,-4.4615,-4.4615,-4.4615,-4.4615,-4.453,-4.3724,-4.2963,-4.2202,-4.1474,-4.073,-4.0096,-4.0096,-4.0096,-4.0096,-4.0096,-4.0096,-4.0096,-4.0096,-4.0096,-4.0096,-4.0096,-4.0096,-4.0096,-4.0096,-4.0096,-4.0096,-4.0096,-4.0096,-3.991,-3.9157,-3.8142,-3.7246,-3.688,-3.6146,-3.56,-3.56,-3.56,-3.5346,-3.4607,-3.4201,-3.3558,-3.2446,-3.1728,-3.1277,-3.1205,-3.0393,-2.9572,-2.897,-2.8048,-2.708,-2.61,-2.5138,-2.4574,-2.4511,-2.3926,-2.3595,-2.3595,-2.3595,-2.3595,-2.3595,-2.3595,-2.3595,-2.3595,-2.3595,-2.3595,-4.3515,-4.3515,-4.3515,-4.3515,-4.2763,-4.0903,-3.6562,-3.4175,0.0,0.0,-2.6309,-2.5968,-2.6399,0.0,-3.1286,0.0,-3.5819,-3.9368,0.0,0.0,0.0,0.0,0.0,0.0,-5.1938,-5.1932,0.0,-5.1138,-5.0435,-4.9919,-4.9792,-4.9286,-4.9001,-4.9001,-4.9001,-4.9001,-4.9001,-4.8291,-4.753,-4.6786,-4.6058,-4.5314,-4.4615,-4.4615,-4.4615,-4.4615,-4.4615,-4.4615,-4.4615,-4.4615,-4.4615,-4.4547,-4.391,-4.3098,-4.2219,-4.1644,-4.0865,-4.0096,-4.0096,-4.0096,-4.0096,-4.0096,-4.0096,-4.0096,-4.0096,-4.0096,-4.0096,-4.0096,-4.0096,-4.0096,-4.0096,-4.0096,-4.0096,-4.0096,-4.0096,-3.9943,-3.9343,-3.865,-3.7922,-3.7161,-3.64,-3.5785,-3.5616,-3.56,-3.5397,-3.4827,-3.459,-3.4023,-3.2715,-3.1779,-3.1171,-3.1041,-3.0055,-2.9339,-2.9225,-2.8286,-2.741,-2.6651,-2.5615,-2.4963,-2.4829,-2.4156,-2.3819,-2.3819,-2.367,-2.3595,-2.3595,-2.3595,-2.3595,-2.3595,-2.3595,-2.3595,-4.3515,-4.3515,-4.3515,-4.3515,-4.2359,-4.016,-3.6085,0.0,0.0,-2.6402,-2.5314,-2.522,-2.593,-2.7783,-3.0094,0.0,0.0,-3.79,0.0,0.0,0.0,0.0,0.0,0.0,-5.2017,-5.1558,-5.1164,-5.1112,-5.0435,-4.9734,-4.9138,-4.9032,-4.9001,-4.9001,-4.9001,-4.9001,-4.9001,-4.8291,-4.753,-4.6786,-4.6058,-4.5314,-4.4615,-4.4615,-4.4615,-4.4615,-4.4615,-4.4615,-4.4615,-4.4615,-4.4615,-4.4598,-4.453,-4.3599,-4.2286,-4.2219,-4.1314,-4.0096,-4.0096,-4.0096,-4.0096,-4.0096,-4.0096,-4.0096,-4.0096,-4.0096,-4.0096,-4.0096,-4.0096,-4.0096,-4.0096,-4.0096,-4.0096,-4.0096,-4.0096,-4.0079,-4.0011,-3.9436,-3.8667,-3.7939,-3.7195,-3.6451,-3.5718,-3.56,-3.5583,-3.5498,-3.4928,-3.4224,-3.3495,-3.1746,-3.0537,-3.0482,-2.9836,-2.918,-2.863,-2.8473,-2.7893,-2.6681,-2.6482,-2.6138,-2.5516,-2.4859,-2.4515,-2.4515,-2.3924,-2.3595,-2.3595,-2.3595,-2.3595,-2.3595,-2.3595,-2.3595,-4.3152,-4.3515,-4.3515,-4.3515,-4.1712,-3.9092,-3.584,0.0,-2.8747,-2.606,-2.4476,-2.4135,-2.6018,-2.6283,-2.7519,-3.1508,-3.2238,-3.3891,-3.8356,0.0,0.0,0.0,0.0,0.0,0.0,0.0,-5.1368,-5.05,-4.978,-4.9286,-4.9001,-4.9001,-4.9001,-4.9001,-4.9001,-4.9001,-4.9001,-4.8714,-4.797,-4.6786,-4.6498,-4.5737,-4.4615,-4.4615,-4.4615,-4.4615,-4.4615,-4.4615,-4.4615,-4.4615,-4.4615,-4.4615,-4.4615,-4.3667,-4.2286,-4.2286,-4.1382,-4.0096,-4.0096,-4.0096,-4.0096,-4.0096,-4.0096,-4.0096,-4.0096,-4.0096,-4.0096,-4.0096,-4.0096,-4.0096,-4.0096,-4.0096,-4.0096,-4.0096,-4.0096,-4.0096,-4.0096,-3.9537,-3.8768,-3.8041,-3.7297,-3.6426,-3.5208,-3.4988,-3.4871,-3.4447,-3.4504,-3.4157,-3.3048,-3.2216,-3.1278,-2.9988,-2.9257,-2.8756,-2.8511,-2.8487,-2.8139,-2.7275,-2.6811,-2.6467,-2.6213,-2.557,-2.5187,-2.5187,-2.453,-2.4201,-2.4201,-2.3804,-2.3595,-2.3595,-2.3595,-2.3595,-4.1923,-4.2795,-4.3268,-4.3268,-4.1107,-3.8277,0.0,-3.1729,-2.7975,-2.5799,-2.3946,-2.3338,-2.5421,-2.5201,-2.5961,-2.979,-3.0288,-3.1737,-3.6125,-3.8649,0.0,0.0,0.0,-4.9435,0.0,-5.1658,-5.1426,-4.9821,-4.9432,-4.9212,-4.9001,-4.9001,-4.9001,-4.9001,-4.9001,-4.9001,-4.9001,-4.8562,-4.7834,-4.6786,-4.6346,-4.5613,-4.4615,-4.4615,-4.4615,-4.4615,-4.4615,-4.4615,-4.4615,-4.4615,-4.4615,-4.4615,-4.4615,-4.3667,-4.2286,-4.2286,-4.1382,-4.0096,-4.0096,-4.0096,-4.0096,-4.0096,-4.0096,-4.0096,-4.0096,-4.0096,-4.0096,-4.0096,-4.0096,-4.0096,-4.0096,-4.0096,-4.0096,-4.0096,-4.0096,-4.0096,-4.0096,-3.9706,-3.9039,-3.8091,-3.7306,-3.6322,-3.4853,-3.4431,-3.4137,-3.3659,-3.4012,-3.3884,-3.2688,-3.2384,-3.1571,-2.9715,-2.8918,-2.8468,-2.8253,-2.8222,-2.8042,-2.7625,-2.7165,-2.6911,-2.6911,-2.6243,-2.5899,-2.5899,-2.5232,-2.4903,-2.4889,-2.4433,-2.4088,-2.3909,-2.3909,-2.3789,-3.959,-4.1141,-4.2711,-4.2711,-4.053,-3.7835,0.0,-3.1729,-2.7914,-2.5502,-2.3773,-2.2955,-2.3786,-2.4778,-2.6047,-2.7765,-2.992,-3.259,-3.6103,-3.8795,0.0,0.0,0.0,-4.8085,-5.0562,-5.1587,-5.1223,-4.9168,-4.9622,0.0,-4.9032,-4.9001,-4.9001,-4.9001,-4.9001,-4.9001,-4.9001,-4.7547,-4.6802,-4.6769,-4.5326,-4.4615,-4.4615,-4.4615,-4.4615,-4.4615,-4.4615,-4.4615,-4.4615,-4.4615,-4.4615,-4.4615,-4.4615,-4.3667,-4.2286,-4.2286,-4.1382,-4.0096,-4.0096,-4.0096,-4.0096,-4.0096,-4.0096,-4.0096,-4.0096,-4.0096,-4.0096,-4.0096,-4.0096,-4.0096,-4.0096,-4.0096,-4.0096,-4.0096,-4.0096,-4.0096,-4.0096,-4.0096,-3.9656,-3.8193,-3.7302,-3.6323,-3.4847,-3.4062,-3.3608,-3.3582,-3.3608,-3.3365,-3.268,-3.2024,-3.1094,-2.9748,-2.9007,-2.8334,-2.7685,-2.7625,-2.7625,-2.76,-2.7585,-2.7585,-2.7585,-2.6956,-2.6572,-2.6572,-2.5929,-2.56,-2.56,-2.5576,-2.5232,-2.459,-2.459,-2.4231,-3.6114,-3.7363,-3.8133,-3.7614,-3.5758,-3.3722,-3.2492,-2.9292,-2.625,-2.5207,-2.3632,-2.2794,-2.4024,-2.4132,-2.5415,-2.9574,-3.063,0.0,0.0,0.0,0.0,-4.3552,-4.6506,-4.8888,0.0,0.0,-4.971,-4.9063,-4.9212,-4.9243,-4.9001,-4.9001,-4.9001,-4.9001,-4.9001,-4.8765,-4.8257,-4.78,-4.7056,-4.6041,-4.5568,-4.5077,-4.4615,-4.4615,-4.4615,-4.4615,-4.4615,-4.4615,-4.4615,-4.4615,-4.4615,-4.4615,-4.4615,-4.3667,-4.2286,-4.2286,-4.1382,-4.0096,-4.0096,-4.0096,-4.0096,-4.0096,-4.0096,-4.0096,-4.0096,-4.0096,-4.0096,-4.0096,-4.0096,-4.0096,-4.0096,-4.0096,-4.0096,-4.0096,-4.0096,-4.0096,-4.0096,-4.0096,-3.9673,-3.8193,-3.7319,-3.6197,-3.4255,-3.3365,-3.2761,-3.2228,-3.2598,-3.2652,-3.1923,-3.2087,-3.1743,-3.0351,-2.9654,-2.8843,-2.769,-2.76,-2.76,-2.76,-2.76,-2.76,-2.76,-2.7405,-2.7285,-2.7285,-2.6641,-2.6273,-2.6273,-2.5824,-2.5495,-2.5277,-2.5277,-2.5181,0.0,-3.4322,-3.5366,-3.4924,-3.3227,-3.1492,-3.0679,-2.7958,-2.5368,-2.4555,-2.3281,-2.2569,-2.3437,-2.3707,-2.4938,-2.8395,-2.9588,-3.1441,0.0,0.0,0.0,-4.3574,0.0,0.0,0.0,-4.9267,-4.9256,-4.9032,-4.9001,-4.9001,-4.9001,-4.8748,-4.8595,-4.8595,-4.8595,-4.8376,-4.7889,-4.7361,-4.6616,-4.5703,-4.5415,-4.5026,-4.4615,-4.4615,-4.4615,-4.4615,-4.4615,-4.4615,0.0,-4.4615,-4.4615,-4.4581,-4.4265,-4.3386,-4.2252,-4.1982,-4.1119,-4.0096,-4.0096,-4.0096,-4.0096,-4.0096,-4.0096,-4.0096,-4.0096,-4.0096,-4.0096,-4.0096,-4.0096,-4.0096,-4.0096,-4.0096,-4.0096,-4.0096,-4.0096,-4.0096,-4.0096,-4.0096,-3.9757,-3.8548,-3.7286,-3.5919,-3.4294,-3.3013,-3.2035,-3.1553,-3.1881,-3.2007,-3.1553,-3.1894,-3.1734,-3.0623,-3.0163,-2.9517,-2.8438,-2.7884,-2.76,-2.76,-2.76,-2.76,-2.76,-2.76,-2.76,-2.76,-2.7195,-2.6986,-2.6986,-2.6303,-2.5974,-2.5974,-2.5719,-2.5615,0.0,-3.1615,0.0,-3.3617,-3.2147,-3.0498,-2.9606,-2.7358,0.0,-2.368,-2.2818,-2.2347,-2.2499,-2.3613,-2.4747,-2.5493,-2.769,-3.0481,0.0,-3.6499,0.0,0.0,-4.7248,0.0,-4.7772,-4.905,-4.9664,-4.9063,-4.8951,-4.8934,-4.8934,-4.824,-4.7804,-4.7804,-4.7753,-4.7736,-4.7736,-4.6397,-4.5669,-4.5618,-4.4925,-4.4615,-4.4615,-4.4615,-4.4615,-4.4615,-4.4615,-4.4615,-4.4615,-4.4615,-4.4615,-4.453,-4.3792,-4.3014,-4.2202,-4.1525,-4.0781,-4.0096,-4.0096,-4.0096,-4.0096,-4.0096,-4.0096,-4.0096,-4.0096,-4.0096,-4.0096,-4.0096,-4.0096,-4.0096,-4.0096,-4.0096,-4.0096,-4.0096,-4.0045,-4.002,-4.002,-3.9978,-3.9725,-3.8983,-3.7163,-3.5545,-3.4755,-3.2928,-3.1555,-3.1511,-3.1511,-3.1511,-3.1511,-3.1511,-3.1256,-3.0642,-3.0537,-3.0268,-2.9726,-2.8483,-2.772,-2.7675,-2.766,-2.7645,-2.76,-2.76,-2.76,-2.76,-2.76,-2.76,-2.76,-2.6986,-2.6662,-2.6671,-2.6033,-2.5749,-2.4729,0.0,-2.7504,-2.694,-2.6434,-2.6029,0.0,-2.4802,-2.3816,-2.346,0.0,-2.282,-2.4511,-2.466,-2.5826,-2.9935,-3.1608,-3.3581,-3.7097,0.0,0.0,-4.611,-4.7398,-4.8246,-4.8634,-4.8991,-4.9152,-4.9001,-4.8494,-4.8173,-4.8173,-4.7462,-4.7056,-4.7056,-4.6515,-4.6227,-4.6227,-4.5872,-4.5415,-4.4869,-4.4682,-4.4615,-4.4615,-4.4615,-4.4615,-4.4615,-4.4615,-4.4615,-4.4615,-4.4615,-4.4615,-4.4581,-4.4384,-4.347,-4.2269,-4.21,-4.1204,-4.0096,-4.0096,-4.0096,-4.0096,-4.0096,-4.0096,-4.0096,-4.0096,-4.0096,-4.0096,-4.0096,-4.0096,-4.0096,-4.0096,-4.0096,-4.0096,-4.0096,-3.9636,-3.9166,-3.9166,-3.8734,-3.8107,-3.7394,-3.6381,-3.5248,-3.4001,-3.293,-3.2079,-3.1585,-3.1511,-3.1511,-3.1511,-3.1511,-3.1451,-3.1271,-3.0821,-3.0447,-3.0298,-2.9592,-2.8918,-2.8382,-2.8353,-2.8113,-2.7615,-2.76,-2.76,-2.76,-2.76,-2.76,-2.76,-2.7435,-2.736,-2.736,-2.721,-2.7136,-2.2902,-2.4475,-2.6015,-2.5608,-2.5506,-2.5422,-2.5083,0.0,0.0,0.0,0.0,0.0,-2.4814,-2.5592,-2.7165,-3.0717,-3.2476,0.0,0.0,0.0,-4.4913,-4.6603,-4.7462,-4.8176,0.0,-4.8697,-4.8511,-4.8511,-4.7817,-4.7411,-4.7411,-4.6701,-4.6295,-4.6295,-4.5568,-4.5348,-4.5703,-4.5365,-4.4976,-4.4615,-4.4615,-4.4615,-4.4615,-4.4615,-4.4615,-4.4615,-4.4615,-4.4615,-4.4615,-4.4615,-4.4615,-4.453,-4.3836,-4.3014,-4.2202,-4.1551,-4.079,-4.0096,-4.0096,-4.0096,-4.0096,-4.0096,-4.0096,-4.0096,-4.0096,-4.0096,-4.0096,-4.0096,-4.0096,-4.0096,-4.0096,-4.0096,-4.0096,-4.0096,-3.9489,-3.8908,-3.8908,-3.8302,-3.7665,-3.7281,-3.6342,-3.536,-3.4572,-3.3362,-3.2392,-3.2004,-3.1705,-3.1511,-3.1511,-3.1511,-3.1511,-3.1511,-3.1182,-3.0943,-3.0943,-3.0672,-3.0073,-2.9116,-2.9056,-2.8742,-2.8094,-2.8064,-2.7914,-2.76,-2.76,-2.76,-2.76,-2.76,-2.76,-2.76,-2.76,-2.76,-2.2702,-2.4797,-2.6759,-2.6302,-2.637,-2.6336,-2.5609,0.0,0.0,0.0,0.0,0.0,0.0,-2.6894,0.0,0.0,0.0,0.0,-3.9842,-4.2586,-4.479,-4.645,-4.7192,0.0,-4.8595,-4.8105,-4.775,-4.775,-4.7056,-4.6616,-4.6616,-4.5923,-4.5534,-4.5534,-4.4925,-4.4919,-4.5534,-4.4891,-4.4615,-4.4615,-4.4615,-4.4615,-4.4615,-4.4615,-4.4615,-4.4615,-4.4615,-4.4615,-4.4615,-4.4615,-4.453,-4.4282,-4.298,-4.232,-4.1965,-4.0739,-4.0197,-4.0096,-4.0096,-4.0096,-4.0096,-4.0096,-4.0096,-4.0096,-4.0096,-4.0096,-4.0096,-4.0096,-4.0096,-4.0096,-4.0096,-4.0096,-4.0096,-4.0096,-3.9411,-3.8745,-3.8745,-3.8048,-3.7442,-3.7442,-3.6421,-3.5552,-3.5444,-3.3879,-3.2632,-3.2527,-3.1929,-3.1511,-3.1511,-3.1511,-3.1511,-3.1511,-3.1511,-3.1511,-3.1511,-3.1511,-3.1032,-2.9953,-2.9774,-2.9412,-2.8637,-2.8607,-2.8278,-2.76,-2.76,-2.76,-2.76,-2.76,-2.76,-2.76,-2.76,-2.76,-2.4578,-2.6336,-2.7029,-2.4526,-2.4847,-2.5575,-2.4846,0.0,0.0,0.0,0.0,0.0,0.0,-2.9533,-3.085,0.0,0.0,-3.9039,0.0,0.0,-4.4122,-4.5669,0.0,-4.6329,-4.7056,-4.7039,-4.6972,-4.6972,-4.6295,-4.5872,-4.5872,-4.5162,-4.4784,-4.4784,-4.4666,-4.4649,-4.4784,-4.4666,-4.4615,-4.4615,-4.4615,-4.4615,-4.4615,-4.4615,-4.4615,-4.4615,-4.4615,-4.4615,-4.4615,-4.4615,-4.4198,-4.3572,-4.3335,-4.2472,-4.1339,-4.1119,-4.0629,-4.0096,-4.0096,-4.0096,-4.0096,-4.0096,-4.0096,-4.0096,-4.0096,-4.0096,-4.0096,-4.0096,-4.0096,-4.0096,-4.0096,-4.0096,-4.0096,-4.0096,-3.8995,-3.7978,-3.7978,-3.686,-3.5846,-3.5846,-3.5674,-3.5337,-3.4782,-3.3936,-3.3155,-3.2602,-3.1929,-3.1511,-3.1511,-3.1511,-3.1511,-3.1511,-3.1511,-3.1511,-3.1511,-3.1511,-3.1421,-3.1212,-3.0687,-2.9834,-2.8652,-2.8607,-2.8278,-2.76,-2.76,-2.76,-2.76,-2.76,-2.76,-2.76,-2.76,-2.76,-2.353,-2.517,-2.637,-2.5423,-2.6911,-2.8433,-2.7689,-2.7233,0.0,0.0,0.0,0.0,0.0,0.0,-3.3694,-3.7432,0.0,-4.1186,-4.2695,-4.3462,-4.4326,0.0,0.0,-4.5991,-4.6718,-4.643,-4.621,-4.621,-4.5517,-4.5094,-4.5094,-4.4801,-4.4615,-4.4615,-4.4615,-4.4615,-4.4615,-4.4615,-4.4615,-4.4615,-4.4615,-4.4615,-4.4615,-4.4615,-4.4615,-4.4615,-4.4615,-4.4615,-4.4615,-4.4615,-4.413,-4.3341,-4.2963,-4.2151,-4.1153,-4.0747,-4.0375,-4.0096,-4.0096,-4.0096,-4.0096,-4.0096,-4.0096,-4.0096,-4.0096,-4.0096,-4.0096,-4.0096,-4.0096,-4.0096,-4.0096,-4.0096,-3.9995,-3.9542,-3.8596,-3.769,-3.7249,-3.6274,-3.5504,-3.5504,-3.5504,-3.54,-3.5085,-3.4472,-3.3799,-3.314,-3.2452,-3.1914,-3.1555,-3.1511,-3.1511,-3.1511,-3.1511,-3.1511,-3.1511,-3.1511,-3.1511,-3.1511,-3.0881,-3.0238,-2.9654,-2.931,-2.8816,-2.8143,-2.8128,-2.7974,-2.76,-2.76,-2.76,-2.76,-2.76,-2.76,-2.319,-2.4577,-2.6082,-2.6996,0.0,-3.0446,-3.0581,-2.9905,-2.9416,0.0,0.0,0.0,0.0,-3.4049,0.0,-3.9842,-4.1364,-4.2431,-4.3271,-4.397,-4.4651,-4.5354,-4.5449,-4.5652,-4.6227,-4.5771,-4.5449,-4.5449,-4.4936,-4.4615,-4.4615,-4.4615,-4.4615,-4.4615,-4.4615,-4.4615,-4.4615,-4.4615,-4.4615,-4.4615,-4.4615,-4.4615,-4.4615,-4.4615,-4.4615,-4.4615,-4.4615,-4.4496,-4.4316,-4.4316,-4.3758,-4.2817,-4.2252,-4.1593,-4.0865,-4.0316,-4.0096,-4.0096,-4.0096,-4.0096,-4.0096,-4.0096,-4.0096,-4.0096,-4.0096,-4.0096,-4.0096,-4.0096,-3.9952,-3.9876,-4.0045,-3.9825,-3.9454,-3.9005,-3.8173,-3.7368,-3.6722,-3.6038,-3.5504,-3.5504,-3.5504,-3.5504,-3.5504,-3.4936,-3.4339,-3.3799,-3.3155,-3.2497,-3.1824,-3.1735,-3.1675,-3.1525,-3.1511,-3.1511,-3.1511,-3.1511,-3.1511,-3.1511,-3.1017,-3.0672,-3.0507,-3.0058,-2.949,-2.8846,-2.8682,-2.8338,-2.7839,-2.7675,-2.76,-2.76,-2.76,-2.76,-2.5828,-2.6488,-2.6979,-2.8468,-2.8433,-2.8753,-3.1532,-3.1038,0.0,-3.2662,0.0,0.0,0.0,-3.7144,-3.9208,-4.0849,-4.1781,-4.2543,-4.3301,-4.4084,-4.4603,-4.4666,-4.4682,-4.4699,-4.475,-4.4716,-4.4682,-4.4682,-4.4632,-4.4615,-4.4615,-4.4615,-4.4615,-4.4615,-4.4615,-4.4615,-4.4615,-4.4615,-4.4615,-4.4615,-4.4615,-4.4615,-4.4615,-4.4615,-4.4615,-4.4615,-4.4615,-4.4181,-4.3504,-4.3504,-4.2658,-4.1356,-4.1305,-4.0832,-4.018,-4.013,-4.0096,-4.0096,-4.0096,-4.0096,-4.0096,-4.0096,-4.0096,-4.0096,-4.0096,-4.0096,-4.0096,-4.0096,-3.9542,-3.9166,-3.9901,-3.9022,-3.8121,-3.8745,-3.7758,-3.6676,-3.66,-3.6038,-3.5504,-3.5504,-3.5504,-3.5504,-3.5504,-3.4936,-3.4488,-3.4444,-3.3844,-3.3185,-3.2497,-3.2437,-3.2183,-3.157,-3.1511,-3.1511,-3.1511,-3.1511,-3.1511,-3.1511,-3.1451,-3.1137,-3.0537,-3.0462,-3.0148,-2.9547,-2.8906,-2.8577,-2.8532,-2.7899,-2.76,-2.76,-2.76,-2.76,-2.3748,-2.5642,-2.7638,-2.8739,-2.9822,0.0,0.0,-3.3643,-3.4624,-3.5943,-3.6434,0.0,0.0,0.0,-3.9631,-4.1559,-4.2117,-4.2726,-4.3961,-4.4429,-4.4615,-4.4615,-4.4615,-4.4615,-4.4615,-4.4615,-4.4615,-4.4615,-4.4615,-4.4615,-4.4615,-4.4615,-4.4615,-4.4615,-4.4615,-4.4615,-4.4615,-4.4615,-4.4615,-4.4615,-4.4615,-4.4615,-4.4615,-4.4615,-4.4615,-4.4581,-4.4062,-4.369,-4.3358,-4.2912,-4.2117,-4.1153,-4.0696,-4.0367,-4.0096,-4.0096,-4.0096,-4.0096,-4.0096,-4.0096,-4.0096,-4.0096,-4.0096,-4.0096,-4.0096,-4.0096,-3.9995,-3.9489,-3.8816,-3.8386,-3.9156,-3.8596,-3.7748,-3.7512,-3.7008,-3.6461,-3.5991,-3.5701,-3.5504,-3.5504,-3.5504,-3.5504,-3.5504,-3.5295,-3.4966,-3.4578,-3.4294,-3.3858,-3.3215,-3.3125,-3.2871,-3.2183,-3.175,-3.1511,-3.1511,-3.1511,-3.1511,-3.1511,-3.1511,-3.1391,-3.1122,-3.1122,-3.0808,-3.0163,-2.9909,-2.9594,-2.9205,-2.8978,-2.8633,-2.8203,-2.8203,-2.8004,-2.3344,-2.5339,-2.7756,-2.9025,0.0,0.0,-3.4134,-3.547,-3.6891,-3.8599,-3.8954,-3.9106,-3.9597,0.0,0.0,0.0,-4.2489,-4.3098,-4.4429,-4.4615,-4.4615,-4.4615,-4.4615,-4.4615,-4.4615,-4.4615,-4.4615,-4.4615,-4.4615,-4.4615,-4.4615,-4.4615,-4.4615,-4.4615,-4.4615,-4.4615,-4.4615,-4.4615,-4.4615,-4.4615,-4.4615,-4.4615,-4.4615,-4.4615,-4.4479,-4.4181,-4.3656,-4.3122,-4.2675,-4.2151,-4.1508,-4.0798,-4.0316,-4.0096,-4.0096,-4.0096,-4.0096,-4.0096,-4.0096,-4.0096,-4.0096,-4.0096,-4.0096,-4.0096,-4.0096,-4.0096,-3.9995,-3.942,-3.8553,-3.7921,-3.8414,-3.7819,-3.6995,-3.6676,-3.6415,-3.6102,-3.5619,-3.5504,-3.5504,-3.5504,-3.5504,-3.5504,-3.5504,-3.5504,-3.534,-3.4876,-3.4833,-3.4562,-3.3888,-3.3799,-3.3469,-3.2572,-3.1899,-3.1511,-3.1511,-3.1511,-3.1511,-3.1511,-3.1511,-3.1511,-3.1511,-3.1511,-3.1286,-3.0808,-3.0612,-3.0298,-2.9864,-2.9696,-2.934,-2.8906,-2.8906,-2.8547,-2.5576,-2.6133,-2.7266,-2.955,0.0,0.0,-3.6135,-3.6214,-3.6698,-4.0443,-4.1221,-4.1221,-4.1221,-4.1221,0.0,-4.2185,-4.2929,-4.369,-4.4496,-4.4615,-4.4615,-4.4615,-4.4615,-4.4615,-4.4615,-4.4615,-4.4615,-4.4615,-4.4615,-4.4615,-4.4615,-4.4615,-4.4615,-4.4615,-4.4615,-4.4615,-4.4615,-4.4615,-4.4615,-4.4598,-4.4598,-4.4598,-4.4615,-4.4598,-4.4147,-4.3392,-4.3375,-4.253,-4.1204,-4.1204,-4.0747,-4.0096,-4.0096,-4.0096,-4.0096,-4.0096,-4.0096,-4.0096,-4.0096,-4.0096,-4.0096,-4.0096,-4.0096,-4.0096,-4.0096,-4.0096,-4.0113,-4.007,-3.8968,-3.7793,-3.7793,-3.6631,-3.5668,-3.6415,-3.6023,-3.5504,-3.5504,-3.5504,-3.5504,-3.5504,-3.5504,-3.5504,-3.5504,-3.5504,-3.5504,-3.5504,-3.5504,-3.525,-3.4608,-3.4503,-3.3978,-3.2662,-3.1914,-3.1511,-3.1511,-3.1511,-3.1511,-3.1511,-3.1511,-3.1511,-3.1511,-3.1511,-3.1511,-3.1511,-3.0866,-3.0507,-3.0507,-2.9909,-2.9621,-2.9621,-2.9621,-2.9235,-2.4188,-2.6149,0.0,-3.0446,0.0,0.0,0.0,-3.8548,0.0,0.0,-4.1965,-4.1965,-4.1965,-4.1965,-4.2219,-4.2963,-4.324,-4.369,-4.4496,-4.4615,-4.4615,-4.4615,-4.4615,-4.4615,-4.4615,-4.4615,-4.4615,-4.4615,-4.4615,-4.4615,-4.4615,-4.4615,-4.4615,-4.4615,-4.4615,-4.4615,-4.4615,-4.4615,-4.4316,-4.3775,-4.3775,-4.4045,-4.4581,-4.4012,-4.3639,-4.3341,-4.232,-4.161,-4.117,-4.0629,-4.0316,-4.0096,-4.0096,-4.0096,-4.0096,-4.0096,-4.0096,-4.0096,-4.0096,-4.0096,-4.0096,-4.0096,-4.0096,-3.9978,-3.9437,-3.9636,-3.9756,-3.8101,-3.7732,-3.756,-3.6461,-3.5861,-3.5554,-3.5782,-3.5668,-3.5504,-3.5504,-3.5504,-3.5504,-3.5504,-3.5504,-3.5504,-3.5504,-3.5504,-3.5504,-3.5504,-3.5504,-3.5429,-3.5235,-3.4771,-3.4174,-3.3305,-3.2617,-3.2004,-3.154,-3.1511,-3.1511,-3.1511,-3.1511,-3.1511,-3.1511,-3.1511,-3.1511,-3.1511,-3.1301,-3.1197,-3.1197,-3.1017,-3.0702,-3.0223,-3.0223,-2.9894,-2.593,-2.8129,0.0,-3.2903,-3.5137,-3.7422,-3.9766,0.0,0.0,0.0,-4.2743,-4.2743,-4.2743,-4.2743,-4.2878,-4.3325,-4.3673,-4.4045,-4.4547,-4.4615,-4.4615,-4.4615,-4.4615,-4.4615,-4.4615,-4.4615,-4.4615,-4.4615,-4.4615,-4.4615,-4.4615,-4.4282,-4.4113,-4.4113,-4.3826,-4.3701,-4.3701,-4.3701,-4.3436,-4.2963,-4.2963,-4.3217,-4.3684,-4.3183,-4.2811,-4.2472,-4.1271,-4.0747,-4.073,-4.0282,-4.0096,-4.0096,-4.0096,-4.0096,-4.0096,-4.0096,-4.0096,-4.0096,-4.0096,-3.9901,-3.961,-3.961,-3.9428,-3.9119,-3.8624,-3.8789,-3.8887,-3.7469,-3.7189,-3.71,-3.618,-3.5733,-3.5504,-3.5504,-3.5504,-3.5504,-3.5504,-3.5504,-3.5504,-3.5504,-3.5504,-3.5504,-3.5504,-3.5504,-3.5504,-3.5504,-3.5504,-3.5504,-3.5504,-3.4906,-3.4354,-3.3918,-3.3305,-3.2647,-3.1944,-3.1899,-3.178,-3.1525,-3.1511,-3.1511,-3.1511,-3.1511,-3.1511,-3.1511,-3.1511,-3.1511,-3.1511,-3.1511,-3.1286,-3.0883,-3.0568,-3.0085,-2.9228,-3.097,0.0,-3.5949,-3.6897,0.0,-4.1407,-4.2236,-4.2523,-4.3352,0.0,-4.3521,-4.3521,-4.3521,-4.3521,-4.3521,-4.4113,-4.4615,-4.4615,-4.4615,-4.4615,-4.4615,-4.4615,-4.4615,-4.4615,-4.4615,-4.4615,-4.4615,-4.4615,-4.4581,-4.4496,-4.3809,-4.3358,-4.3291,-4.2642,-4.2286,-4.2286,-4.2286,-4.2252,-4.2202,-4.2202,-4.2151,-4.2083,-4.2168,-4.1796,-4.1068,-4.0375,-4.0096,-4.0096,-4.0096,-4.0096,-4.0096,-4.0096,-4.0096,-4.0096,-4.0096,-4.0096,-4.0096,-4.002,-3.9516,-3.8881,-3.8827,-3.8346,-3.7793,-3.769,-3.7719,-3.7764,-3.7648,-3.71,-3.6569,-3.6523,-3.6006,-3.5504,-3.5504,-3.5504,-3.5504,-3.5504,-3.5504,-3.5504,-3.5504,-3.5504,-3.5504,-3.5504,-3.5504,-3.5504,-3.5504,-3.5504,-3.5504,-3.5504,-3.4966,-3.4578,-3.4518,-3.3933,-3.329,-3.2572,-3.2512,-3.2198,-3.154,-3.1511,-3.1511,-3.1511,-3.1511,-3.1511,-3.1511,-3.1511,-3.1511,-3.1511,-3.1511,-3.1511,-3.1467,-3.0673,-2.9952,-2.73,-2.9381,0.0,0.0,-3.7635,-3.9757,-4.1119,-4.188,-4.2675,-4.4045,-4.4333,-4.4333,-4.4333,-4.4333,-4.4333,-4.4333,-4.4496,-4.4615,-4.4615,-4.4615,-4.4615,-4.4615,-4.4615,-4.4615,-4.4615,-4.4615,-4.4615,-4.4615,-4.4615,-4.4316,-4.3707,-4.3477,-4.3149,-4.254,-4.2371,-4.2286,-4.2286,-4.2286,-4.1999,-4.1441,-4.1441,-4.1119,-4.0603,-4.117,-4.1018,-4.0333,-4.018,-4.0096,-4.0096,-4.0096,-4.0096,-4.0096,-4.0096,-4.0096,-4.0096,-4.0096,-4.0096,-4.002,-3.9368,-3.9043,-3.8799,-3.8218,-3.7921,-3.769,-3.7054,-3.7308,-3.756,-3.6352,-3.629,-3.6477,-3.5894,-3.5619,-3.5504,-3.5504,-3.5504,-3.5504,-3.5504,-3.5504,-3.5504,-3.5504,-3.5504,-3.5504,-3.5504,-3.5504,-3.5504,-3.5504,-3.5504,-3.5504,-3.5504,-3.537,-3.507,-3.4563,-3.4384,-3.3784,-3.2617,-3.2512,-3.2198,-3.154,-3.1511,-3.1511,-3.1511,-3.1511,-3.1511,-3.1511,-3.1511,-3.1511,-3.1511,-3.1511,-3.1511,-3.1467,-3.0673,-3.0227,-2.8366,0.0,0.0,-3.6924,0.0,-4.0299,-4.1035,-4.1508,-4.21,-4.3278,-4.409,-4.4615,-4.4615,-4.4615,-4.4615,-4.4615,-4.4615,-4.4615,-4.4615,-4.4615,-4.4615,-4.4615,-4.4615,-4.4615,-4.4615,-4.4615,-4.4445,-4.4045,-4.4028,-4.369,-4.2912,-4.254,-4.2185,-4.1779,-4.1424,-4.1264,-4.1264,-4.1264,-4.106,-4.0663,-4.0663,-4.046,-4.0113,-4.0519,-4.0468,-4.0096,-4.0096,-4.0096,-4.0096,-4.0096,-4.0096,-4.0096,-4.0096,-4.0096,-4.0096,-4.0096,-4.0096,-3.9978,-3.9166,-3.8663,-3.8246,-3.7469,-3.6995,-3.6631,-3.6212,-3.6352,-3.6523,-3.5748,-3.5782,-3.5975,-3.5587,-3.5504,-3.5504,-3.5504,-3.5504,-3.5504,-3.5504,-3.5504,-3.5504,-3.5504,-3.5504,-3.5504,-3.5504,-3.5504,-3.5504,-3.5504,-3.5504,-3.5504,-3.5504,-3.5504,-3.537,-3.5011,-3.4966,-3.4562,-3.3544,-3.3455,-3.3036,-3.2034,-3.1974,-3.1824,-3.1511,-3.1511,-3.1511,-3.1511,-3.1511,-3.1307,-3.0925,-3.0925,-3.0703,-3.0269,-2.9442,-2.9066,-2.9347,0.0,-3.5368,-3.9012,-4.0011,0.0,-4.0865,-4.1119,-4.1373,-4.1982,-4.3217,-4.4209,-4.4209,-4.4209,-4.4209,-4.4209,-4.4327,-4.4384,-4.4384,-4.4384,-4.4384,-4.4384,-4.4293,-4.4209,-4.4209,-4.4209,-4.3927,-4.3267,-4.3189,-4.2895,-4.2151,-4.1525,-4.1136,-4.1018,-4.0434,-4.0096,-4.0096,-4.0096,-4.0096,-4.0096,-4.0096,-4.0096,-4.0096,-4.0096,-4.0096,-4.0096,-4.0096,-4.0096,-4.0096,-4.0096,-4.0096,-4.0096,-4.0096,-4.0096,-4.0096,-4.0096,-4.002,-3.9782,-3.8978,-3.8218,-3.7456,-3.6676,-3.6006,-3.5504,-3.5504,-3.5504,-3.5504,-3.5504,-3.5504,-3.5504,-3.5504,-3.5504,-3.5504,-3.5504,-3.5504,-3.5504,-3.5504,-3.5504,-3.5504,-3.5504,-3.5504,-3.5504,-3.5504,-3.5504,-3.5504,-3.5504,-3.5504,-3.5504,-3.5504,-3.5504,-3.5504,-3.5504,-3.5504,-3.5235,-3.4563,-3.4503,-3.3994,-3.2766,-3.2572,-3.2169,-3.1471,-3.1337,-3.1278,-3.1278,-3.1278,-3.097,-3.0299,-3.0133,-2.969,-2.8971,-2.8117,-2.7703,0.0,0.0,-3.5233,0.0,-3.9639,-4.013,0.0,0.0,-4.1238,0.0,-4.2016,-4.2591,-4.2591,-4.2591,-4.2591,-4.2591,-4.3149,-4.3572,-4.3572,-4.3572,-4.3572,-4.3572,-4.2997,-4.2591,-4.2591,-4.2591,-4.2557,-4.2439,-4.2439,-4.2117,-4.139,-4.1255,-4.0899,-4.0282,-4.0146,-4.0096,-4.0096,-4.0096,-4.0096,-4.0096,-4.0096,-4.0096,-4.0096,-4.0096,-4.0096,-4.0096,-4.0096,-4.0096,-4.0096,-4.0096,-4.0096,-4.0096,-4.0096,-4.0096,-4.0096,-4.0096,-3.9662,-3.8951,-3.8206,-3.7411,-3.6646,-3.5894,-3.5587,-3.5504,-3.5504,-3.5504,-3.5504,-3.5504,-3.5504,-3.5504,-3.5504,-3.5504,-3.5504,-3.5504,-3.5504,-3.5504,-3.5504,-3.5504,-3.5504,-3.5504,-3.5504,-3.5504,-3.5504,-3.5504,-3.5504,-3.5504,-3.5504,-3.5504,-3.5504,-3.5504,-3.5504,-3.5504,-3.5504,-3.5235,-3.4563,-3.4503,-3.4189,-3.341,-3.2826,-3.2138,-3.1277,-3.0739,-3.045,-3.045,-3.045,-3.0419,-3.0299,-2.9535,-2.9097,-2.8971,-2.8117,-2.7703,-2.7858,-3.1258,-3.4709,0.0,-3.9225,-3.9605,-4.0011,0.0,-4.0578,-4.0578,-4.0832,-4.1331,-4.2134,-4.2286,-4.2286,-4.2286,-4.2574,-4.2777,-4.2777,-4.2777,-4.2777,-4.2777,-4.2489,-4.2286,-4.2286,-4.2286,-4.2117,-4.1711,-4.1677,-4.1356,-4.0612,-4.0578,-4.0451,-4.0113,-4.0096,-4.0096,-4.0096,-4.0096,-4.0096,-4.0096,-4.0096,-4.0096,-4.0096,-4.0096,-4.0096,-4.0096,-4.0096,-4.0096,-4.0096,-4.0096,-4.0096,-4.0096,-4.0096,-4.0096,-4.0096,-4.0096,-3.9876,-3.9411,-3.8206,-3.7573,-3.707,-3.5878,-3.5504,-3.5504,-3.5504,-3.5504,-3.5504,-3.5504,-3.5504,-3.5504,-3.5504,-3.5504,-3.5504,-3.5504,-3.5504,-3.5504,-3.5504,-3.5504,-3.5504,-3.5504,-3.5504,-3.5504,-3.5504,-3.5504,-3.5504,-3.5504,-3.5504,-3.5504,-3.5504,-3.5504,-3.5504,-3.5504,-3.5504,-3.5385,-3.5085,-3.5055,-3.4756,-3.4114,-3.3286,-3.2349,-3.1252,-3.0435,-2.9887,-2.958,-2.9566,-2.9566,-2.9566,-2.8716,-2.8051,-2.7571,-2.7196,-2.704,0.0,0.0,-3.2882,-3.6637,-3.8007,-3.8667,0.0,0.0,-4.0096,0.0,-4.0096,-4.0451,-4.1551,-4.1728,-4.1728,-4.1728,-4.1897,-4.2016,-4.2016,-4.2016,-4.2016,-4.2016,-4.1847,-4.1728,-4.1728,-4.1728,-4.1508,-4.095,-4.0916,-4.0679,-4.013,-4.0096,-4.0096,-4.0096,-4.0096,-4.0096,-4.0096,-4.0096,-4.0096,-4.0096,-4.0096,-4.0096,-4.0096,-4.0096,-4.0096,-4.0096,-4.0096,-4.0096,-4.0096,-4.0096,-4.0096,-4.0096,-4.0096,-4.0096,-4.0096,-4.0096,-3.9978,-3.961,-3.8262,-3.7661,-3.7279,-3.5941,-3.5504,-3.5504,-3.5504,-3.5504,-3.5504,-3.5504,-3.5504,-3.5504,-3.5504,-3.5504,-3.5504,-3.5504,-3.5504,-3.5504,-3.5504,-3.5504,-3.5504,-3.5504,-3.5504,-3.5504,-3.5504,-3.5504,-3.5504,-3.5504,-3.5504,-3.5504,-3.5504,-3.5504,-3.5504,-3.5504,-3.5504,-3.5504,-3.5504,-3.5504,-3.5295,-3.4771,-3.3696,-3.259,-3.1393,-3.0136,-2.9288,-2.8871,-2.8541,-2.846,-2.8684,-2.7802,-2.7095,-2.6499,-2.6499,-2.6499,0.0,-2.6962,0.0,-3.2763,-3.5318,0.0,0.0,0.0,-4.0096,-4.0096,-4.0096,-4.013,-4.0197,-4.0214,-4.0214,-4.0214,-4.0798,-4.1271,-4.1271,-4.1271,-4.1271,-4.1271,-4.0629,-4.0214,-4.0214,-4.0214,-4.0197,-4.0163,-4.0163,-4.0146,-4.0096,-4.0096,-4.0096,-4.0096,-4.0096,-4.0096,-4.0096,-4.0096,-4.0096,-4.0096,-4.0096,-4.0096,-4.0096,-4.0096,-4.0096,-4.0096,-4.0096,-4.0096,-4.0096,-4.0096,-4.0096,-4.0096,-4.0096,-4.0096,-4.0096,-4.0096,-3.961,-3.8854,-3.8064,-3.7308,-3.6523,-3.575,-3.5504,-3.5504,-3.5504,-3.5504,-3.5504,-3.5504,-3.5504,-3.5504,-3.5504,-3.5504,-3.5504,-3.5504,-3.5504,-3.5504,-3.5504,-3.5504,-3.5504,-3.5504,-3.5504,-3.5504,-3.5504,-3.5504,-3.5504,-3.5504,-3.5504,-3.5504,-3.5504,-3.5504,-3.5504,-3.5504,-3.5504,-3.5504,-3.5504,-3.5504,-3.5489,-3.5459,-3.3959,-3.2711,-3.1819,-2.9706,-2.8562,-2.8535,-2.7297,-2.7007,-2.7769,-2.6973,-2.6521,-2.6499,-2.6499,-2.6499,0.0,0.0,0.0,-3.1055,-3.3305,-3.4996,-3.6485,-3.8142,-3.9402,-3.9402,-3.9774,-4.0096,-4.0096,-4.0096,-4.0096,-4.0096,-4.0333,-4.0476,-4.0476,-4.0476,-4.0476,-4.0476,-4.0265,-4.0096,-4.0096,-4.0096,-4.0096,-4.0096,-4.0096,-4.0096,-4.0096,-4.0096,-4.0096,-4.0096,-4.0096,-4.0096,-4.0096,-4.0096,-4.0096,-4.0096,-4.0096,-4.0096,-4.0096,-4.0096,-4.0096,-4.0096,-4.0096,-4.0096,-4.0096,-4.0096,-4.0096,-4.0096,-4.0096,-3.9782,-3.9342,-3.9342,-3.8843,-3.8076,-3.7293,-3.6843,-3.6477,-3.5718,-3.5504,-3.5504,-3.5504,-3.5504,-3.5504,-3.5504,-3.5504,-3.5504,-3.5504,-3.5504,-3.5504,-3.5504,-3.5504,-3.5504,-3.5504,-3.5504,-3.5504,-3.5504,-3.5504,-3.5504,-3.5504,-3.5504,-3.5504,-3.5504,-3.5504,-3.5504,-3.5504,-3.5504,-3.5504,-3.5504,-3.5504,-3.5246,-3.4576,-3.4543,-3.4293,-3.3685,-3.2519,-3.1607,-3.0922,-2.9194,-2.8094,-2.7736,-2.6936,-2.6905,-2.7703,-2.6871,-2.6499,-2.6499,-2.6499,-2.6499,-2.4088,0.0,0.0,0.0,0.0,-3.2303,-3.5334,-3.6772,-3.777,-3.8785,-3.9402,-3.9808,-4.0062,-4.0096,-4.0096,-4.0096,-4.0096,-4.0096,-4.0096,-4.0096,-4.0096,-4.0096,-4.0096,-4.0096,-4.0096,-4.0096,-4.0096,-4.0096,-4.0096,-4.0096,-4.0096,-4.0096,-4.0096,-4.0096,-4.0096,-4.0096,-4.0096,-4.0096,-4.0096,-4.0096,-4.0096,-4.0096,-4.0096,-4.0096,-4.0096,-4.0096,-4.0096,-4.0096,-4.0096,-4.0096,-4.0096,-4.0096,-4.0096,-3.961,-3.8908,-3.8908,-3.8442,-3.769,-3.6873,-3.6615,-3.6477,-3.5718,-3.5504,-3.5504,-3.5504,-3.5504,-3.5504,-3.5504,-3.5504,-3.5504,-3.5504,-3.5504,-3.5504,-3.5504,-3.5504,-3.5504,-3.5504,-3.5504,-3.5504,-3.5504,-3.5504,-3.5504,-3.5504,-3.5504,-3.5504,-3.5504,-3.5504,-3.5504,-3.5504,-3.5504,-3.5504,-3.5504,-3.5213,-3.4725,-3.4061,-3.3705,-3.3276,-3.2629,-3.1706,-3.1045,-3.0689,-2.9204,-2.8122,-2.757,-2.7052,-2.6938,-2.7284,-2.6748,-2.6499,-2.6499,-2.6499,-2.6499,0.0,0.0,0.0,0.0,0.0,0.0,-3.5204,0.0,-3.5216,-3.8244,-3.887,-3.9123,-3.9926,-4.0096,-4.0096,-4.0096,-4.0096,-4.0096,-4.0096,-4.0096,-4.0096,-4.0096,-4.0096,-4.0096,-4.0096,-4.0096,-4.0096,-4.0096,-4.0096,-4.0096,-4.0096,-4.0096,-4.0096,-4.0096,-4.0096,-4.0096,-4.0096,-4.0096,-4.0096,-4.0096,-4.0096,-4.0096,-4.0096,-4.0096,-4.0096,-4.0096,-4.0096,-4.0096,-4.0096,-4.0096,-4.0096,-4.0096,-4.0096,-3.961,-3.8881,-3.8881,-3.8386,-3.7602,-3.6859,-3.6584,-3.6446,-3.5718,-3.5504,-3.5504,-3.5504,-3.5504,-3.5504,-3.5504,-3.5504,-3.5504,-3.5504,-3.5504,-3.5504,-3.5504,-3.5504,-3.5504,-3.5504,-3.5504,-3.5504,-3.5504,-3.5504,-3.5504,-3.5504,-3.5504,-3.5504,-3.5504,-3.5504,-3.5504,-3.5504,-3.5504,-3.5504,-3.5504,-3.461,-3.3993,-3.3959,-3.3101,-3.2558,-3.2522,-3.1669,-3.118,-3.118,-2.9717,-2.8674,-2.8134,-2.757,-2.7052,-2.6512,-2.6499,-2.6499,-2.6499,-2.6499,-2.6499,-2.2431,0.0,0.0,0.0,0.0,0.0,0.0,0.0,-3.2154,-3.5131,-3.618,-3.711,-3.8954,-3.974,-4.0096,-4.0096,-4.0096,-4.0096,-4.0096,-4.0096,-4.0096,-4.0096,-4.0096,-4.0096,-4.0096,-4.0096,-4.0096,-4.0096,-4.0096,-4.0096,-4.0096,-4.0096,-4.0096,-4.0096,-4.0096,-4.0096,-4.0096,-4.0096,-4.0096,-4.0096,-4.0096,-4.0096,-4.0096,-4.0096,-4.0096,-4.0096,-4.0096,-4.0096,-4.0096,-4.0096,-4.0096,-4.0096,-4.0096,-3.9279,-3.8121,-3.8121,-3.7265,-3.6116,-3.5863,-3.5814,-3.5782,-3.5569,-3.5504,-3.5504,-3.5504,-3.5504,-3.5504,-3.5504,-3.5504,-3.5504,-3.5504,-3.5504,-3.5504,-3.5504,-3.5504,-3.5504,-3.5504,-3.5504,-3.5504,-3.5504,-3.5504,-3.5504,-3.5504,-3.5504,-3.5504,-3.5504,-3.5504,-3.5504,-3.5504,-3.5504,-3.5504,-3.5504,-3.461,-3.3739,-3.3066,-3.2141,-3.1291,-3.0608,-3.0317,-3.0177,-3.0177,-2.9378,-2.8813,-2.8662,-2.777,-2.7241,-2.709,-2.6688,-2.6499,-2.6499,-2.6499,-2.6499,0.0,0.0,0.0,0.0,0.0,0.0,-2.8145,-2.8721,-2.9702,0.0,-3.4387,-3.5385,-3.7652,-3.8437,-3.8928,-3.9554,-3.9656,-3.9757,-4.0062,-4.0096,-4.0096,-4.0096,-4.0096,-4.0096,-4.0096,-4.0096,-4.0096,-4.0096,-4.0096,-4.0096,-4.0096,-4.0096,-4.0096,-4.0096,-4.0096,-4.0096,-4.0096,-4.0096,-4.0096,-4.0096,-4.0096,-4.0096,-4.0096,-4.0096,-4.0096,-4.0096,-4.0096,-4.0096,-4.0096,-4.0096,-4.0096,-4.0096,-4.0096,-3.9172,-3.7793,-3.7793,-3.6829,-3.5504,-3.5504,-3.5504,-3.5504,-3.5504,-3.5504,-3.5504,-3.5504,-3.5504,-3.5504,-3.5504,-3.5504,-3.5504,-3.5504,-3.5504,-3.5504,-3.5504,-3.5504,-3.5504,-3.5504,-3.5504,-3.5504,-3.5504,-3.5504,-3.5504,-3.5504,-3.5504,-3.5504,-3.5504,-3.5504,-3.5504,-3.5504,-3.5504,-3.5359,-3.4905,-3.3993,-3.3031,-3.2105,-3.1156,-3.0381,-2.983,-2.9792,-2.9792,-2.9792,-2.9465,-2.9176,-2.89,-2.8298,-2.7858,-2.762,-2.6876,-2.6499,-2.6499,-2.6499,-2.6499,0.0,0.0,0.0,0.0,0.0,0.0,-2.867,-2.8044,-2.7824,0.0,-3.2662,-3.3372,-3.5746,-3.6321,-3.6863,-3.8159,-3.8582,-3.9056,-3.9977,-4.0096,-4.0096,-4.0096,-4.0096,-4.0096,-4.0096,-4.0096,-4.0096,-4.0096,-4.0096,-4.0096,-4.0096,-4.0096,-4.0096,-4.0096,-4.0096,-4.0096,-4.0096,-4.0096,-4.0096,-4.0096,-4.0096,-4.0096,-4.0096,-4.0096,-4.0096,-4.0096,-4.0096,-4.0045,-3.9969,-3.9969,-4.002,-4.0096,-4.0096,-3.9172,-3.7793,-3.7793,-3.6829,-3.5504,-3.5504,-3.5504,-3.5504,-3.5504,-3.5504,-3.5504,-3.5504,-3.5504,-3.5504,-3.5504,-3.5504,-3.5504,-3.5504,-3.5504,-3.5504,-3.5504,-3.5504,-3.5504,-3.5504,-3.5504,-3.5504,-3.5504,-3.5504,-3.5504,-3.5504,-3.5504,-3.5504,-3.5504,-3.5504,-3.5504,-3.5504,-3.5504,-3.51,-3.4095,-3.3171,-3.2213,-3.1278,-3.0343,-2.9792,-2.9792,-2.9792,-2.9792,-2.9792,-2.9792,-2.9553,-2.9001,-2.8925,-2.8624,-2.8109,-2.7153,-2.665,-2.6587,-2.665,-2.665,-2.7536,0.0,0.0,0.0,0.0,0.0,-2.6082,-2.6166,-2.6962,0.0,-2.801,-2.889,-3.1749,-3.3254,-3.4167,-3.4455,-3.6028,-3.7912,-3.9825,-4.0096,-4.0096,-4.0096,-4.0096,-4.0096,-4.0096,-4.0096,-4.0096,-4.0096,-4.0096,-4.0096,-4.0096,-4.0096,-4.0096,-4.0096,-4.0096,-4.0096,-4.0096,-4.0096,-4.0096,-4.0096,-4.0096,-4.0096,-4.0096,-4.0096,-4.0096,-4.0096,-4.0096,-3.9731,-3.9139,-3.9139,-3.9516,-4.0096,-4.0096,-3.9172,-3.7793,-3.7793,-3.6829,-3.5504,-3.5504,-3.5504,-3.5504,-3.5504,-3.5504,-3.5504,-3.5504,-3.5504,-3.5504,-3.5504,-3.5504,-3.5504,-3.5504,-3.5504,-3.5504,-3.5504,-3.5504,-3.5504,-3.5504,-3.5504,-3.5504,-3.5504,-3.5504,-3.5504,-3.5504,-3.5504,-3.5504,-3.5504,-3.5504,-3.5504,-3.5504,-3.5504,-3.51,-3.4095,-3.3171,-3.2213,-3.1278,-3.0343,-2.9792,-2.9792,-2.9792,-2.9792,-2.9792,-2.9792,-2.9741,-2.9628,-2.9164,-2.8624,-2.8109,-2.7896,-2.7557,-2.7165,-2.7582,-2.7544,-2.9362,0.0,0.0,-2.9127,0.0,0.0,0.0,-2.6454,-2.659,-2.8095,-2.7486,-2.7604,-3.0632,-3.119,-3.1562,-3.2662,-3.4117,-3.5605,-3.7117,-3.8278,-3.8988,-3.8988,-3.9326,-3.9554,-3.9554,-3.9893,-4.0096,-4.0096,-4.0096,-4.0096,-4.0096,-4.0096,-4.0096,-4.0096,-4.0096,-4.0096,-4.0096,-4.0096,-4.0096,-4.0096,-4.0096,-4.0096,-4.0096,-4.0096,-4.0096,-4.007,-3.9662,-3.9289,-3.8881,-3.8497,-3.8596,-3.8941,-3.8941,-3.8246,-3.7203,-3.7203,-3.6477,-3.5504,-3.5504,-3.5504,-3.5504,-3.5504,-3.5504,-3.5504,-3.5504,-3.5504,-3.5504,-3.5504,-3.5504,-3.5504,-3.5504,-3.5504,-3.5504,-3.5504,-3.5504,-3.5504,-3.5504,-3.5504,-3.5504,-3.5504,-3.5504,-3.5504,-3.5504,-3.5504,-3.5504,-3.5504,-3.5504,-3.5504,-3.5504,-3.5504,-3.492,-3.3463,-3.289,-3.2033,-3.0633,-3.0075,-2.9792,-2.9792,-2.9792,-2.9792,-2.9792,-2.9792,-2.9792,-2.9792,-2.9503,-2.9227,-2.895,-2.895,-2.8511,-2.7708,-2.7971,-2.7959,0.0,0.0,0.0,0.0,0.0,-2.9125,0.0,0.0,0.0,-2.8636,-2.7554,0.0,0.0,0.0,0.0,-3.0719,0.0,0.0,0.0,-3.5165,0.0,-3.7195,-3.8024,-3.8565,-3.8565,-3.886,-3.9199,-3.9656,-3.9402,-3.9436,-3.9859,-4.0028,-4.0096,-4.0096,-4.0096,-4.0096,-4.0096,-4.0096,-4.0096,-4.0096,-4.0096,-4.0096,-4.0096,-4.0096,-4.0096,-4.0045,-3.9262,-3.8827,-3.8635,-3.7876,-3.7501,-3.7383,-3.7677,-3.7308,-3.6615,-3.6615,-3.6134,-3.5504,-3.5504,-3.5504,-3.5504,-3.5504,-3.5504,-3.5504,-3.5504,-3.5504,-3.5504,-3.5504,-3.5504,-3.5504,-3.5504,-3.5504,-3.5504,-3.5504,-3.5504,-3.5504,-3.5504,-3.5504,-3.5504,-3.5504,-3.5504,-3.5504,-3.5504,-3.5504,-3.5504,-3.5504,-3.5359,-3.5213,-3.5213,-3.5067,-3.4274,-3.2536,-3.2321,-3.1646,-2.9934,-2.9792,-2.9792,-2.9792,-2.9792,-2.9792,-2.9792,-2.9792,-2.9792,-2.9792,-2.9792,-2.9792,-2.9792,-2.9792,-2.9264,-2.8273,-2.8386,-2.8373,0.0,0.0,0.0,0.0,-3.3457,0.0,0.0,0.0,-2.7943,-2.5625,0.0,0.0,0.0,0.0,0.0,0.0,0.0,0.0,-2.8737,-3.0531,-3.2679,-3.4641,-3.6186,-3.7049,-3.7049,-3.5898,-3.596,-3.8007,-3.6867,-3.6992,-3.9005,-3.9757,-4.0096,-4.0096,-4.0096,-4.0096,-4.0096,-4.0096,-4.0096,-4.0096,-4.0096,-4.0096,-4.0096,-4.0096,-4.0096,-4.0045,-3.9262,-3.8525,-3.7863,-3.7054,-3.6337,-3.591,-3.7265,-3.7308,-3.6615,-3.6615,-3.6134,-3.5504,-3.5504,-3.5504,-3.5504,-3.5504,-3.5504,-3.5504,-3.5504,-3.5504,-3.5504,-3.5504,-3.5504,-3.5504,-3.5504,-3.5504,-3.5504,-3.5504,-3.5504,-3.5504,-3.5504,-3.5504,-3.5504,-3.5504,-3.5504,-3.5504,-3.5504,-3.5504,-3.5504,-3.5504,-3.4725,-3.4177,-3.4177,-3.3429,-3.2536,-3.1462,-3.1352,-3.0945,-2.9908,-2.9792,-2.9792,-2.9792,-2.9792,-2.9792,-2.9792,-2.9792,-2.9792,-2.9792,-2.9792,-2.9792,-2.9792,-2.9792,-2.9465,-2.8813,-2.9365,-2.9327,0.0,0.0,0.0,0.0,0.0,0.0,-2.9059,0.0,-2.7571,0.0,0.0,0.0,0.0,0.0,0.0,0.0,-2.6674,0.0,0.0,0.0,-2.9583,-3.2256,0.0,-3.4053,-3.534,-3.4489,-3.4607,-3.6428,-3.5571,-3.596,-3.8244,-3.9056,-3.9673,-4.0096,-4.0096,-4.0096,-4.0096,-4.0096,-4.0096,-4.0096,-4.0096,-4.0096,-4.0096,-4.0096,-4.0096,-4.002,-3.8789,-3.8092,-3.769,-3.6477,-3.5782,-3.5554,-3.6196,-3.6243,-3.5943,-3.5943,-3.575,-3.5504,-3.5504,-3.5504,-3.5504,-3.5504,-3.5504,-3.5504,-3.5504,-3.5504,-3.5504,-3.5504,-3.5504,-3.5504,-3.5504,-3.5504,-3.5504,-3.5504,-3.5504,-3.5504,-3.5504,-3.5504,-3.5504,-3.5504,-3.5504,-3.5504,-3.5504,-3.5504,-3.5504,-3.5504,-3.4643,-3.3993,-3.3993,-3.3171,-3.2249,-3.1278,-3.1217,-3.0833,-2.9895,-2.9792,-2.9792,-2.9792,-2.9792,-2.9792,-2.9792,-2.9792,-2.9792,-2.9792,-2.9792,-2.9792,-2.9792,-2.9792,-2.9666,-2.944,-2.9679,-2.9666,-3.7862,0.0,0.0,0.0,0.0,0.0,0.0,0.0,0.0,0.0,0.0,0.0,0.0,0.0,0.0,0.0,0.0,-2.5761,0.0,-2.5761,0.0,0.0,0.0,0.0,-3.3406,-3.2357,-3.2442,-3.4539,-3.3643,-3.4235,-3.7127,-3.8176,-3.9039,-3.9791,-3.9994,-4.0096,-4.0096,-4.0096,-4.0096,-4.0096,-4.0096,-4.0096,-4.0096,-4.0096,-3.9978,-3.9705,-3.8374,-3.7661,-3.7368,-3.6053,-3.5504,-3.5504,-3.5504,-3.5504,-3.5504,-3.5504,-3.5504,-3.5504,-3.5504,-3.5504,-3.5504,-3.5504,-3.5504,-3.5504,-3.5504,-3.5504,-3.5504,-3.5504,-3.5504,-3.5504,-3.5504,-3.5504,-3.5504,-3.5504,-3.5504,-3.5504,-3.5504,-3.5504,-3.5504,-3.5504,-3.5504,-3.5504,-3.5504,-3.5504,-3.5407,-3.5133,-3.4259,-3.3518,-3.3276,-3.2429,-3.1586,-3.0908,-3.0833,-3.052,-2.9869,-2.9792,-2.9792,-2.9792,-2.9792,-2.9792,-2.9792,-2.9792,-2.9792,-2.9792,-2.9792,-2.9792,-2.9792,-2.9792,-2.9792,-2.9792,-2.9792,-2.9792,-3.9994,-3.9994,-3.8945,-3.4556,-3.3423,-3.2222,-2.7807,0.0,-2.9803,0.0,0.0,0.0,0.0,0.0,0.0,0.0,0.0,0.0,0.0,0.0,0.0,0.0,0.0,0.0,0.0,-2.8636,-2.8433,-3.2141,-3.0398,-3.1072,-3.543,-3.7127,-3.8278,-3.9005,-3.974,-4.0096,-4.0096,-4.0096,-4.0096,-4.0096,-4.0096,-4.0096,-4.0096,-4.0096,-3.9662,-3.8908,-3.8149,-3.7368,-3.6584,-3.5814,-3.5504,-3.5504,-3.5504,-3.5504,-3.5504,-3.5504,-3.5504,-3.5504,-3.5504,-3.5504,-3.5504,-3.5504,-3.5504,-3.5504,-3.5504,-3.5504,-3.5504,-3.5504,-3.5504,-3.5504,-3.5504,-3.5504,-3.5504,-3.5504,-3.5504,-3.5504,-3.5504,-3.5504,-3.5504,-3.5504,-3.5504,-3.5504,-3.5504,-3.5504,-3.5166,-3.4211,-3.3241,-3.2321,-3.1426,-3.0457,-2.9869,-2.9869,-2.9818,-2.983,-2.9792,-2.9792,-2.9792,-2.9792,-2.9792,-2.9792,-2.9792,-2.9792,-2.9792,-2.9792,-2.9792,-2.9792,-2.9792,-2.9792,-2.9792,-2.9792,-2.9792,-2.9792,-4.0231,-4.0096,-3.9385,-3.6406,-3.4523,-3.2529,-2.9168,-2.929,-2.9793,0.0,0.0,0.0,0.0,0.0,0.0,0.0,0.0,0.0,0.0,0.0,0.0,0.0,0.0,0.0,0.0,0.0,-2.7656,-2.9941,-2.9416,-3.0736,-3.4658,-3.6315,-3.7719,-3.8954,-3.9723,-4.0096,-4.0096,-4.0096,-4.0096,-4.0096,-4.0096,-4.0096,-4.0096,-4.0096,-3.9662,-3.8854,-3.8121,-3.7338,-3.6554,-3.5814,-3.5504,-3.5504,-3.5504,-3.5504,-3.5504,-3.5504,-3.5504,-3.5504,-3.5504,-3.5504,-3.5504,-3.5504,-3.5504,-3.5504,-3.5504,-3.5504,-3.5504,-3.5504,-3.5504,-3.5504,-3.5504,-3.5504,-3.5504,-3.5504,-3.5504,-3.5504,-3.5504,-3.5504,-3.5504,-3.5504,-3.5504,-3.5504,-3.5504,-3.5504,-3.5166,-3.4143,-3.3206,-3.2249,-3.1315,-3.0381,-2.9792,-2.9792,-2.9792,-2.9792,-2.9792,-2.9792,-2.9792,-2.9792,-2.9792,-2.9792,-2.9792,-2.9792,-2.9792,-2.9792,-2.9792,-2.9792,-2.9792,-2.9792,-2.9792,-2.9792,-2.9792,-2.9792,-4.1027,-4.0891,-4.0367,-3.8149,-3.6282,-3.425,-3.1412,-3.1426,-3.1732,-3.066,0.0,0.0,0.0,0.0,0.0,0.0,0.0,0.0,0.0,-2.2906,0.0,0.0,0.0,0.0,0.0,0.0,-2.637,-2.8416,-2.8333,-2.9687,-3.3136,-3.4996,-3.6677,-3.8159,-3.9199,-3.9842,-4.0096,-4.0096,-4.0096,-4.0096,-4.0096,-3.9952,-3.9662,-3.9662,-3.9086,-3.8044,-3.7587,-3.6919,-3.6165,-3.5701,-3.5504,-3.5504,-3.5504,-3.5504,-3.5504,-3.5504,-3.5504,-3.5504,-3.5504,-3.5504,-3.5504,-3.5504,-3.5504,-3.5504,-3.5504,-3.5504,-3.5504,-3.5504,-3.5504,-3.5504,-3.5504,-3.5504,-3.5504,-3.5504,-3.5504,-3.5504,-3.5504,-3.5504,-3.5504,-3.5504,-3.5504,-3.5504,-3.5504,-3.5504,-3.5067,-3.3705,-3.2996,-3.2141,-3.0871,-3.0177,-2.9792,-2.9792,-2.9792,-2.9792,-2.9792,-2.9792,-2.9792,-2.9792,-2.9792,-2.9792,-2.9792,-2.9792,-2.9792,-2.9792,-2.9792,-2.9792,-2.9792,-2.9792,-2.9792,-2.9792,-2.9792,-2.9792]},{"header":{"parameterUnit":"m.s-1","parameterCategory":1,"la1":30.6,"la2":29.2853,"lo1":-89.7004,"lo2":-87.6739,"dy":0.0162,"dx":0.0183,"nx":112,"ny":82,"refTime":"2024-05-19T12:00:00:Z","depth":0,"parameterNumber":3,"parameterNumberName":"V-component_of_WINDS"},"data":[0.0,0.0,0.0,0.0,0.0,0.0,0.0,0.0,0.0,0.0,0.0,0.0,0.0,0.0,0.0,0.0,0.0,0.0,0.0,0.0,0.0,0.0,0.0,0.0,0.0,0.0,0.0,0.0,0.0,0.0,0.0,0.0,0.0,0.0,0.0,0.0,0.0,0.0,0.0,0.0,0.0,0.0,0.0,0.0,0.0,0.0,0.0,0.0,0.0,0.0,0.0,0.0,0.0,0.0,0.0,0.0,0.0,0.0,0.0,0.0,0.0,0.0,0.0,0.0,0.0,0.0,0.0,0.0,0.0,0.0,0.0,0.0,0.0,0.0,0.0,0.0,0.0,0.0,0.0,0.0,0.0,0.0,0.0,0.0,0.0,0.0,0.0,0.0,0.0,0.0,1.0359,1.2656,1.5058,1.6333,1.5856,1.5668,1.45,1.2002,0.0,0.0,0.0,0.0,0.0,0.0,0.0,0.0,0.0,0.0,0.0,0.0,0.0,0.0,0.0,0.0,0.0,0.0,0.0,0.0,0.0,0.0,0.0,0.0,0.0,0.0,0.0,0.0,0.0,0.0,0.0,0.0,0.0,0.0,0.0,0.0,0.0,0.0,0.0,0.0,0.0,0.0,0.0,0.0,0.0,0.0,0.0,0.0,0.0,0.0,0.0,0.0,0.0,0.0,0.0,0.0,0.0,0.0,0.0,0.0,0.0,0.0,0.0,0.0,0.0,0.0,0.0,0.0,0.0,0.0,0.0,0.0,0.0,0.0,0.0,0.0,0.0,0.0,0.0,0.0,0.0,0.0,0.0,0.0,0.0,0.0,0.0,0.0,0.0,0.0,0.0,0.0,0.0,0.0,0.0,0.0,0.0,0.0,0.0,0.0,0.0,0.0,0.0,0.0,1.1514,1.4838,1.5982,1.6463,1.6387,1.553,1.4425,1.3035,0.0,0.0,0.0,0.0,0.0,0.0,0.0,0.0,0.0,0.0,0.0,0.0,0.0,0.0,0.0,0.0,0.0,0.0,0.0,0.0,0.0,0.0,0.0,0.0,0.0,0.0,0.0,0.0,0.0,0.0,0.0,0.0,0.0,0.0,0.0,0.0,0.0,0.0,0.0,0.0,0.0,0.0,0.0,0.0,0.0,0.0,0.0,0.0,0.0,0.0,0.0,0.0,0.0,0.0,0.0,0.0,0.0,0.0,0.0,0.0,0.0,0.0,0.0,0.0,0.0,0.0,0.0,0.0,0.0,0.0,0.0,0.0,0.0,0.0,0.0,0.0,0.0,0.0,0.0,0.0,0.0,0.0,0.0,0.0,0.0,0.0,0.0,0.0,0.0,0.0,0.0,0.0,0.0,0.0,0.0,0.0,0.0,0.0,0.0,0.0,0.0,0.0,0.0,1.0593,1.2584,1.5053,1.6035,1.65,1.65,1.5525,1.44,1.3273,1.136,0.0,0.0,0.0,0.0,0.0,0.0,0.0,0.0,0.0,0.0,0.0,0.0,0.0,0.0,0.0,0.0,0.0,0.0,0.0,0.0,0.0,0.0,0.0,0.0,0.0,0.0,0.0,0.0,0.0,0.0,0.0,0.0,0.0,0.0,0.0,0.0,0.0,0.0,0.0,0.0,0.0,0.0,0.0,0.0,0.0,0.0,0.0,0.0,0.0,0.0,0.0,0.0,0.0,0.0,0.0,0.0,0.0,0.0,0.0,0.0,0.0,0.0,0.0,0.0,0.0,0.0,0.0,0.0,0.0,0.0,0.0,0.0,0.0,0.0,0.0,0.0,0.0,0.0,0.0,0.0,0.0,0.0,0.0,0.0,0.0,0.0,0.0,0.0,0.0,0.0,0.0,0.0,0.0,0.0,0.0,0.0,0.0,0.0,0.0,0.0,0.0,0.0,1.2005,1.3507,1.5177,1.6046,1.65,1.65,1.5412,1.428,1.3261,1.0996,0.0,0.0,0.0,0.0,0.0,0.0,0.0,0.0,0.0,0.0,0.0,0.0,0.0,0.0,0.0,0.0,0.0,0.0,0.0,0.0,0.0,0.0,0.0,0.0,0.0,0.0,0.0,0.0,0.0,0.0,0.0,0.0,0.0,0.0,0.0,0.0,0.0,0.0,0.0,0.0,0.0,0.0,0.0,0.0,0.0,0.0,0.0,0.0,0.0,0.0,0.0,0.0,0.0,0.0,0.0,0.0,0.0,0.0,0.0,0.0,0.0,0.0,0.0,0.0,0.0,0.0,0.0,0.0,0.0,0.0,0.0,0.0,0.0,0.0,0.0,0.0,0.0,0.0,0.0,0.0,0.0,0.0,0.0,0.0,0.0,0.0,0.0,0.0,0.0,0.0,0.0,0.0,0.0,0.0,0.0,0.0,0.0,0.0,0.0,0.0,0.0,0.0,1.2571,1.4126,1.6184,1.6454,1.65,1.65,1.506,1.3878,1.3235,1.0659,0.0,0.0,0.0,0.0,0.0,0.0,0.0,0.0,0.0,0.0,0.0,0.0,0.0,0.0,0.0,0.0,0.0,0.0,0.0,0.0,0.0,0.0,0.0,0.0,0.0,0.0,0.0,0.0,0.0,0.0,0.0,0.0,0.0,0.0,0.0,0.0,0.0,0.0,0.0,0.0,0.0,0.0,0.0,0.0,0.0,0.0,0.0,0.0,0.0,0.0,0.0,0.0,0.0,0.0,0.0,0.0,0.0,0.0,0.0,0.0,0.0,0.0,0.0,0.0,0.0,0.0,0.0,0.0,0.0,0.0,0.0,0.0,0.0,0.0,0.0,0.0,0.0,0.0,0.0,0.0,0.0,0.0,0.0,0.0,0.0,0.0,0.0,0.0,0.0,0.0,0.0,0.0,0.0,0.0,0.0,0.0,0.0,0.0,0.0,0.0,0.0,0.0,1.1839,1.3358,0.0,1.593,1.6095,1.6466,1.5336,1.4054,1.2789,0.0,0.0,0.0,0.0,0.0,0.0,0.0,0.0,0.0,0.0,0.0,0.0,0.0,0.0,0.0,0.0,0.0,0.0,0.0,0.0,0.0,0.0,0.0,0.0,0.0,0.0,0.0,0.0,0.0,0.0,0.0,0.0,0.0,0.0,0.0,0.0,0.0,0.0,0.0,0.0,0.0,0.0,0.0,0.0,0.0,0.0,0.0,0.0,0.0,0.0,0.0,0.0,0.0,0.0,0.0,0.0,0.0,0.0,0.0,0.0,0.0,0.0,0.0,0.0,0.0,0.0,0.0,0.0,0.0,0.0,0.0,0.0,0.0,0.0,0.0,0.0,0.0,0.0,0.0,0.0,0.0,0.0,0.0,0.0,0.0,0.0,0.0,0.0,0.0,0.0,0.0,0.0,0.0,0.0,0.0,0.0,0.0,0.0,0.0,0.0,0.0,0.0,1.0495,1.155,1.2982,0.0,1.561,1.5842,1.6445,1.5361,1.3991,1.2504,0.0,0.0,0.0,0.0,0.0,0.0,0.0,0.0,0.0,0.0,0.0,0.0,0.0,0.0,0.0,0.0,0.0,0.0,0.0,0.0,0.0,0.0,0.0,0.0,0.0,0.0,0.0,0.0,0.0,0.0,0.0,0.0,0.0,0.0,0.0,0.0,0.0,0.0,0.0,0.0,0.0,0.0,0.0,0.0,0.0,0.0,0.0,0.0,0.0,0.0,0.0,0.0,0.0,0.0,0.0,0.0,0.0,0.0,0.0,0.0,0.0,0.0,0.0,0.0,0.0,0.0,0.0,0.0,0.0,0.0,0.0,0.0,0.0,0.0,0.0,0.0,0.0,0.0,0.0,0.0,0.0,0.0,0.0,0.0,0.0,0.0,0.0,0.0,0.0,0.0,0.0,0.0,0.0,0.0,0.0,0.0,0.0,0.0,0.0,0.0,0.0,0.0,1.0891,1.1959,1.3291,1.5359,1.5588,1.5842,1.6445,1.5022,1.3619,0.0,0.0,0.0,0.0,0.0,0.0,0.0,0.0,0.0,0.0,0.0,0.0,0.0,0.0,0.0,0.0,0.0,0.0,0.0,0.0,0.0,0.0,0.0,0.0,0.0,0.0,0.0,0.0,0.0,0.0,0.0,0.0,0.0,0.0,0.0,0.0,0.0,0.0,0.0,0.0,0.0,0.0,0.0,0.0,0.0,0.0,0.0,0.0,0.0,0.0,0.0,0.0,0.0,0.0,0.0,0.0,0.0,0.0,0.0,0.0,0.0,0.0,0.0,0.0,0.0,0.0,0.0,0.0,0.0,0.0,0.0,0.0,0.0,0.0,0.0,0.0,0.0,0.0,0.0,0.0,0.0,0.0,0.0,0.0,0.0,0.0,0.0,0.0,0.0,0.0,0.0,0.0,0.0,0.0,0.0,0.0,0.0,0.0,0.0,0.0,0.0,0.0,0.0,1.0364,1.1575,1.297,1.4756,1.4971,1.5377,1.6402,1.5374,1.384,1.1952,0.0,0.0,0.0,0.0,0.0,0.0,0.0,0.0,0.0,0.0,0.0,0.0,0.0,0.0,0.0,0.0,0.0,0.0,0.0,0.0,0.0,0.0,0.0,0.0,0.0,0.0,0.0,0.0,0.0,0.0,0.0,0.0,0.0,0.0,0.0,0.0,0.0,0.0,0.0,0.0,0.0,0.0,0.0,0.0,0.0,0.0,0.0,0.0,0.0,0.0,0.0,0.0,0.0,0.0,0.0,0.0,0.0,0.0,0.0,0.0,0.0,0.0,0.0,0.0,0.0,0.0,0.0,0.0,0.0,0.0,0.0,0.0,0.0,0.0,0.0,0.0,0.0,0.0,0.0,0.0,0.0,0.0,0.0,0.0,0.0,0.0,0.0,0.0,0.0,0.0,0.0,0.0,0.0,0.0,0.0,0.0,0.0,0.0,0.0,0.0,0.0,0.0,1.0136,1.1404,1.2745,1.4193,1.4571,1.5085,1.6051,1.5371,1.4042,1.204,0.0,0.0,0.0,0.0,0.0,0.0,0.0,0.0,0.0,0.0,0.0,0.0,0.0,0.0,0.0,0.0,0.0,0.0,0.0,0.0,0.0,0.0,0.0,0.0,0.0,0.0,0.0,0.0,0.0,0.0,0.0,0.0,0.0,0.0,0.0,0.0,0.0,0.0,0.0,0.0,0.0,0.0,0.0,0.0,0.0,0.0,0.0,0.0,0.0,0.0,0.0,0.0,0.0,0.0,0.0,0.0,0.0,0.0,0.0,0.0,0.0,0.0,0.0,0.0,0.0,0.0,0.0,0.0,0.0,0.0,0.0,0.0,0.0,0.0,0.0,0.0,0.0,0.0,0.0,0.0,0.0,0.0,0.0,0.0,0.0,0.0,0.0,0.0,0.0,0.0,0.0,0.0,0.0,0.0,0.0,0.0,0.0,0.0,0.0,0.0,0.0,0.0,1.0136,1.1455,1.2656,1.3679,1.4329,1.4949,1.5543,1.5225,1.4268,1.2576,0.0,0.0,0.0,0.0,0.0,0.0,0.0,0.0,0.0,0.0,0.0,0.0,0.0,0.0,0.0,0.0,0.0,0.0,0.0,0.0,0.0,0.0,0.0,0.0,0.0,0.0,0.0,0.0,0.0,0.0,0.0,0.0,0.0,0.0,0.0,0.0,0.0,0.0,0.0,0.0,0.0,0.0,0.0,0.0,0.0,0.0,0.0,0.0,0.0,0.0,0.0,0.0,0.0,0.0,0.0,0.0,0.0,0.0,0.0,0.0,1.0528,0.9999,0.0,0.0,0.0,0.0,0.0,0.0,0.0,0.0,0.0,0.0,0.0,0.0,0.0,0.0,0.0,0.0,0.0,0.0,0.0,0.0,0.0,0.0,0.0,0.0,0.0,0.0,0.0,0.0,0.0,0.0,0.0,0.0,0.0,0.0,0.0,0.0,0.0,0.0,0.0,0.0,1.0185,1.1719,1.3028,1.3711,1.4329,1.4949,1.5543,1.557,1.4814,1.3152,1.1902,0.0,0.0,0.0,0.0,0.0,0.0,0.0,0.0,0.0,0.0,0.0,0.0,0.0,0.0,0.0,0.0,0.0,0.0,0.0,0.0,0.0,0.0,0.0,0.0,0.0,0.0,0.0,0.0,0.0,0.0,0.0,0.0,0.0,0.0,0.0,0.0,0.0,0.0,0.0,0.0,0.0,0.0,0.0,0.0,0.0,0.0,0.0,0.0,0.0,0.0,0.0,0.0,0.0,0.0,0.0,0.0,0.0,0.0,0.0,1.2246,1.1455,0.0,0.0,0.0,0.0,0.0,0.0,0.0,0.0,0.0,0.0,0.0,0.0,0.0,0.0,0.0,0.0,0.0,0.0,0.0,0.0,0.0,0.0,0.0,0.0,0.0,0.0,0.0,0.0,0.0,0.0,0.0,0.0,0.0,0.0,0.0,0.0,0.0,0.0,0.0,0.0,1.0478,1.1946,1.3017,1.3324,1.3897,1.4388,1.471,1.5059,1.4655,1.3235,1.2415,0.0,0.0,0.0,0.0,0.0,0.0,0.0,0.0,0.0,0.0,0.0,0.0,0.0,0.0,0.0,0.0,0.0,0.0,0.0,0.0,0.0,0.0,0.0,0.0,0.0,0.0,0.0,0.0,0.0,0.0,0.0,0.0,0.0,0.0,0.0,0.0,0.0,0.0,0.0,0.0,0.0,0.0,0.0,0.0,0.0,0.0,0.0,0.0,0.0,0.0,0.0,0.0,0.0,1.5474,1.5913,1.7028,1.696,1.6921,1.6785,1.4289,1.348,1.3848,1.2573,0.0,0.0,0.0,0.0,0.0,0.0,0.0,0.0,0.0,0.0,0.0,0.0,0.0,0.0,0.0,0.0,0.0,0.0,0.0,0.0,0.0,0.0,1.2545,1.2545,1.2842,1.2705,1.127,0.0,0.0,0.0,0.0,0.0,0.0,0.0,0.0,0.0,0.0,0.0,1.0908,1.2109,1.2905,1.2905,1.3539,1.3956,1.3956,1.4673,1.466,1.3609,1.3004,1.1989,0.0,0.0,0.0,0.0,0.0,0.0,0.0,0.0,0.0,0.0,0.0,0.0,0.0,0.0,0.0,0.0,0.0,0.0,0.0,0.0,0.0,0.0,0.0,0.0,0.0,0.0,0.0,0.0,0.0,0.0,0.0,0.0,0.9169,1.0341,0.0,0.0,0.0,0.0,0.0,0.0,0.0,0.0,0.0,0.0,0.0,0.0,0.0,1.5352,1.6268,1.7003,1.7482,1.7666,1.7935,1.8168,1.8334,1.7974,1.7842,1.7822,1.7422,0.0,1.5654,1.4326,0.0,0.0,0.0,0.0,0.0,0.0,0.0,0.0,0.0,0.0,0.0,0.0,0.0,0.0,0.0,0.0,0.0,0.0,0.0,0.0,0.0,0.0,1.3851,1.3851,1.3899,1.388,1.3646,1.2086,1.0468,0.9611,0.9104,0.8682,0.0,0.0,0.0,0.0,0.0,0.0,1.141,1.2318,1.2905,1.2905,1.3907,1.4583,1.4583,1.5618,1.6006,1.5396,1.4419,1.3342,1.2128,1.0546,0.0,0.0,0.0,0.0,0.0,0.0,0.0,0.0,0.0,0.0,0.0,0.0,0.0,0.0,0.0,0.0,0.0,0.0,0.0,0.0,0.0,0.0,0.0,0.0,0.0,0.0,0.0,0.0,0.0,0.9174,0.9919,1.052,1.0397,0.9923,0.0,0.0,0.0,0.0,0.0,0.0,0.0,0.0,0.0,1.4289,1.458,1.5282,1.6462,1.7742,1.8527,1.8796,1.9649,2.0186,2.0459,2.0273,2.0185,2.0176,1.9894,1.9355,1.8472,1.6426,1.5225,1.4608,0.0,0.0,0.0,0.0,1.3086,1.3184,1.3884,1.3991,1.3789,1.3691,0.0,0.0,0.0,0.0,0.0,0.0,0.0,1.2925,1.2925,1.3721,1.4502,1.4502,1.4502,1.4502,1.4502,1.3539,1.2379,1.1266,1.0742,1.0175,0.9238,0.9131,0.0,0.0,0.0,1.1252,1.1855,1.249,1.2905,1.2905,1.3358,1.3681,1.3681,1.4789,1.5254,1.4714,1.4877,1.4356,1.2914,1.1848,1.0646,0.0,0.0,0.0,0.0,0.0,0.0,0.0,0.0,0.0,0.0,0.0,0.0,0.0,0.0,0.0,0.0,0.0,0.0,0.0,0.0,0.0,0.0,0.0,0.0,0.0,0.0,0.0,0.0,0.9926,1.0322,1.0501,1.0903,1.0718,0.0,0.0,0.0,0.0,0.0,0.0,1.1868,1.2179,1.315,1.4945,1.5034,1.5638,1.679,1.7955,1.878,1.9248,2.0378,2.1151,2.1604,2.1809,2.1885,2.1865,2.1543,2.1211,2.0762,1.8359,1.7061,1.6515,1.5772,1.5186,1.4825,1.5293,1.5478,1.5557,1.633,1.6525,1.6339,1.5811,1.5244,1.4572,1.351,0.0,0.0,0.0,0.0,1.416,1.416,1.4717,1.5283,1.5283,1.5283,1.5283,1.5283,1.4853,1.4085,1.2915,1.2363,1.1741,1.0624,1.0635,0.0,0.0,0.0,1.1917,1.2344,1.2676,1.2905,1.2905,1.3041,1.3128,1.3128,1.4084,1.4598,1.4347,1.5058,1.492,1.3692,1.2964,1.1886,1.0357,0.0,0.0,0.0,0.0,0.0,0.0,0.0,0.0,0.0,0.0,0.0,0.0,0.0,0.0,0.0,0.0,0.0,0.0,0.0,0.0,0.0,0.0,0.0,0.0,0.0,0.0,0.0,0.0,0.0,1.0312,1.0947,0.0,0.0,0.0,0.0,1.0882,1.1697,1.2355,1.2732,1.4123,1.5275,1.5998,1.6928,1.7667,1.8118,1.8185,1.8409,1.8842,1.9668,2.0301,2.0809,2.1539,2.1885,2.1885,2.1865,2.1836,2.168,1.9893,1.8662,1.7871,1.7432,1.6982,1.6619,1.709,1.7288,1.7314,1.7764,1.7646,1.7373,1.7734,1.7252,1.6482,1.6046,1.5576,0.0,0.0,1.5576,1.5968,1.5968,1.6279,1.6599,1.6599,1.6599,1.6599,1.6599,1.5927,1.5059,1.4182,1.3675,1.3262,1.2803,0.0,1.2106,1.2106,1.2145,1.233,1.2793,1.2895,1.2905,1.2905,1.342,1.3755,1.3755,1.4329,1.4937,1.5486,1.509,1.4849,1.4814,1.3742,1.2638,1.154,1.0395,0.0,0.0,0.0,0.0,0.0,0.0,0.0,0.0,0.0,0.0,0.0,0.0,0.0,0.0,0.0,0.0,0.0,0.0,0.0,0.0,0.0,0.0,0.0,0.0,0.0,0.0,0.0,0.0,1.155,1.2014,0.0,1.143,1.1859,1.2241,1.2405,1.306,1.3581,1.3874,1.4603,1.5226,1.5635,1.6,1.633,1.6639,1.7462,1.7933,1.8087,1.997,2.0906,2.1129,2.2174,2.2652,2.2652,2.2652,2.2539,2.2236,2.1621,2.0859,2.0001,1.9637,1.916,1.8763,1.8955,1.8838,1.8633,1.8779,1.873,1.8584,1.8422,1.7842,1.7119,1.6995,1.6611,1.6229,1.6229,1.6377,1.6494,1.6494,1.658,1.6697,1.6697,1.6697,1.6697,1.6697,1.6453,1.6054,1.5488,1.458,1.3753,1.3359,1.3354,1.3334,1.3071,1.3032,1.3105,1.3262,1.3071,1.2905,1.2905,1.3079,1.3214,1.3214,1.3779,1.4376,1.4994,1.4886,1.4832,1.4902,1.418,1.3262,1.214,1.1374,1.027,0.0,0.0,0.0,0.0,0.0,0.0,0.0,0.0,0.0,0.0,0.0,0.0,0.0,0.0,0.0,0.0,0.0,0.0,0.0,0.0,0.0,0.0,0.0,0.0,0.0,0.0,1.2131,1.2418,1.3018,1.3186,1.2652,1.3053,1.3467,1.3634,1.4202,1.4616,1.4803,1.5097,1.5344,1.5538,1.5538,1.5631,1.5778,1.6622,1.7037,1.7084,1.9131,2.0079,2.0124,2.1355,2.2129,2.2492,2.2492,2.2567,2.2682,2.2682,2.235,2.1775,2.124,2.084,2.0576,2.0576,2.0312,1.9922,1.9775,1.9619,1.9453,1.9124,1.8594,1.8027,1.8027,1.7822,1.7598,1.7598,1.7457,1.734,1.734,1.7233,1.7126,1.7126,1.7126,1.7126,1.7126,1.7019,1.6865,1.6594,1.5576,1.4609,1.4033,1.417,1.4182,1.3779,1.3695,1.3636,1.3525,1.3262,1.3037,1.2925,1.2905,1.2905,1.2905,1.3262,1.3755,1.4352,1.4471,1.4529,1.4597,1.4281,1.3657,1.2689,1.1964,1.0949,0.9642,0.0,0.0,0.0,0.0,0.0,0.0,0.0,0.0,0.0,0.0,0.0,0.0,0.0,0.0,0.0,0.0,0.0,0.0,0.0,0.0,0.0,0.0,0.0,1.1062,1.2318,1.3133,1.2898,1.3848,1.4215,1.3373,1.4062,1.4563,1.4563,1.509,1.5411,1.5411,1.5678,1.5784,1.5784,1.5784,1.5784,1.5784,1.5784,1.5825,1.5872,1.7131,1.7777,1.787,1.9039,2.026,2.1346,2.1346,2.2031,2.3091,2.3091,2.3091,2.3013,2.2246,2.1914,2.1904,2.1904,2.1631,2.1151,2.0801,2.0322,1.9951,1.9951,1.9668,1.9307,1.9307,1.9297,1.9287,1.9287,1.8984,1.8617,1.8617,1.8315,1.8027,1.8027,1.8018,1.8008,1.8008,1.7686,1.7435,1.7383,1.6721,1.586,1.4999,1.4842,1.4658,1.4211,1.4133,0.0,1.3603,1.3525,1.335,1.2964,1.2915,1.2905,1.2905,1.2905,1.3176,1.3802,1.3871,1.3938,1.4053,1.4075,1.3828,1.3235,1.2165,1.1312,1.0733,0.0,0.0,0.0,0.0,0.0,0.0,0.0,0.0,0.0,0.0,0.0,0.0,0.0,0.0,0.0,0.0,0.0,0.0,0.0,0.0,0.0,0.0,1.2599,1.2599,1.332,1.4048,1.4603,1.4957,1.5144,1.5065,1.5278,1.5425,1.5425,1.5618,1.5712,1.5712,1.5738,1.5784,1.5784,1.5784,1.5784,1.5784,1.5784,1.6244,1.7178,1.8411,1.9451,2.035,2.1543,2.2271,2.2633,2.2633,2.2775,2.3091,2.3091,2.3091,2.3071,2.2838,2.2607,2.2344,2.2344,2.207,2.1689,2.1562,2.124,2.083,2.083,2.0361,1.9746,1.9746,1.9531,1.9287,1.9287,1.9199,1.9111,1.9111,1.8789,1.8432,1.8432,1.8198,1.8008,1.8008,1.792,1.7744,1.7474,1.722,1.677,1.5889,1.5449,1.5195,1.505,1.4805,0.0,1.4453,1.3887,1.3467,1.335,1.3066,1.2905,1.2905,1.2905,1.3334,1.4376,1.3696,1.3836,1.5192,1.4494,1.4009,1.3871,1.237,1.1527,0.0,0.0,0.0,0.0,0.0,0.0,0.0,0.0,0.0,0.0,0.0,0.0,0.0,0.0,0.0,0.0,0.0,0.0,0.0,0.0,0.0,0.0,1.3621,1.3841,1.4095,1.4422,1.487,1.5504,1.5578,1.5645,1.5764,1.5784,1.5784,1.5784,1.5945,1.6012,1.6012,1.6132,1.6199,1.6199,1.6199,1.6199,1.6199,1.6199,1.6464,1.7144,1.7831,1.8721,1.9807,2.0503,2.1409,2.2359,2.2359,2.2633,2.3091,2.3091,2.3091,2.3091,0.0,0.0,0.0,0.0,2.2353,2.2129,2.1953,2.1719,2.1504,2.1504,2.1035,2.043,2.043,2.0166,1.9862,1.9862,1.9687,1.9551,1.9551,1.9228,1.887,1.887,1.8549,1.8237,1.8237,1.8135,1.7939,1.7695,1.75,0.0,1.6741,1.6124,1.5625,1.5439,1.5205,1.498,1.4805,1.4346,1.3906,1.3545,1.3291,1.3076,1.2925,1.2905,0.0,0.0,0.0,1.3965,1.5302,1.4777,0.0,0.0,0.0,0.0,0.0,0.0,0.0,0.0,1.1096,1.0921,0.0,0.0,0.0,0.0,0.0,0.0,0.0,0.0,0.0,0.0,0.0,0.0,0.0,0.0,0.0,0.0,1.5074,1.481,1.5364,1.5444,1.5538,1.5751,1.5784,1.5784,1.5784,1.5811,1.5879,1.5879,1.6152,1.6375,1.6375,0.0,0.0,0.0,0.0,1.6707,1.6707,1.6707,1.6722,1.6794,1.6711,1.7313,1.8381,1.8342,1.9497,2.1525,2.1525,2.212,2.3091,2.3091,2.3091,2.3091,2.3091,2.3091,2.3052,2.2682,2.2578,2.2529,2.2158,0.0,0.0,2.1953,2.167,2.1268,2.1268,2.0996,2.0683,2.0683,2.0322,1.999,1.999,1.9678,1.9355,1.9355,1.9023,1.8676,1.8676,1.8379,1.8076,1.8076,1.7744,1.7441,1.7425,1.6682,1.5958,1.5537,1.5439,1.5273,1.4902,1.4842,1.4492,1.373,1.3564,0.0,1.3013,1.2935,1.2929,1.2992,1.3698,1.4315,1.486,1.4945,1.4984,1.4984,1.4921,1.4896,1.4896,1.4896,1.4921,1.4921,1.2379,1.1974,0.0,0.0,0.0,0.0,0.0,0.0,0.0,0.0,0.0,0.0,0.0,0.0,0.0,0.0,0.0,1.4552,1.5018,1.5351,1.5698,1.5698,1.5718,1.5771,1.5784,1.5784,1.5784,1.6046,1.6186,1.6186,1.6453,1.662,1.662,1.6673,1.6707,1.6707,1.6707,1.6707,1.6707,1.6707,1.7739,1.9742,1.936,0.0,2.2625,2.2244,2.2325,2.2765,2.2765,2.2862,2.3091,2.3091,2.3091,2.3091,2.3091,2.3091,2.3081,2.3003,2.2974,2.2964,2.2877,2.2676,2.2393,2.2393,2.2109,2.1758,2.1758,2.1455,0.0,2.1064,2.0781,2.0478,2.0478,2.0117,1.9795,1.9795,1.9473,1.916,1.916,1.8818,1.8481,1.8481,1.8174,1.7783,1.7474,1.6682,1.6065,1.5977,1.5635,1.5381,1.5303,1.5,1.4754,1.4578,1.3916,1.3477,1.3389,1.3101,1.3104,1.36,1.4665,1.5132,1.4824,1.5286,1.5563,1.5563,1.5123,1.4896,1.4896,1.4896,1.5123,1.5517,1.4544,1.4268,0.0,0.0,0.0,0.0,0.0,0.0,0.0,0.0,0.0,0.0,0.0,1.3608,0.0,0.0,1.4264,1.5518,1.5677,1.5665,1.5758,1.5784,1.5784,1.5784,1.5784,1.5885,1.6039,1.6186,1.6382,1.648,1.676,1.6927,1.6927,1.7068,1.7442,1.8143,1.8143,1.8492,1.9177,1.9177,1.9786,2.0882,2.0652,2.1479,2.3194,2.2734,2.2869,2.3457,2.3188,2.3091,2.3091,2.3091,2.3091,2.3091,2.3091,2.3091,2.3091,2.3091,2.3091,2.3091,2.3091,2.2955,2.2779,2.2779,2.2539,2.2197,2.2197,2.1904,2.1514,2.1259,2.1074,2.085,2.0664,2.0449,2.0244,2.0244,1.9912,1.96,1.96,1.9268,1.8896,1.8646,1.8432,1.8159,1.7773,1.7158,1.6604,1.6163,1.5909,1.5664,1.5439,1.5225,1.5019,1.4805,1.4404,1.3975,1.3545,1.3125,1.3286,1.419,1.4526,1.4992,1.5621,1.566,1.5788,1.6086,1.5831,1.5693,1.5693,1.5693,1.5831,1.6095,1.5831,1.5693,0.0,0.0,0.0,0.0,0.0,0.0,0.0,0.0,1.3247,1.3468,1.3762,1.4368,1.5788,1.5283,1.5116,1.6541,1.6213,1.5784,1.5784,1.5784,1.5784,1.5784,1.5879,1.6012,1.6253,1.6422,1.654,1.6774,1.7119,1.7286,1.7286,1.7455,1.8094,1.9169,1.922,1.9782,2.0888,2.0888,2.1049,2.1304,2.118,2.1836,2.3091,2.2649,2.2941,2.3769,2.3286,2.3091,2.3091,2.3091,2.3091,2.3091,2.3091,2.3091,2.3091,2.3091,2.3091,2.3091,2.3091,2.3091,2.3091,2.3091,2.2867,2.2637,2.2637,2.2344,2.1934,2.1582,2.1327,2.1112,2.0791,2.0674,2.0605,2.0605,2.0303,2.0039,2.0039,1.9707,1.9287,1.8812,1.8656,1.8471,1.8086,1.7734,1.7269,1.6476,1.6202,1.5968,1.5586,1.5469,1.5283,1.4941,1.4834,1.4434,1.3584,1.3203,1.3401,1.4305,1.4097,1.4618,1.6086,1.5908,1.6008,1.65,1.65,1.65,1.65,1.65,1.65,1.65,1.65,1.65,1.3488,1.3796,1.3606,1.2848,1.3001,1.3684,0.0,0.0,1.5834,1.5752,1.5995,1.6009,1.5269,1.5212,1.545,1.5859,1.5852,1.5784,1.5784,1.5784,1.5784,1.5784,1.6059,1.6239,1.6321,1.6797,1.7119,1.7146,1.742,1.7535,1.7535,1.7562,1.7687,1.7838,1.7838,1.7891,1.8042,1.8042,1.9295,2.1635,2.1205,2.2364,2.4782,2.4346,2.4004,2.3769,2.3286,2.3091,2.3091,2.3091,2.3091,2.3091,2.3091,2.3091,2.3091,2.3091,2.3091,2.3091,2.3091,2.3091,2.3091,2.3091,2.3062,2.3023,2.3023,2.273,2.2432,2.2383,2.1785,2.1181,2.1132,2.0869,2.0605,2.0605,2.0566,2.0537,2.0537,2.0156,1.9717,1.9297,1.8906,1.8471,1.8086,1.7969,1.7783,1.7305,1.6604,1.6075,1.6026,1.5654,1.5391,1.5352,1.501,1.4434,1.3584,1.3467,1.3356,1.3109,1.4037,1.4698,1.488,1.5876,1.6423,1.65,1.65,1.65,1.65,1.65,1.65,1.65,1.65,1.65,1.4558,1.4344,1.3828,0.0,1.3487,1.4233,1.4797,1.5106,1.5354,1.5632,1.5781,1.5791,1.5523,1.5565,1.5745,0.0,1.6086,1.6086,1.6086,1.6086,1.6019,1.5804,1.6092,1.6339,1.6506,1.6747,1.7034,1.7427,1.7515,1.7582,1.7582,1.7582,1.7943,1.876,1.876,1.9524,2.1143,2.1143,2.2114,2.4048,2.3825,2.4347,2.5439,2.5,2.456,2.4131,2.3701,2.3516,2.3496,2.3198,2.3091,2.3091,2.3091,2.3091,2.3091,2.3091,2.3091,2.3091,2.3091,2.3091,2.3091,2.3091,2.3091,2.3091,2.3091,2.2974,2.2779,2.2578,2.2256,2.1824,2.1327,2.1094,2.0889,2.0664,2.0605,2.0605,2.0605,2.0458,2.0166,1.9736,1.9307,1.8877,1.8412,1.8174,1.7949,1.7773,1.7227,1.6672,1.6163,1.5938,1.5693,1.5439,1.5039,1.4639,1.4277,1.3789,1.357,1.3758,1.4021,1.448,1.5186,1.571,1.6139,1.6488,1.65,1.65,1.65,1.65,1.65,1.65,1.65,1.65,1.4588,1.4303,0.0,1.3347,1.3881,1.4609,1.4482,1.4676,1.5003,1.5431,1.5518,1.5578,1.5744,1.5784,1.5925,1.6274,1.6321,1.6321,1.6321,1.6321,1.6166,1.5818,1.6019,1.6266,1.656,1.6734,1.7001,1.7481,1.7896,1.8146,1.8146,1.8499,1.9169,2.0135,2.0179,2.1151,2.3126,2.3126,2.384,2.5177,2.5177,2.5323,2.5674,2.5273,2.4893,2.457,2.415,2.3896,2.3769,2.3447,2.3198,2.3091,2.3091,2.3091,2.3091,2.3091,2.3091,2.3091,2.3091,2.3091,2.3091,2.3091,2.3091,2.3091,2.3091,2.3091,2.3033,2.2773,2.2607,2.2363,2.1707,2.1366,2.1112,2.083,2.0693,2.0605,2.0605,2.0605,2.0478,2.0,1.9668,1.9287,1.8695,1.8354,1.8144,1.8027,1.7754,1.7285,1.6555,1.6242,1.5928,1.5459,1.5137,1.4912,1.4795,1.4219,1.3997,1.4307,1.4258,1.4609,1.5474,1.5738,1.6051,1.65,1.65,1.65,1.65,1.65,1.65,1.65,1.65,1.65,1.3022,0.0,1.4513,1.4144,1.4546,1.5068,1.5297,1.5578,1.5792,1.5764,1.5764,1.5771,1.5784,1.5784,1.5925,1.6274,1.6321,1.6321,1.6321,1.6321,1.6166,1.5818,1.5791,1.5959,0.0,1.6851,1.7192,1.7213,1.864,1.9524,1.9524,2.0837,2.16,2.1651,2.1651,2.1702,2.1752,2.1752,2.2408,2.3741,2.3741,2.4461,2.5674,2.5273,2.5106,2.5077,2.459,2.417,2.3789,2.3779,2.3525,2.3091,2.3091,2.3091,2.3091,2.3091,2.3091,2.3091,2.3091,2.3091,2.3091,2.3091,2.3091,2.3091,2.3091,2.3091,2.3091,2.3081,2.2779,2.251,2.248,2.1814,2.119,2.1181,2.0879,2.0605,2.0605,2.0605,2.0478,2.0,1.9902,1.9592,1.8744,1.8588,1.8442,1.8076,1.7998,1.7832,1.7402,1.6623,1.5928,1.5459,1.54,1.5225,1.4814,1.4793,1.4561,1.4141,1.4832,1.5272,1.5296,1.6053,1.6466,1.65,1.65,1.65,1.65,1.65,1.65,1.65,1.65,1.65,1.4247,0.0,1.4536,1.465,1.5104,1.5565,1.5658,1.5758,1.5784,1.5784,1.5678,1.5605,1.5792,1.5671,1.5765,1.6446,1.656,1.6627,1.6878,1.6904,1.6723,1.6186,1.6126,0.0,0.0,0.0,0.0,1.7172,1.7692,1.8088,1.8237,1.9576,2.0333,2.0333,2.1194,2.2106,2.3026,2.3026,2.3692,2.502,2.502,2.5274,2.5684,2.5586,2.5518,2.5488,2.5039,2.4766,2.4636,2.4023,2.3701,2.3545,2.3208,2.3091,2.3091,2.3091,2.3091,2.3091,2.3091,2.3091,2.3091,2.3091,2.3091,2.3091,2.3091,2.3091,2.3091,2.3091,2.2994,2.2818,2.2588,2.2295,2.1943,2.1327,2.1123,2.0928,2.0674,2.0605,2.0556,2.0419,2.0107,1.9824,1.9494,1.8978,1.8461,1.8076,1.7773,1.7539,1.7435,1.6643,1.6036,1.5889,1.5586,1.5352,1.5215,1.4941,1.4929,1.5276,1.5654,1.6117,1.6617,1.6918,1.7087,1.7087,1.6688,1.65,1.65,1.65,1.65,1.65,1.65,1.65,1.4945,1.4934,1.4776,1.517,1.5558,1.5784,1.5784,1.5784,1.5751,1.5698,1.5444,1.5297,1.5484,1.5277,1.5371,1.6253,1.648,1.6653,1.6998,1.7132,1.7018,1.6486,1.6426,1.6353,0.0,0.0,0.0,1.7012,1.7637,1.8147,1.829,1.962,2.059,2.1049,2.1954,2.3076,2.4402,2.4402,2.4864,2.5693,2.5693,2.5693,2.5693,2.5693,2.5693,2.5674,2.543,2.5215,2.5077,2.4519,2.4072,2.376,2.3486,2.3227,2.3091,2.3091,2.3091,2.3091,2.3091,2.3091,2.3091,2.3091,2.3091,2.3091,2.3091,2.3091,2.3091,2.3091,2.3091,2.3033,2.2769,2.2627,2.2373,2.1785,2.1414,2.1112,2.0869,2.0713,2.0605,2.0605,2.038,2.0098,1.9941,1.9173,1.851,1.8237,1.7881,1.7549,1.7435,1.6917,1.6447,1.6124,1.584,1.5586,1.542,1.5166,1.5226,1.57,1.6152,1.6638,1.7093,1.7481,1.7677,1.7677,1.7313,1.7124,1.7124,1.7124,1.7024,1.6823,1.6823,1.6823,1.5031,1.5028,1.5137,1.5691,1.5784,1.5784,1.5784,1.5771,1.5678,1.5431,1.513,1.4955,0.0,0.0,1.4796,1.5598,1.6072,1.64,1.6687,1.7032,1.7112,0.0,0.0,0.0,0.0,0.0,0.0,1.6747,0.0,1.9457,1.9524,2.0837,2.2156,2.3434,2.3633,2.4304,2.5586,2.5693,2.5693,2.5693,2.5693,2.5693,2.5693,2.5693,2.5693,2.5693,2.5693,2.5498,2.5145,2.5125,2.459,2.3857,2.3809,2.3535,2.312,2.3101,2.3091,2.3091,2.3091,2.3091,2.3091,2.3091,2.3091,2.3091,2.3091,2.3091,2.3091,2.3091,2.3091,2.3091,2.3091,2.2799,2.2539,2.2519,2.1853,2.1249,2.121,2.0898,2.0635,2.0605,2.0605,2.0468,1.999,1.9202,1.8656,1.8607,1.8301,1.7891,1.7471,1.7393,1.7093,1.6251,1.6174,1.6008,1.5537,1.5527,1.5546,1.5497,1.6383,1.6912,1.6912,1.7762,1.8242,1.8242,1.8216,1.8204,1.8204,1.8204,1.794,1.7448,1.7448,1.7448,1.4925,1.5284,1.5645,1.5792,1.5784,1.5784,1.5784,1.5665,1.5424,1.5182,1.4713,1.4242,0.0,0.0,0.0,1.511,1.5979,0.0,1.7045,1.734,0.0,1.7125,0.0,1.6947,1.6727,1.6907,0.0,0.0,1.765,1.7912,1.808,1.942,2.0282,2.0641,2.2617,2.384,2.4196,2.5226,2.5693,2.5693,2.5693,2.5693,2.5693,2.5693,2.5693,2.5693,2.5693,2.5625,2.5537,2.5205,2.4988,2.4678,2.4043,2.3721,2.3584,2.3218,2.3091,2.3091,2.3091,2.3091,2.3091,2.3091,2.3091,2.3091,2.3091,2.3091,2.3091,2.3091,2.3091,2.3091,2.3091,2.3013,2.2857,2.2588,2.2344,2.197,2.1337,2.1103,2.0967,2.0674,2.0605,2.0468,1.999,1.9736,1.9338,1.8695,1.851,1.8286,1.79,1.7578,1.7295,1.7103,1.7325,1.7306,1.6782,1.7344,1.7527,1.7073,1.7781,1.8222,1.8222,1.8595,1.8795,1.8795,1.8405,1.8204,1.8204,1.8204,1.8129,1.8003,1.8003,1.8003,1.5231,1.5578,1.5784,1.5784,1.5784,1.5678,1.5344,1.513,1.4816,1.4171,1.3661,0.0,1.2919,1.346,0.0,0.0,0.0,0.0,1.6965,1.7315,1.7522,0.0,1.7462,0.0,1.7308,1.8171,1.8777,0.0,1.8731,1.8688,1.8946,2.0317,2.1306,2.1974,2.3475,2.4569,2.5142,2.5698,2.6025,2.6016,2.5781,2.5693,2.5693,2.5693,2.5693,2.5693,2.5693,2.5693,2.5664,2.5469,2.5244,2.5047,2.4326,2.3955,2.374,2.3257,2.3091,2.3091,2.3091,2.3091,2.3091,2.3091,2.3091,2.3091,2.3091,2.3091,2.3091,2.3091,2.3091,2.3091,2.3091,2.3091,2.3033,2.2799,2.2646,2.2383,2.1894,2.1463,2.1064,2.0693,2.0605,2.0527,2.0244,2.0039,1.9687,1.9023,1.8724,1.8451,1.8057,1.7803,1.7588,1.7435,1.7931,1.807,1.7588,1.8141,1.8357,1.8008,1.8441,1.8688,1.8688,1.9127,1.9334,1.9334,1.907,1.8907,1.8907,1.8907,1.8794,1.8544,1.8544,1.8544,1.5691,1.5784,1.5784,1.5784,1.5751,1.5551,1.4842,1.4465,1.4021,1.3058,0.0,1.2084,1.1792,1.2492,1.324,1.35,0.0,1.6286,1.6653,1.7174,1.7555,1.7635,1.7883,1.811,1.836,1.9755,2.0784,2.1047,2.104,2.0986,2.0963,2.2207,2.3535,2.4968,2.502,2.5618,2.697,2.665,2.6445,2.6387,2.6006,2.5742,2.5693,2.5693,2.5693,2.5693,2.5693,2.5693,2.5693,2.5693,2.5508,2.5117,2.4678,2.4248,2.3818,2.3344,2.314,2.3091,2.3091,2.3091,2.3091,2.3091,2.3091,2.3091,2.3091,2.3091,2.3091,2.3091,2.3091,2.3091,2.3091,2.3091,2.3091,2.3091,2.2818,2.2578,2.2519,2.1836,2.1123,2.0772,2.0644,2.0605,2.0605,2.0254,1.9853,1.9434,1.9004,1.8539,1.8144,1.8047,1.7871,1.75,1.8206,1.8575,1.8276,1.8596,1.8788,1.8663,1.8865,1.8905,1.8715,1.9423,1.9798,1.9798,1.9798,1.9798,1.9798,1.9798,1.9572,1.9108,1.9108,1.9108,1.5751,1.5784,1.5784,1.5784,1.5651,1.5481,1.5503,1.4441,0.0,0.0,1.2235,1.1416,1.0921,1.194,1.2965,1.324,0.0,0.0,0.0,0.0,1.7408,0.0,0.0,1.8611,2.0077,2.0522,0.0,0.0,2.4044,2.4058,2.2597,2.274,2.3535,2.4968,2.502,2.5618,2.697,2.6943,2.6728,2.6387,2.6309,2.6084,2.5693,2.5693,2.5693,2.5693,2.5693,2.5693,2.5693,2.5693,2.5645,2.5528,2.5127,2.4687,2.4258,2.3828,2.3447,2.3091,2.3091,2.3091,2.3091,2.3091,2.3091,2.3091,2.3091,2.3091,2.3091,2.3091,2.3091,2.3091,2.3091,2.3091,2.3091,2.3091,2.3042,2.2886,2.2588,2.1836,2.1171,2.1093,2.082,2.0605,2.0605,2.0537,2.0303,1.9873,1.9443,1.9014,1.8549,1.8223,1.7978,1.791,1.8675,1.9243,1.9463,2.0155,2.0235,1.9471,2.0,1.9863,1.8765,1.9423,1.9798,1.9798,1.9798,1.9798,1.9798,1.9798,1.9761,1.966,1.966,1.966,1.5784,1.5784,1.5784,1.5784,1.5611,1.5337,1.5081,0.0,0.0,0.0,1.1563,1.085,1.0245,1.1176,0.0,1.2465,0.0,0.0,0.0,0.0,0.0,0.0,0.0,0.0,0.0,2.0637,2.1842,2.3502,2.499,2.5451,2.4619,2.5272,2.6028,2.6692,2.6744,2.7017,2.7676,2.7461,2.7139,2.6709,2.6494,2.6162,2.5693,2.5693,2.5693,2.5693,2.5693,2.5693,2.5693,2.5693,2.5693,2.5645,2.5244,2.4805,2.4365,2.3945,2.3516,2.3091,2.3091,2.3091,2.3091,2.3091,2.3091,2.3091,2.3091,2.3091,2.3091,2.3091,2.3091,2.3091,2.3091,2.3091,2.3091,2.3091,2.3091,2.2984,2.2607,2.2021,2.1504,2.1239,2.0869,2.0605,2.0605,2.0605,2.0458,1.998,1.9746,1.9375,1.8685,1.8829,1.8747,1.8061,1.9177,2.004,2.0191,2.0707,2.1015,2.0994,2.0814,2.0393,1.976,1.9767,1.9798,1.9798,1.9798,1.9798,1.9798,1.9798,1.9798,1.9798,1.9798,1.9798,1.5784,1.5784,1.5784,1.5784,1.5565,1.5191,1.4772,1.3851,0.0,0.0,1.0999,1.0492,1.0035,0.0,1.1464,0.0,1.317,1.4329,0.0,0.0,0.0,0.0,0.0,0.0,1.9419,2.1048,0.0,2.371,2.5215,2.6264,2.6545,2.7672,2.8291,2.8291,2.8291,2.8291,2.8291,2.7881,2.7441,2.7012,2.6592,2.6162,2.5693,2.5693,2.5693,2.5693,2.5693,2.5693,2.5693,2.5693,2.5693,2.5654,2.5352,2.4883,2.4375,2.4043,2.3594,2.3091,2.3091,2.3091,2.3091,2.3091,2.3091,2.3091,2.3091,2.3091,2.3091,2.3091,2.3091,2.3091,2.3091,2.3091,2.3091,2.3091,2.3091,2.3003,2.2715,2.2314,2.1894,2.1455,2.1016,2.0713,2.0615,2.0605,2.0488,2.0107,1.9971,1.9742,1.9271,1.9761,1.981,1.8836,1.9846,2.0687,2.0846,2.1074,2.1512,2.2264,2.1493,2.0993,2.088,2.0314,1.9987,1.9987,1.9861,1.9798,1.9798,1.9798,1.9798,1.9798,1.9798,1.9798,1.5784,1.5784,1.5784,1.5784,1.5418,1.5115,1.541,0.0,0.0,1.2102,1.1138,1.0414,1.0741,1.0735,1.1252,0.0,0.0,1.3794,0.0,0.0,0.0,0.0,0.0,0.0,2.1149,2.2686,2.3654,2.3766,2.5215,2.6653,2.8014,2.8237,2.8291,2.8291,2.8291,2.8291,2.8291,2.7881,2.7441,2.7012,2.6592,2.6162,2.5693,2.5693,2.5693,2.5693,2.5693,2.5693,2.5693,2.5693,2.5693,2.5684,2.5645,2.5109,2.4414,2.4375,2.3793,2.3091,2.3091,2.3091,2.3091,2.3091,2.3091,2.3091,2.3091,2.3091,2.3091,2.3091,2.3091,2.3091,2.3091,2.3091,2.3091,2.3091,2.3091,2.3081,2.3042,2.2711,2.2324,2.1904,2.1475,2.1045,2.0674,2.0605,2.0595,2.0546,2.0166,2.021,2.1032,2.1112,2.1086,2.1097,2.0794,2.091,2.1721,2.1799,2.194,2.2289,2.2221,2.1933,2.1458,2.0905,2.0616,2.0616,2.0075,1.9798,1.9798,1.9798,1.9798,1.9798,1.9798,1.9798,1.5866,1.5784,1.5784,1.5784,1.5647,1.5547,1.5584,0.0,1.3405,1.2326,1.1609,1.0999,1.0315,1.0652,1.1293,1.2095,1.2375,1.3137,1.4964,0.0,0.0,0.0,0.0,0.0,0.0,0.0,2.3207,2.5041,2.6608,2.7672,2.8291,2.8291,2.8291,2.8291,2.8291,2.8291,2.8291,2.8125,2.7695,2.7012,2.6846,2.6406,2.5693,2.5693,2.5693,2.5693,2.5693,2.5693,2.5693,2.5693,2.5693,2.5693,2.5693,2.5148,2.4414,2.4414,2.3832,2.3091,2.3091,2.3091,2.3091,2.3091,2.3091,2.3091,2.3091,2.3091,2.3091,2.3091,2.3091,2.3091,2.3091,2.3091,2.3091,2.3091,2.3091,2.3091,2.3091,2.2769,2.2383,2.1963,2.1533,2.1243,2.1418,2.1441,2.1631,2.2264,2.1665,2.1447,2.2186,2.2194,2.2105,2.219,2.1699,2.1522,2.1877,2.1908,2.2133,2.2735,2.2498,2.2209,2.1995,2.1455,2.1182,2.1182,2.0629,2.0352,2.0352,1.9974,1.9798,1.9798,1.9798,1.9798,1.6461,1.6427,1.6339,1.6339,1.64,1.6297,0.0,1.5049,1.4101,1.2688,1.207,1.154,1.0692,1.1056,1.1559,1.1772,1.2314,1.3308,1.4963,1.5127,0.0,0.0,0.0,1.8914,0.0,2.1861,2.3031,2.649,2.733,2.7843,2.8291,2.8291,2.8291,2.8291,2.8291,2.8291,2.8291,2.8037,2.7617,2.7012,2.6758,2.6269,2.5693,2.5693,2.5693,2.5693,2.5693,2.5693,2.5693,2.5693,2.5693,2.5693,2.5693,2.5148,2.4414,2.4414,2.3832,2.3091,2.3091,2.3091,2.3091,2.3091,2.3091,2.3091,2.3091,2.3091,2.3091,2.3091,2.3091,2.3091,2.3091,2.3091,2.3091,2.3091,2.3091,2.3091,2.3091,2.2867,2.2539,2.1992,2.1866,2.1878,2.1991,2.2253,2.2702,2.3404,2.2888,2.2694,2.3424,2.3313,2.3202,2.332,2.2849,2.2442,2.2273,2.2249,2.2506,2.3078,2.2744,2.2531,2.2531,2.202,2.1732,2.1732,2.1219,2.0943,2.093,2.0501,2.0213,2.0062,2.0062,1.9962,1.773,1.7942,1.7692,1.7692,1.7728,1.7392,0.0,1.5049,1.4223,1.3275,1.2408,1.195,1.2382,1.2152,1.2077,1.269,1.3754,1.4724,1.5418,1.602,0.0,0.0,0.0,1.7561,1.8465,2.0386,2.3479,2.796,2.6943,0.0,2.8237,2.8291,2.8291,2.8291,2.8291,2.8291,2.8291,2.7451,2.7021,2.7002,2.6103,2.5693,2.5693,2.5693,2.5693,2.5693,2.5693,2.5693,2.5693,2.5693,2.5693,2.5693,2.5693,2.5148,2.4414,2.4414,2.3832,2.3091,2.3091,2.3091,2.3091,2.3091,2.3091,2.3091,2.3091,2.3091,2.3091,2.3091,2.3091,2.3091,2.3091,2.3091,2.3091,2.3091,2.3091,2.3091,2.3091,2.3091,2.2838,2.2051,2.2635,2.3029,2.2147,2.2813,2.3478,2.3514,2.3478,2.3854,2.485,2.4518,2.4348,2.4741,2.4286,2.3722,2.3128,2.3078,2.3078,2.3108,2.3095,2.3095,2.3095,2.2569,2.2297,2.2297,2.1757,2.1481,2.1481,2.1509,2.1219,2.0679,2.0679,2.0377,1.6363,1.6586,1.668,1.6355,1.6485,1.6493,1.5716,1.5087,1.4401,1.3332,1.2798,1.2376,1.1782,1.2395,1.323,1.3987,1.4857,0.0,0.0,0.0,0.0,2.1065,2.3377,2.4508,0.0,0.0,2.678,2.8184,2.7843,2.7789,2.8291,2.8291,2.8291,2.8291,2.8291,2.8154,2.7861,2.7598,2.7168,2.6582,2.6309,2.6025,2.5693,2.5693,2.5693,2.5693,2.5693,2.5693,2.5693,2.5693,2.5693,2.5693,2.5693,2.5148,2.4414,2.4414,2.3832,2.3091,2.3091,2.3091,2.3091,2.3091,2.3091,2.3091,2.3091,2.3091,2.3091,2.3091,2.3091,2.3091,2.3091,2.3091,2.3091,2.3091,2.3091,2.3091,2.3091,2.3091,2.2847,2.2051,2.2646,2.3227,2.3051,2.3854,2.4743,2.5464,2.4957,2.4886,2.5908,2.5296,2.4912,2.5298,2.4883,2.4148,2.3183,2.3108,2.3108,2.3108,2.3108,2.3108,2.3108,2.2945,2.2844,2.2844,2.2305,2.2046,2.2046,2.1669,2.1393,2.1257,2.1257,2.1129,0.0,1.6509,1.6679,1.6378,1.6612,1.6613,1.5506,1.5022,1.4499,1.3471,1.3071,1.2704,1.2038,1.2905,1.3788,1.4003,1.5239,1.6542,0.0,0.0,0.0,2.1904,0.0,0.0,0.0,2.6819,2.7726,2.8237,2.8291,2.8291,2.8291,2.8144,2.8057,2.8057,2.8057,2.793,2.7718,2.7344,2.6914,2.6387,2.6221,2.5996,2.5693,2.5693,2.5693,2.5693,2.5693,2.5693,0.0,2.5693,2.5693,2.5674,2.5557,2.5049,2.4394,2.4238,2.374,2.3091,2.3091,2.3091,2.3091,2.3091,2.3091,2.3091,2.3091,2.3091,2.3091,2.3091,2.3091,2.3091,2.3091,2.3091,2.3091,2.3091,2.3091,2.3091,2.3091,2.3091,2.2896,2.2256,2.3073,2.3831,2.3791,2.4765,2.5769,2.6418,2.599,2.5804,2.6418,2.5943,2.5583,2.5582,2.531,2.4713,2.381,2.3346,2.3108,2.3108,2.3108,2.3108,2.3108,2.3108,2.3108,2.3108,2.2769,2.2594,2.2594,2.2071,2.1794,2.1794,2.1581,2.1493,0.0,1.721,0.0,1.7268,1.75,1.7211,1.5289,1.4777,0.0,1.3672,1.3174,1.2935,1.3023,1.3633,1.393,1.3377,1.5309,1.7202,0.0,1.9051,0.0,0.0,2.2663,0.0,2.5267,2.5943,2.6825,2.8184,2.8262,2.8252,2.8252,2.7851,2.7669,2.7669,2.764,2.763,2.763,2.6787,2.6367,2.6338,2.5937,2.5693,2.5693,2.5693,2.5693,2.5693,2.5693,2.5693,2.5693,2.5693,2.5693,2.5645,2.5283,2.4834,2.4365,2.3975,2.3545,2.3091,2.3091,2.3091,2.3091,2.3091,2.3091,2.3091,2.3091,2.3091,2.3091,2.3091,2.3091,2.3091,2.3091,2.3091,2.3091,2.3091,2.3178,2.3222,2.3222,2.3256,2.3225,2.2791,2.3962,2.4831,2.4392,2.5553,2.6537,2.6499,2.6499,2.6499,2.6499,2.6499,2.6285,2.5711,2.5624,2.5398,2.4888,2.3847,2.3208,2.317,2.3158,2.3145,2.3108,2.3108,2.3108,2.3108,2.3108,2.3108,2.3108,2.2594,2.2372,2.233,2.1845,2.1606,1.4277,0.0,1.5363,1.4971,1.4955,1.4877,0.0,1.4032,1.375,1.3545,0.0,1.3208,1.4187,1.4202,1.4798,1.6937,1.8065,1.8902,1.9466,0.0,0.0,2.5428,2.6206,2.6812,2.7516,2.7718,2.795,2.8291,2.7998,2.7812,2.7812,2.7402,2.7168,2.7168,2.6855,2.6689,2.6689,2.6484,2.6221,2.584,2.5732,2.5693,2.5693,2.5693,2.5693,2.5693,2.5693,2.5693,2.5693,2.5693,2.5693,2.5674,2.5625,2.5098,2.4404,2.4307,2.3789,2.3091,2.3091,2.3091,2.3091,2.3091,2.3091,2.3091,2.3091,2.3091,2.3091,2.3091,2.3091,2.3091,2.3091,2.3091,2.3091,2.3091,2.3757,2.4414,2.4414,2.5094,2.5583,2.5104,2.595,2.6441,2.5564,2.637,2.6977,2.6562,2.6499,2.6499,2.6499,2.6499,2.6449,2.6298,2.5862,2.5548,2.5423,2.4775,2.4211,2.3816,2.3791,2.359,2.312,2.3108,2.3108,2.3108,2.3108,2.3108,2.3108,2.297,2.2907,2.2907,2.2782,2.2719,1.3223,1.4131,1.5019,1.4747,1.4689,1.464,1.4445,0.0,0.0,0.0,0.0,0.0,1.4326,1.4775,1.5684,1.7734,1.875,0.0,0.0,0.0,2.4196,2.6703,2.7402,2.7885,0.0,2.8115,2.8008,2.8008,2.7607,2.7373,2.7373,2.6963,2.6728,2.6728,2.6309,2.6182,2.6387,2.6191,2.5967,2.5693,2.5693,2.5693,2.5693,2.5693,2.5693,2.5693,2.5693,2.5693,2.5693,2.5693,2.5693,2.5645,2.5245,2.4834,2.4365,2.3929,2.3491,2.3091,2.3091,2.3091,2.3091,2.3091,2.3091,2.3091,2.3091,2.3091,2.3091,2.3091,2.3091,2.3091,2.3091,2.3091,2.3091,2.3091,2.3963,2.4787,2.4787,2.5714,2.6435,2.6165,2.6769,2.7133,2.6588,2.6956,2.718,2.6914,2.6663,2.6499,2.6499,2.6499,2.6499,2.6499,2.6223,2.6021,2.6021,2.5737,2.5234,2.4431,2.4381,2.4117,2.3521,2.3496,2.3371,2.3108,2.3108,2.3108,2.3108,2.3108,2.3108,2.3108,2.3108,2.3108,1.314,1.4316,1.5449,1.5186,1.5225,1.5205,1.4785,0.0,0.0,0.0,0.0,0.0,0.0,1.5527,0.0,0.0,0.0,0.0,2.3061,2.3485,2.4382,2.6616,2.7246,0.0,2.8057,2.7773,2.7568,2.7568,2.7168,2.6914,2.6914,2.6514,2.6289,2.6289,2.5937,2.5869,2.6289,2.5918,2.5693,2.5693,2.5693,2.5693,2.5693,2.5693,2.5693,2.5693,2.5693,2.5693,2.5693,2.5693,2.5645,2.5566,2.4814,2.4434,2.4228,2.3461,2.3149,2.3091,2.3091,2.3091,2.3091,2.3091,2.3091,2.3091,2.3091,2.3091,2.3091,2.3091,2.3091,2.3091,2.3091,2.3091,2.3091,2.3091,2.4092,2.5041,2.5041,2.6088,2.7017,2.7017,2.7383,2.7651,2.7567,2.7496,2.7381,2.7293,2.6851,2.6499,2.6499,2.6499,2.6499,2.6499,2.6499,2.6499,2.6499,2.6499,2.6097,2.5134,2.4983,2.4625,2.4029,2.4004,2.3728,2.3108,2.3108,2.3108,2.3108,2.3108,2.3108,2.3108,2.3108,2.3108,1.4226,1.5244,1.5645,1.416,1.4346,1.4766,1.4309,0.0,0.0,0.0,0.0,0.0,0.0,1.7051,1.7856,0.0,0.0,2.2539,0.0,0.0,2.5218,2.6367,0.0,2.6748,2.7168,2.7158,2.7119,2.7119,2.6728,2.6484,2.6484,2.6074,2.5791,2.5791,2.5723,2.5713,2.5791,2.5723,2.5693,2.5693,2.5693,2.5693,2.5693,2.5693,2.5693,2.5693,2.5693,2.5693,2.5693,2.5693,2.5518,2.5156,2.5019,2.4521,2.3867,2.374,2.3457,2.3091,2.3091,2.3091,2.3091,2.3091,2.3091,2.3091,2.3091,2.3091,2.3091,2.3091,2.3091,2.3091,2.3091,2.3091,2.3091,2.3091,2.4723,2.6224,2.6224,2.7839,2.9287,2.9287,2.9342,2.926,2.8736,2.8287,2.7821,2.7356,2.6851,2.6499,2.6499,2.6499,2.6499,2.6499,2.6499,2.6499,2.6499,2.6499,2.6424,2.6248,2.5749,2.5034,2.4042,2.4004,2.3728,2.3108,2.3108,2.3108,2.3108,2.3108,2.3108,2.3108,2.3108,2.3108,1.3619,1.4568,1.5263,1.4678,1.5537,1.6416,1.5986,1.5683,0.0,0.0,0.0,0.0,0.0,0.0,1.9453,2.1611,0.0,2.283,2.4526,2.4402,2.4697,0.0,0.0,2.6553,2.6973,2.6807,2.668,2.668,2.6279,2.6035,2.6035,2.5801,2.5693,2.5693,2.5693,2.5693,2.5693,2.5693,2.5693,2.5693,2.5693,2.5693,2.5693,2.5693,2.5693,2.5693,2.5693,2.5693,2.5693,2.5693,2.5478,2.5086,2.4805,2.4336,2.376,2.3525,2.331,2.3091,2.3091,2.3091,2.3091,2.3091,2.3091,2.3091,2.3091,2.3091,2.3091,2.3091,2.3091,2.3091,2.3091,2.3091,2.3266,2.3877,2.5305,2.6637,2.725,2.8661,2.9792,2.9792,2.9792,2.9704,2.944,2.8925,2.836,2.7808,2.7291,2.6839,2.6537,2.6499,2.6499,2.6499,2.6499,2.6499,2.6499,2.6499,2.6499,2.6499,2.5912,2.5372,2.4883,2.4594,2.418,2.3615,2.3602,2.3421,2.3108,2.3108,2.3108,2.3108,2.3108,2.3108,1.3389,1.4189,1.5059,1.5586,0.0,1.7578,1.7656,1.7266,1.6941,0.0,0.0,0.0,0.0,1.9658,0.0,2.2945,2.287,2.3158,2.4857,2.4373,2.4433,2.6053,2.624,2.6357,2.6689,2.6426,2.624,2.624,2.5879,2.5693,2.5693,2.5693,2.5693,2.5693,2.5693,2.5693,2.5693,2.5693,2.5693,2.5693,2.5693,2.5693,2.5693,2.5693,2.5693,2.5693,2.5693,2.5625,2.5586,2.5586,2.5264,2.4783,2.4394,2.4014,2.3594,2.3218,2.3091,2.3091,2.3091,2.3091,2.3091,2.3091,2.3091,2.3091,2.3091,2.3091,2.3091,2.3091,2.3299,2.343,2.3178,2.3517,2.4059,2.467,2.587,2.7087,2.7924,2.8988,2.9792,2.9792,2.9792,2.9792,2.9792,2.9315,2.875,2.836,2.7821,2.7268,2.6763,2.6688,2.6637,2.6512,2.6499,2.6499,2.6499,2.6499,2.6499,2.6499,2.6084,2.5737,2.5598,2.5222,2.4745,2.4205,2.4067,2.3778,2.3308,2.317,2.3108,2.3108,2.3108,2.3108,1.4912,1.5293,1.5576,1.6395,1.6416,1.6643,1.8159,1.792,0.0,1.8857,0.0,0.0,0.0,2.1445,2.2637,2.3584,2.4001,2.4438,2.5,2.5324,2.5557,2.5723,2.5732,2.5742,2.5771,2.5752,2.5732,2.5732,2.5703,2.5693,2.5693,2.5693,2.5693,2.5693,2.5693,2.5693,2.5693,2.5693,2.5693,2.5693,2.5693,2.5693,2.5693,2.5693,2.5693,2.5693,2.5693,2.5508,2.5117,2.5117,2.4629,2.3877,2.3848,2.3574,2.314,2.311,2.3091,2.3091,2.3091,2.3091,2.3091,2.3091,2.3091,2.3091,2.3091,2.3091,2.3091,2.3091,2.3877,2.4414,2.3387,2.4681,2.6016,2.5041,2.6438,2.8016,2.8084,2.8988,2.9792,2.9792,2.9792,2.9792,2.9792,2.9315,2.8875,2.8838,2.8398,2.7846,2.7329,2.7218,2.7065,2.6549,2.6499,2.6499,2.6499,2.6499,2.6499,2.6499,2.6449,2.6185,2.5624,2.5561,2.5297,2.4738,2.4255,2.3979,2.3941,2.3358,2.3108,2.3108,2.3108,2.3108,1.3711,1.4805,1.5957,1.6551,1.7174,0.0,0.0,1.9424,1.999,2.0752,2.1035,0.0,0.0,0.0,2.2881,2.3994,2.4316,2.4668,2.5381,2.5586,2.5693,2.5693,2.5693,2.5693,2.5693,2.5693,2.5693,2.5693,2.5693,2.5693,2.5693,2.5693,2.5693,2.5693,2.5693,2.5693,2.5693,2.5693,2.5693,2.5693,2.5693,2.5693,2.5693,2.5693,2.5693,2.5674,2.5439,2.5225,2.5096,2.4775,2.4316,2.376,2.3496,2.3247,2.3091,2.3091,2.3091,2.3091,2.3091,2.3091,2.3091,2.3091,2.3091,2.3091,2.3091,2.3091,2.3266,2.3963,2.4967,2.5588,2.4467,2.5305,2.6554,2.6819,2.751,2.8295,2.9015,2.9495,2.9792,2.9792,2.9792,2.9792,2.9792,2.9616,2.934,2.895,2.8712,2.8411,2.7871,2.7795,2.7582,2.7065,2.67,2.6499,2.6499,2.6499,2.6499,2.6499,2.6499,2.6399,2.6172,2.6172,2.5908,2.531,2.5096,2.4833,2.4506,2.4261,2.3973,2.3665,2.3665,2.3446,1.3512,1.4666,1.6065,1.6758,0.0,0.0,1.9707,2.0478,2.1299,2.2285,2.249,2.2578,2.2861,0.0,0.0,0.0,2.4531,2.4883,2.5586,2.5693,2.5693,2.5693,2.5693,2.5693,2.5693,2.5693,2.5693,2.5693,2.5693,2.5693,2.5693,2.5693,2.5693,2.5693,2.5693,2.5693,2.5693,2.5693,2.5693,2.5693,2.5693,2.5693,2.5693,2.5693,2.5615,2.5508,2.5205,2.4959,2.4639,2.4336,2.3965,2.3555,2.3218,2.3091,2.3091,2.3091,2.3091,2.3091,2.3091,2.3091,2.3091,2.3091,2.3091,2.3091,2.3091,2.3091,2.3266,2.4039,2.5336,2.6307,2.5546,2.6419,2.7626,2.8016,2.8386,2.8846,2.9624,2.9792,2.9792,2.9792,2.9792,2.9792,2.9792,2.9792,2.9654,2.9264,2.9164,2.9001,2.8436,2.836,2.8084,2.7392,2.6826,2.6499,2.6499,2.6499,2.6499,2.6499,2.6499,2.6499,2.6499,2.6499,2.6311,2.5908,2.5686,2.5423,2.5059,2.4863,2.4619,2.4255,2.4255,2.3954,1.4803,1.5088,1.5742,1.7061,0.0,0.0,2.081,2.0908,2.1241,2.335,2.3799,2.3799,2.3799,2.3799,0.0,2.4355,2.4785,2.5225,2.5625,2.5693,2.5693,2.5693,2.5693,2.5693,2.5693,2.5693,2.5693,2.5693,2.5693,2.5693,2.5693,2.5693,2.5693,2.5693,2.5693,2.5693,2.5693,2.5693,2.5693,2.5684,2.5684,2.5684,2.5693,2.5684,2.5488,2.5116,2.5106,2.4617,2.3789,2.3789,2.3525,2.3091,2.3091,2.3091,2.3091,2.3091,2.3091,2.3091,2.3091,2.3091,2.3091,2.3091,2.3091,2.3091,2.3091,2.3091,2.3101,2.3135,2.4766,2.6524,2.6524,2.8171,2.9534,2.8386,2.8976,2.9792,2.9792,2.9792,2.9792,2.9792,2.9792,2.9792,2.9792,2.9792,2.9792,2.9792,2.9792,2.9578,2.8976,2.8888,2.8511,2.7406,2.6839,2.6499,2.6499,2.6499,2.6499,2.6499,2.6499,2.6499,2.6499,2.6499,2.6499,2.6499,2.59,2.5598,2.5598,2.5096,2.48,2.48,2.48,2.4531,1.3965,1.5059,0.0,1.7578,0.0,0.0,0.0,2.2256,0.0,0.0,2.4228,2.4228,2.4228,2.4228,2.4375,2.4805,2.5028,2.5225,2.5625,2.5693,2.5693,2.5693,2.5693,2.5693,2.5693,2.5693,2.5693,2.5693,2.5693,2.5693,2.5693,2.5693,2.5693,2.5693,2.5693,2.5693,2.5693,2.5693,2.5586,2.5273,2.5273,2.543,2.5674,2.541,2.5195,2.5086,2.4434,2.4023,2.3769,2.3457,2.3218,2.3091,2.3091,2.3091,2.3091,2.3091,2.3091,2.3091,2.3091,2.3091,2.3091,2.3091,2.3091,2.3256,2.4049,2.3757,2.3594,2.5942,2.6543,2.6853,2.8422,2.93,2.9702,2.9365,2.9534,2.9792,2.9792,2.9792,2.9792,2.9792,2.9792,2.9792,2.9792,2.9792,2.9792,2.9792,2.9792,2.9729,2.9566,2.9176,2.8612,2.7946,2.7369,2.6914,2.6524,2.6499,2.6499,2.6499,2.6499,2.6499,2.6499,2.6499,2.6499,2.6499,2.6323,2.6235,2.6235,2.6084,2.5762,2.536,2.536,2.5084,1.4971,1.624,0.0,1.8948,2.0235,2.1551,2.2959,0.0,0.0,0.0,2.4678,2.4678,2.4678,2.4678,2.4756,2.5077,2.5215,2.543,2.5654,2.5693,2.5693,2.5693,2.5693,2.5693,2.5693,2.5693,2.5693,2.5693,2.5693,2.5693,2.5693,2.5566,2.5469,2.5469,2.5303,2.5167,2.5167,2.5167,2.5078,2.4805,2.4805,2.4951,2.5157,2.4932,2.4717,2.4521,2.3828,2.3525,2.3516,2.3198,2.3091,2.3091,2.3091,2.3091,2.3091,2.3091,2.3091,2.3091,2.3091,2.3387,2.38,2.38,2.4102,2.4563,2.5263,2.501,2.4893,2.6912,2.7331,2.7452,2.8779,2.9456,2.9792,2.9792,2.9792,2.9792,2.9792,2.9792,2.9792,2.9792,2.9792,2.9792,2.9792,2.9792,2.9792,2.9792,2.9792,2.9792,2.9792,2.9289,2.8762,2.8461,2.7946,2.7394,2.6864,2.6826,2.6725,2.6512,2.6499,2.6499,2.6499,2.6499,2.6499,2.6499,2.6499,2.6499,2.6499,2.6499,2.6311,2.5971,2.6281,2.6153,1.6875,1.7881,0.0,2.0703,2.1249,0.0,2.3906,2.4385,2.4551,2.5029,0.0,2.5127,2.5127,2.5127,2.5127,2.5127,2.5469,2.5693,2.5693,2.5693,2.5693,2.5693,2.5693,2.5693,2.5693,2.5693,2.5693,2.5693,2.5693,2.5674,2.5625,2.5293,2.5096,2.5057,2.4619,2.4414,2.4414,2.4414,2.4394,2.4365,2.4365,2.4336,2.4297,2.4346,2.4131,2.3711,2.331,2.3091,2.3091,2.3091,2.3091,2.3091,2.3091,2.3091,2.3091,2.3091,2.3091,2.3091,2.3222,2.392,2.483,2.4914,2.5683,2.6524,2.6637,2.6595,2.6565,2.673,2.7452,2.8124,2.8215,2.9028,2.9792,2.9792,2.9792,2.9792,2.9792,2.9792,2.9792,2.9792,2.9792,2.9792,2.9792,2.9792,2.9792,2.9792,2.9792,2.9792,2.9792,2.934,2.895,2.89,2.8473,2.7934,2.7331,2.7281,2.7077,2.6524,2.6499,2.6499,2.6499,2.6499,2.6499,2.6499,2.6499,2.6499,2.6499,2.6499,2.6499,2.6521,2.7317,2.7446,1.5762,1.6963,0.0,0.0,2.1728,2.2896,2.374,2.418,2.4639,2.543,2.5596,2.5596,2.5596,2.5596,2.5596,2.5596,2.5625,2.5693,2.5693,2.5693,2.5693,2.5693,2.5693,2.5693,2.5693,2.5693,2.5693,2.5693,2.5693,2.5586,2.5234,2.5165,2.4912,2.456,2.4463,2.4414,2.4414,2.4414,2.4248,2.3926,2.3926,2.374,2.3383,2.3769,2.3682,2.3227,2.314,2.3091,2.3091,2.3091,2.3091,2.3091,2.3091,2.3091,2.3091,2.3091,2.3091,2.3222,2.4125,2.4575,2.4957,2.5839,2.6307,2.6637,2.7481,2.7168,2.6853,2.8593,2.8609,2.8307,2.9197,2.9624,2.9792,2.9792,2.9792,2.9792,2.9792,2.9792,2.9792,2.9792,2.9792,2.9792,2.9792,2.9792,2.9792,2.9792,2.9792,2.9792,2.9792,2.9679,2.9428,2.8938,2.8787,2.8348,2.7369,2.7281,2.7077,2.6524,2.6499,2.6499,2.6499,2.6499,2.6499,2.6499,2.6499,2.6499,2.6499,2.6499,2.6499,2.6521,2.7317,2.7637,1.6377,0.0,0.0,2.1318,0.0,2.3208,2.3691,2.3965,2.4307,2.4923,2.5391,2.5693,2.5693,2.5693,2.5693,2.5693,2.5693,2.5693,2.5693,2.5693,2.5693,2.5693,2.5693,2.5693,2.5693,2.5693,2.5596,2.543,2.542,2.5225,2.4775,2.456,2.4355,2.4121,2.3916,2.3764,2.3764,2.3764,2.3647,2.3477,2.3477,2.3359,2.3101,2.3335,2.3305,2.3091,2.3091,2.3091,2.3091,2.3091,2.3091,2.3091,2.3091,2.3091,2.3091,2.3091,2.3091,2.3256,2.4414,2.5168,2.5797,2.6912,2.7626,2.8171,2.874,2.853,2.8343,2.9468,2.9365,2.9067,2.9663,2.9792,2.9792,2.9792,2.9792,2.9792,2.9792,2.9792,2.9792,2.9792,2.9792,2.9792,2.9792,2.9792,2.9792,2.9792,2.9792,2.9792,2.9792,2.9792,2.9679,2.9377,2.934,2.9001,2.8147,2.8072,2.772,2.6939,2.6889,2.6763,2.6499,2.6499,2.6499,2.6499,2.6499,2.6679,2.7061,2.7061,2.7284,2.7736,2.8556,2.8939,1.6943,0.0,2.042,2.2467,2.3042,0.0,2.3594,2.374,2.3887,2.4238,2.4951,2.546,2.546,2.546,2.546,2.546,2.5528,2.5625,2.5625,2.5625,2.5625,2.5625,2.5508,2.546,2.546,2.546,2.5361,2.498,2.4998,2.4766,2.4336,2.3975,2.375,2.3682,2.3286,2.3091,2.3091,2.3091,2.3091,2.3091,2.3091,2.3091,2.3091,2.3091,2.3091,2.3091,2.3091,2.3091,2.3091,2.3091,2.3091,2.3091,2.3091,2.3091,2.3091,2.3091,2.3222,2.3551,2.4713,2.5839,2.6964,2.8016,2.9028,2.9792,2.9792,2.9792,2.9792,2.9792,2.9792,2.9792,2.9792,2.9792,2.9792,2.9792,2.9792,2.9792,2.9792,2.9792,2.9792,2.9792,2.9792,2.9792,2.9792,2.9792,2.9792,2.9792,2.9792,2.9792,2.9792,2.9792,2.9792,2.9792,2.9792,2.9566,2.8938,2.8888,2.8461,2.7494,2.7331,2.7173,2.6878,2.6764,2.6714,2.6714,2.6714,2.704,2.7703,2.7855,2.8298,2.9034,2.9889,3.0299,0.0,0.0,2.0342,0.0,2.2828,2.311,0.0,0.0,2.3809,0.0,2.4258,2.459,2.459,2.459,2.459,2.459,2.4912,2.5156,2.5156,2.5156,2.5156,2.5156,2.4824,2.459,2.459,2.459,2.457,2.4502,2.4502,2.4316,2.3896,2.3818,2.3613,2.3198,2.312,2.3091,2.3091,2.3091,2.3091,2.3091,2.3091,2.3091,2.3091,2.3091,2.3091,2.3091,2.3091,2.3091,2.3091,2.3091,2.3091,2.3091,2.3091,2.3091,2.3091,2.3091,2.3714,2.4755,2.5891,2.6994,2.8056,2.9197,2.9663,2.9792,2.9792,2.9792,2.9792,2.9792,2.9792,2.9792,2.9792,2.9792,2.9792,2.9792,2.9792,2.9792,2.9792,2.9792,2.9792,2.9792,2.9792,2.9792,2.9792,2.9792,2.9792,2.9792,2.9792,2.9792,2.9792,2.9792,2.9792,2.9792,2.9792,2.9566,2.8938,2.8888,2.8624,2.8034,2.7544,2.757,2.8224,2.7799,2.7537,2.7537,2.7537,2.7571,2.7703,2.846,2.8907,2.9034,2.9889,3.0299,1.6084,1.8047,2.0039,0.0,2.2646,2.2808,2.3042,0.0,2.3428,2.3428,2.3574,2.3803,2.4326,2.4414,2.4414,2.4414,2.458,2.4697,2.4697,2.4697,2.4697,2.4697,2.4531,2.4414,2.4414,2.4414,2.4316,2.4082,2.4062,2.3877,2.3447,2.3428,2.3296,2.3101,2.3091,2.3091,2.3091,2.3091,2.3091,2.3091,2.3091,2.3091,2.3091,2.3091,2.3091,2.3091,2.3091,2.3091,2.3091,2.3091,2.3091,2.3091,2.3091,2.3091,2.3091,2.3091,2.343,2.4092,2.5891,2.6801,2.7493,2.9248,2.9792,2.9792,2.9792,2.9792,2.9792,2.9792,2.9792,2.9792,2.9792,2.9792,2.9792,2.9792,2.9792,2.9792,2.9792,2.9792,2.9792,2.9792,2.9792,2.9792,2.9792,2.9792,2.9792,2.9792,2.9792,2.9792,2.9792,2.9792,2.9792,2.9792,2.9792,2.9691,2.944,2.9415,2.9164,2.8562,2.8871,2.8872,2.8512,2.8818,2.8798,2.8441,2.8427,2.8427,2.8427,2.9286,2.995,3.0419,3.0807,3.097,0.0,0.0,1.8984,2.1152,2.1943,2.2324,0.0,0.0,2.3091,0.0,2.3091,2.3296,2.3929,2.4092,2.4092,2.4092,2.4189,2.4258,2.4258,2.4258,2.4258,2.4258,2.416,2.4092,2.4092,2.4092,2.3965,2.3643,2.3623,2.3486,2.311,2.3091,2.3091,2.3091,2.3091,2.3091,2.3091,2.3091,2.3091,2.3091,2.3091,2.3091,2.3091,2.3091,2.3091,2.3091,2.3091,2.3091,2.3091,2.3091,2.3091,2.3091,2.3091,2.3091,2.3091,2.3091,2.3256,2.38,2.5808,2.6678,2.7209,2.917,2.9792,2.9792,2.9792,2.9792,2.9792,2.9792,2.9792,2.9792,2.9792,2.9792,2.9792,2.9792,2.9792,2.9792,2.9792,2.9792,2.9792,2.9792,2.9792,2.9792,2.9792,2.9792,2.9792,2.9792,2.9792,2.9792,2.9792,2.9792,2.9792,2.9792,2.9792,2.9792,2.9792,2.9792,2.9616,2.9176,2.9943,3.006,2.9339,2.994,3.0065,2.9572,2.962,2.9535,2.9317,3.0208,3.0896,3.1511,3.1511,3.1511,0.0,1.5606,0.0,1.8916,2.0391,0.0,0.0,0.0,2.3091,2.3091,2.3091,2.311,2.3149,2.3159,2.3159,2.3159,2.3555,2.3828,2.3828,2.3828,2.3828,2.3828,2.3457,2.3159,2.3159,2.3159,2.3149,2.313,2.313,2.312,2.3091,2.3091,2.3091,2.3091,2.3091,2.3091,2.3091,2.3091,2.3091,2.3091,2.3091,2.3091,2.3091,2.3091,2.3091,2.3091,2.3091,2.3091,2.3091,2.3091,2.3091,2.3091,2.3091,2.3091,2.3091,2.3091,2.38,2.4872,2.6099,2.7168,2.8215,2.9404,2.9792,2.9792,2.9792,2.9792,2.9792,2.9792,2.9792,2.9792,2.9792,2.9792,2.9792,2.9792,2.9792,2.9792,2.9792,2.9792,2.9792,2.9792,2.9792,2.9792,2.9792,2.9792,2.9792,2.9792,2.9792,2.9792,2.9792,2.9792,2.9792,2.9792,2.9792,2.9792,2.9792,2.9792,2.9779,2.9754,3.0177,3.0704,3.1405,3.1235,3.1101,3.1073,3.1264,3.0999,3.0238,3.1029,3.1467,3.1511,3.1511,3.1511,0.0,0.0,0.0,1.793,1.9228,2.0205,2.1064,2.2021,2.2691,2.2691,2.2906,2.3091,2.3091,2.3091,2.3091,2.3091,2.3227,2.3369,2.3369,2.3369,2.3369,2.3369,2.3188,2.3091,2.3091,2.3091,2.3091,2.3091,2.3091,2.3091,2.3091,2.3091,2.3091,2.3091,2.3091,2.3091,2.3091,2.3091,2.3091,2.3091,2.3091,2.3091,2.3091,2.3091,2.3091,2.3091,2.3091,2.3091,2.3091,2.3091,2.3091,2.3091,2.3091,2.3551,2.4168,2.4168,2.4925,2.6047,2.7157,2.7763,2.8307,2.9443,2.9792,2.9792,2.9792,2.9792,2.9792,2.9792,2.9792,2.9792,2.9792,2.9792,2.9792,2.9792,2.9792,2.9792,2.9792,2.9792,2.9792,2.9792,2.9792,2.9792,2.9792,2.9792,2.9792,2.9792,2.9792,2.9792,2.9792,2.9792,2.9792,2.9792,2.9792,3.0037,3.0658,3.0696,3.0945,3.1549,3.2307,3.2659,3.2585,3.2637,3.2461,3.2047,3.1678,3.1087,3.0299,3.1117,3.1511,3.1511,3.1511,3.1511,1.3942,0.0,0.0,0.0,0.0,1.8697,2.04,2.123,2.1807,2.2393,2.2691,2.2925,2.3071,2.3091,2.3091,2.3091,2.3091,2.3091,2.3091,2.3091,2.3091,2.3091,2.3091,2.3091,2.3091,2.3091,2.3091,2.3091,2.3091,2.3091,2.3091,2.3091,2.3091,2.3091,2.3091,2.3091,2.3091,2.3091,2.3091,2.3091,2.3091,2.3091,2.3091,2.3091,2.3091,2.3091,2.3091,2.3091,2.3091,2.3091,2.3091,2.3091,2.3091,2.38,2.4787,2.4787,2.5504,2.6637,2.7723,2.8096,2.8307,2.9443,2.9792,2.9792,2.9792,2.9792,2.9792,2.9792,2.9792,2.9792,2.9792,2.9792,2.9792,2.9792,2.9792,2.9792,2.9792,2.9792,2.9792,2.9792,2.9792,2.9792,2.9792,2.9792,2.9792,2.9792,2.9792,2.9792,2.9792,2.9792,2.9792,2.9792,3.0075,3.052,3.1143,3.1499,3.1924,3.2558,3.3484,3.3806,3.3418,3.3669,3.3514,3.2856,3.2168,3.1471,3.0703,3.1248,3.1511,3.1511,3.1511,3.1511,0.0,0.0,0.0,0.0,0.0,0.0,2.0274,0.0,2.0332,2.208,2.2441,2.2588,2.2994,2.3091,2.3091,2.3091,2.3091,2.3091,2.3091,2.3091,2.3091,2.3091,2.3091,2.3091,2.3091,2.3091,2.3091,2.3091,2.3091,2.3091,2.3091,2.3091,2.3091,2.3091,2.3091,2.3091,2.3091,2.3091,2.3091,2.3091,2.3091,2.3091,2.3091,2.3091,2.3091,2.3091,2.3091,2.3091,2.3091,2.3091,2.3091,2.3091,2.3091,2.38,2.483,2.483,2.5588,2.676,2.7775,2.8136,2.8347,2.9443,2.9792,2.9792,2.9792,2.9792,2.9792,2.9792,2.9792,2.9792,2.9792,2.9792,2.9792,2.9792,2.9792,2.9792,2.9792,2.9792,2.9792,2.9792,2.9792,2.9792,2.9792,2.9792,2.9792,2.9792,2.9792,2.9792,2.9792,2.9792,2.9792,2.9792,3.062,3.1217,3.1254,3.2105,3.2629,3.2664,3.3518,3.4027,3.4027,3.4336,3.4173,3.3529,3.2856,3.2168,3.1525,3.1511,3.1511,3.1511,3.1511,3.1511,1.2983,0.0,0.0,0.0,0.0,0.0,0.0,0.0,1.8564,2.0283,2.0889,2.1426,2.249,2.2886,2.3091,2.3091,2.3091,2.3091,2.3091,2.3091,2.3091,2.3091,2.3091,2.3091,2.3091,2.3091,2.3091,2.3091,2.3091,2.3091,2.3091,2.3091,2.3091,2.3091,2.3091,2.3091,2.3091,2.3091,2.3091,2.3091,2.3091,2.3091,2.3091,2.3091,2.3091,2.3091,2.3091,2.3091,2.3091,2.3091,2.3091,2.3091,2.3091,2.4307,2.6016,2.6016,2.7261,2.8922,2.9236,2.9326,2.9365,2.9714,2.9792,2.9792,2.9792,2.9792,2.9792,2.9792,2.9792,2.9792,2.9792,2.9792,2.9792,2.9792,2.9792,2.9792,2.9792,2.9792,2.9792,2.9792,2.9792,2.9792,2.9792,2.9792,2.9792,2.9792,2.9792,2.9792,2.9792,2.9792,2.9792,2.9792,3.062,3.1462,3.2141,3.3066,3.3925,3.4673,3.4953,3.51,3.51,3.4703,3.4414,3.4234,3.3095,3.2392,3.2213,3.1735,3.1511,3.1511,3.1511,3.1511,0.0,0.0,0.0,0.0,0.0,0.0,1.629,1.6582,1.7148,0.0,1.9853,2.043,2.1738,2.2136,2.2418,2.2779,2.2838,2.2896,2.3071,2.3091,2.3091,2.3091,2.3091,2.3091,2.3091,2.3091,2.3091,2.3091,2.3091,2.3091,2.3091,2.3091,2.3091,2.3091,2.3091,2.3091,2.3091,2.3091,2.3091,2.3091,2.3091,2.3091,2.3091,2.3091,2.3091,2.3091,2.3091,2.3091,2.3091,2.3091,2.3091,2.3091,2.3091,2.4478,2.6524,2.6524,2.7879,2.9792,2.9792,2.9792,2.9792,2.9792,2.9792,2.9792,2.9792,2.9792,2.9792,2.9792,2.9792,2.9792,2.9792,2.9792,2.9792,2.9792,2.9792,2.9792,2.9792,2.9792,2.9792,2.9792,2.9792,2.9792,2.9792,2.9792,2.9792,2.9792,2.9792,2.9792,2.9792,2.9792,2.9934,3.0343,3.1217,3.2177,3.3101,3.4075,3.4872,3.5472,3.5504,3.5504,3.5504,3.5115,3.4771,3.4518,3.3724,3.32,3.2916,3.1959,3.1511,3.1511,3.1511,3.1511,0.0,0.0,0.0,0.0,0.0,0.0,1.6553,1.6191,1.6064,0.0,1.8857,1.9268,2.0586,2.0917,2.1229,2.2031,2.2275,2.2549,2.3023,2.3091,2.3091,2.3091,2.3091,2.3091,2.3091,2.3091,2.3091,2.3091,2.3091,2.3091,2.3091,2.3091,2.3091,2.3091,2.3091,2.3091,2.3091,2.3091,2.3091,2.3091,2.3091,2.3091,2.3091,2.3091,2.3091,2.3091,2.3091,2.3178,2.3309,2.3309,2.3222,2.3091,2.3091,2.4478,2.6524,2.6524,2.7879,2.9792,2.9792,2.9792,2.9792,2.9792,2.9792,2.9792,2.9792,2.9792,2.9792,2.9792,2.9792,2.9792,2.9792,2.9792,2.9792,2.9792,2.9792,2.9792,2.9792,2.9792,2.9792,2.9792,2.9792,2.9792,2.9792,2.9792,2.9792,2.9792,2.9792,2.9792,2.9792,2.9792,3.0177,3.1106,3.2033,3.2996,3.391,3.4905,3.5504,3.5504,3.5504,3.5504,3.5504,3.5504,3.522,3.4638,3.4548,3.4189,3.3499,3.2288,3.169,3.1615,3.169,3.169,1.5938,0.0,0.0,0.0,0.0,0.0,1.502,1.5069,1.5527,0.0,1.6172,1.668,1.833,1.9199,1.9727,1.9893,2.0801,2.1834,2.2935,2.3091,2.3091,2.3091,2.3091,2.3091,2.3091,2.3091,2.3091,2.3091,2.3091,2.3091,2.3091,2.3091,2.3091,2.3091,2.3091,2.3091,2.3091,2.3091,2.3091,2.3091,2.3091,2.3091,2.3091,2.3091,2.3091,2.3091,2.3091,2.3637,2.4457,2.4457,2.392,2.3091,2.3091,2.4478,2.6524,2.6524,2.7879,2.9792,2.9792,2.9792,2.9792,2.9792,2.9792,2.9792,2.9792,2.9792,2.9792,2.9792,2.9792,2.9792,2.9792,2.9792,2.9792,2.9792,2.9792,2.9792,2.9792,2.9792,2.9792,2.9792,2.9792,2.9792,2.9792,2.9792,2.9792,2.9792,2.9792,2.9792,2.9792,2.9792,3.0177,3.1106,3.2033,3.2996,3.391,3.4905,3.5504,3.5504,3.5504,3.5504,3.5504,3.5504,3.5444,3.531,3.4756,3.4189,3.3499,3.3245,3.2841,3.2303,3.2871,3.2826,1.6995,0.0,0.0,1.6816,0.0,0.0,0.0,1.5235,1.5352,1.6221,1.5869,1.5937,1.7686,1.8008,1.8223,1.8857,1.9697,2.0557,2.1375,2.21,2.251,2.251,2.2705,2.2779,2.2779,2.2974,2.3091,2.3091,2.3091,2.3091,2.3091,2.3091,2.3091,2.3091,2.3091,2.3091,2.3091,2.3091,2.3091,2.3091,2.3091,2.3091,2.3091,2.3091,2.3091,2.3135,2.3714,2.4253,2.483,2.542,2.5305,2.4808,2.4808,2.5797,2.7279,2.7279,2.8371,2.9792,2.9792,2.9792,2.9792,2.9792,2.9792,2.9792,2.9792,2.9792,2.9792,2.9792,2.9792,2.9792,2.9792,2.9792,2.9792,2.9792,2.9792,2.9792,2.9792,2.9792,2.9792,2.9792,2.9792,2.9792,2.9792,2.9792,2.9792,2.9792,2.9792,2.9792,2.9792,2.9792,3.0355,3.1756,3.2321,3.3171,3.4624,3.5213,3.5504,3.5504,3.5504,3.5504,3.5504,3.5504,3.5504,3.5504,3.516,3.4831,3.4502,3.4502,3.3978,3.3021,3.3335,3.332,0.0,0.0,0.0,0.0,0.0,1.6858,0.0,0.0,0.0,1.6533,1.5908,0.0,0.0,0.0,0.0,1.7691,0.0,0.0,0.0,2.0303,0.0,2.1475,2.1953,2.2266,2.2266,2.2379,2.2574,2.2838,2.2691,2.2711,2.2955,2.3052,2.3091,2.3091,2.3091,2.3091,2.3091,2.3091,2.3091,2.3091,2.3091,2.3091,2.3091,2.3091,2.3091,2.3178,2.4296,2.4914,2.521,2.6337,2.6935,2.7098,2.6689,2.7168,2.8096,2.8096,2.8806,2.9792,2.9792,2.9792,2.9792,2.9792,2.9792,2.9792,2.9792,2.9792,2.9792,2.9792,2.9792,2.9792,2.9792,2.9792,2.9792,2.9792,2.9792,2.9792,2.9792,2.9792,2.9792,2.9792,2.9792,2.9792,2.9792,2.9792,2.9792,2.9792,2.9934,3.0075,3.0075,3.0216,3.0996,3.2678,3.289,3.3567,3.5359,3.5504,3.5504,3.5504,3.5504,3.5504,3.5504,3.5504,3.5504,3.5504,3.5504,3.5504,3.5504,3.5504,3.4876,3.3694,3.3829,3.3814,0.0,0.0,0.0,0.0,1.9316,0.0,0.0,0.0,1.6093,1.4757,0.0,0.0,0.0,0.0,0.0,0.0,0.0,0.0,1.6633,1.7627,1.8867,2.0,2.0839,2.1337,2.1337,2.0674,2.0762,2.1943,2.1339,2.1357,2.2519,2.2896,2.3091,2.3091,2.3091,2.3091,2.3091,2.3091,2.3091,2.3091,2.3091,2.3091,2.3091,2.3091,2.3091,2.3178,2.4296,2.5378,2.6389,2.7481,2.8518,2.9209,2.7261,2.7168,2.8096,2.8096,2.8806,2.9792,2.9792,2.9792,2.9792,2.9792,2.9792,2.9792,2.9792,2.9792,2.9792,2.9792,2.9792,2.9792,2.9792,2.9792,2.9792,2.9792,2.9792,2.9792,2.9792,2.9792,2.9792,2.9792,2.9792,2.9792,2.9792,2.9792,2.9792,2.9792,3.052,3.1044,3.1044,3.1792,3.2678,3.3739,3.3842,3.4293,3.5407,3.5504,3.5504,3.5504,3.5504,3.5504,3.5504,3.5504,3.5504,3.5504,3.5504,3.5504,3.5504,3.5504,3.5115,3.4414,3.4996,3.4951,0.0,0.0,0.0,0.0,0.0,0.0,1.6777,0.0,1.5878,0.0,0.0,0.0,0.0,0.0,0.0,0.0,1.54,0.0,0.0,0.0,1.708,1.8623,0.0,1.9611,2.0352,1.9912,1.998,2.1085,2.0537,2.0762,2.208,2.2549,2.2847,2.3091,2.3091,2.3091,2.3091,2.3091,2.3091,2.3091,2.3091,2.3091,2.3091,2.3091,2.3091,2.3222,2.501,2.6058,2.6637,2.8371,2.9365,2.9702,2.8791,2.87,2.9106,2.9106,2.9404,2.9792,2.9792,2.9792,2.9792,2.9792,2.9792,2.9792,2.9792,2.9792,2.9792,2.9792,2.9792,2.9792,2.9792,2.9792,2.9792,2.9792,2.9792,2.9792,2.9792,2.9792,2.9792,2.9792,2.9792,2.9792,2.9792,2.9792,2.9792,2.9792,3.0582,3.1217,3.1217,3.2033,3.2961,3.391,3.3993,3.4394,3.5392,3.5504,3.5504,3.5504,3.5504,3.5504,3.5504,3.5504,3.5504,3.5504,3.5504,3.5504,3.5504,3.5504,3.5355,3.5085,3.537,3.5355,2.1804,0.0,0.0,0.0,0.0,0.0,0.0,0.0,0.0,0.0,0.0,0.0,0.0,0.0,0.0,0.0,0.0,1.4873,0.0,1.4873,0.0,0.0,0.0,0.0,1.9287,1.8682,1.873,1.9941,1.9424,1.9766,2.1435,2.2041,2.2539,2.2916,2.3033,2.3091,2.3091,2.3091,2.3091,2.3091,2.3091,2.3091,2.3091,2.3091,2.3256,2.3681,2.5641,2.6678,2.7087,2.9,2.9792,2.9792,2.9792,2.9792,2.9792,2.9792,2.9792,2.9792,2.9792,2.9792,2.9792,2.9792,2.9792,2.9792,2.9792,2.9792,2.9792,2.9792,2.9792,2.9792,2.9792,2.9792,2.9792,2.9792,2.9792,2.9792,2.9792,2.9792,2.9792,2.9792,2.9792,2.9792,2.9792,2.9792,2.9908,3.0139,3.0983,3.1669,3.1924,3.2784,3.365,3.4327,3.4394,3.4725,3.5439,3.5504,3.5504,3.5504,3.5504,3.5504,3.5504,3.5504,3.5504,3.5504,3.5504,3.5504,3.5504,3.5504,3.5504,3.5504,3.5504,3.5504,2.3033,2.3033,2.2428,1.9951,1.9297,1.8603,1.6055,0.0,1.7207,0.0,0.0,0.0,0.0,0.0,0.0,0.0,0.0,0.0,0.0,0.0,0.0,0.0,0.0,0.0,0.0,1.6533,1.6416,1.851,1.7506,1.7939,2.0507,2.1435,2.21,2.2519,2.2886,2.3091,2.3091,2.3091,2.3091,2.3091,2.3091,2.3091,2.3091,2.3091,2.3714,2.4787,2.5975,2.7087,2.8136,2.9326,2.9792,2.9792,2.9792,2.9792,2.9792,2.9792,2.9792,2.9792,2.9792,2.9792,2.9792,2.9792,2.9792,2.9792,2.9792,2.9792,2.9792,2.9792,2.9792,2.9792,2.9792,2.9792,2.9792,2.9792,2.9792,2.9792,2.9792,2.9792,2.9792,2.9792,2.9792,2.9792,2.9792,2.9792,3.0101,3.1007,3.196,3.289,3.3774,3.4806,3.5439,3.5439,3.5457,3.5472,3.5504,3.5504,3.5504,3.5504,3.5504,3.5504,3.5504,3.5504,3.5504,3.5504,3.5504,3.5504,3.5504,3.5504,3.5504,3.5504,3.5504,3.5504,2.3169,2.3091,2.2682,2.0966,1.9932,1.897,1.7743,1.7426,1.7419,0.0,0.0,0.0,0.0,0.0,0.0,0.0,0.0,0.0,0.0,0.0,0.0,0.0,0.0,0.0,0.0,0.0,1.5927,1.7243,1.6941,1.7701,2.001,2.0967,2.1777,2.249,2.2877,2.3091,2.3091,2.3091,2.3091,2.3091,2.3091,2.3091,2.3091,2.3091,2.3714,2.4872,2.6016,2.7128,2.8176,2.9326,2.9792,2.9792,2.9792,2.9792,2.9792,2.9792,2.9792,2.9792,2.9792,2.9792,2.9792,2.9792,2.9792,2.9792,2.9792,2.9792,2.9792,2.9792,2.9792,2.9792,2.9792,2.9792,2.9792,2.9792,2.9792,2.9792,2.9792,2.9792,2.9792,2.9792,2.9792,2.9792,2.9792,2.9792,3.0101,3.1082,3.1997,3.2961,3.3876,3.4872,3.5504,3.5504,3.5504,3.5504,3.5504,3.5504,3.5504,3.5504,3.5504,3.5504,3.5504,3.5504,3.5504,3.5504,3.5504,3.5504,3.5504,3.5504,3.5504,3.5504,3.5504,3.5504,2.3627,2.3549,2.3247,2.197,2.0947,1.9974,1.9014,1.865,1.8552,1.8559,0.0,0.0,0.0,0.0,0.0,0.0,0.0,0.0,0.0,1.3831,0.0,0.0,0.0,0.0,0.0,0.0,1.5225,1.6406,1.6317,1.7096,1.9131,2.0205,2.1122,2.2031,2.2574,2.2945,2.3091,2.3091,2.3091,2.3091,2.3091,2.3299,2.3714,2.3714,2.4542,2.6025,2.6748,2.7695,2.8767,2.9495,2.9792,2.9792,2.9792,2.9792,2.9792,2.9792,2.9792,2.9792,2.9792,2.9792,2.9792,2.9792,2.9792,2.9792,2.9792,2.9792,2.9792,2.9792,2.9792,2.9792,2.9792,2.9792,2.9792,2.9792,2.9792,2.9792,2.9792,2.9792,2.9792,2.9792,2.9792,2.9792,2.9792,2.9792,3.0216,3.1499,3.2213,3.3066,3.4361,3.51,3.5504,3.5504,3.5504,3.5504,3.5504,3.5504,3.5504,3.5504,3.5504,3.5504,3.5504,3.5504,3.5504,3.5504,3.5504,3.5504,3.5504,3.5504,3.5504,3.5504,3.5504,3.5504]}]]